GFSNW_850_spd_000.txt.gz
Wind_Speed
9 14 13 14 14 10 4 6 2 15 5 4 5 4 3 7 3 3 3 8 10 7 9 5 3 4 5 4 1 2 1 2 4 2 2 2 2 3 7 2 1 3 3 6
9 12 13 12 12 13 6 3 4 20 12 5 6 7 6 8 6 7 3 4 3 2 3 4 5 6 6 6 5 2 3 1 4 2 2 3 2 2 3 5 2 3 3 4
10 9 11 9 9 10 6 4 2 7 19 20 8 8 6 4 5 4 8 2 5 5 7 6 6 5 2 3 4 3 1 2 3 2 5 2 3 2 3 3 2 3 8 9
10 8 9 8 6 7 4 6 2 1 3 6 7 6 4 6 3 3 5 4 7 3 4 6 4 5 4 5 1 3 3 2 5 5 3 2 5 8 8 10 12 6 15 12
9 8 7 6 4 6 5 3 2 4 4 1 3 2 4 6 4 7 4 6 5 8 8 6 4 5 2 3 0 2 3 1 3 2 7 4 6 11 11 14 17 15 16 20
8 6 6 5 2 4 4 5 5 3 1 1 2 3 4 6 2 6 9 6 5 10 8 12 11 9 7 4 3 4 2 1 3 3 4 4 9 12 14 10 11 8 12 16
6 5 4 3 2 5 7 4 4 2 2 1 3 4 5 8 7 4 6 11 5 3 4 5 3 5 4 5 3 4 2 3 1 3 4 3 7 5 6 5 7 10 11 9
6 5 2 2 1 3 5 6 4 4 3 7 5 5 6 9 7 5 9 6 4 1 2 1 2 2 2 2 6 5 3 2 3 3 4 8 10 5 2 1 5 6 7 9
7 6 5 2 1 3 4 4 7 5 3 2 4 5 4 3 3 3 2 3 3 2 1 1 3 3 3 4 4 2 1 3 2 3 3 5 2 5 10 4 5 4 8 6
7 7 7 6 4 4 5 3 3 4 4 5 8 2 2 3 4 3 2 3 3 3 1 2 1 1 1 2 3 4 3 3 6 6 4 6 9 12 6 1 3 4 4 6
6 7 8 8 7 6 6 4 5 3 2 4 7 8 5 6 4 3 7 4 1 1 2 2 2 2 2 0 2 3 6 6 4 3 3 6 3 6 2 5 17 9 6 8
7 7 8 9 9 10 8 6 7 5 3 4 8 12 11 9 8 6 13 1 5 4 3 1 2 1 2 0 2 1 4 5 2 6 5 4 1 14 17 24 19 13 14 6
6 4 7 9 10 8 11 7 4 6 4 5 6 4 9 13 13 8 3 2 3 3 3 4 2 2 3 3 5 7 5 15 6 7 2 6 22 30 18 21 16 15 14 14
6 6 6 8 9 9 9 7 5 7 1 1 2 2 4 5 11 20 10 5 6 7 5 3 2 2 8 2 4 7 5 11 4 7 14 21 20 15 14 15 15 14 13 13
6 6 6 8 8 9 10 9 8 11 3 1 3 4 6 7 5 9 15 15 5 4 3 2 3 2 1 2 3 9 11 8 4 7 15 18 20 23 26 22 18 13 12 13
7 6 7 8 7 9 9 4 9 12 10 1 1 2 3 8 9 10 6 11 12 7 6 4 4 5 5 2 3 11 15 14 17 15 19 20 23 23 17 16 16 14 13 15
7 8 10 9 11 11 5 3 3 9 13 3 2 2 4 4 6 7 9 11 7 7 7 6 5 6 9 2 7 10 18 24 24 21 20 21 20 15 19 20 19 19 17 16
6 10 12 11 10 11 6 5 6 11 8 3 1 1 3 7 4 4 6 7 6 7 5 4 4 8 7 6 12 11 14 14 14 14 18 20 22 20 21 19 17 16 14 11
11 12 12 12 10 7 7 5 5 10 3 2 2 2 2 7 3 5 4 5 3 7 3 3 5 3 6 9 9 17 16 9 16 18 20 25 23 23 20 16 14 12 9 6
15 16 4 5 8 10 9 6 5 6 4 4 3 3 2 3 4 2 5 1 1 1 2 3 3 4 22 27 28 24 18 22 27 21 20 19 20 17 13 10 8 7 7 8
17 6 5 10 13 6 3 3 2 3 2 5 4 7 3 3 2 2 1 2 3 2 2 3 3 4 6 15 16 15 13 12 13 17 18 19 17 12 10 10 10 9 9 9
13 8 13 12 3 2 3 3 3 3 3 5 4 4 4 4 3 3 1 1 1 3 3 2 4 4 12 9 7 9 11 15 16 18 18 14 11 9 10 11 9 9 9 10
13 5 5 4 2 3 5 7 3 3 7 7 5 3 4 3 2 4 1 1 2 1 1 4 5 3 5 7 8 9 10 12 14 14 11 9 9 9 9 9 9 8 8 10
4 7 5 5 4 5 4 2 3 4 6 16 14 6 3 3 2 2 2 1 1 3 3 7 3 13 11 8 7 9 10 12 12 11 10 11 10 10 10 9 8 9 11 13
6 6 5 6 4 3 6 13 10 8 18 17 9 5 4 2 2 2 2 4 4 4 5 3 2 4 7 8 9 10 12 12 13 13 13 13 13 13 12 11 11 12 14 16
6 5 1 3 4 3 4 10 9 14 21 10 6 3 3 4 3 5 7 3 6 4 3 7 7 8 9 10 10 11 13 14 14 14 14 14 16 16 14 13 14 14 17 19
4 4 15 7 3 8 10 11 12 18 16 3 4 6 9 2 3 4 4 5 3 4 9 9 11 11 12 12 13 16 16 15 14 14 16 17 17 17 16 15 15 17 19 21

GFSNW_850_spd_003.txt.gz
Wind_Speed
14 13 15 15 16 13 5 3 2 15 8 4 3 3 3 4 4 5 5 9 5 6 5 4 4 4 3 5 1 2 1 5 4 2 2 2 2 4 5 4 1 1 4 5
12 12 12 13 14 13 8 5 5 16 5 3 2 3 4 5 5 5 4 4 2 5 3 5 4 4 5 8 3 3 0 3 4 4 3 2 3 2 3 3 2 3 3 5
10 12 11 10 11 10 7 2 3 11 24 13 6 5 4 4 6 5 5 4 6 5 7 6 4 3 3 6 3 5 2 3 3 5 4 4 4 3 3 5 3 4 7 5
10 10 10 9 7 7 4 2 1 2 1 5 6 5 3 3 3 3 5 5 4 3 4 3 4 3 2 5 3 3 3 3 3 2 2 1 4 6 6 7 5 6 2 8
11 8 8 9 5 4 2 1 4 5 2 1 7 5 4 4 3 4 4 6 11 12 5 1 4 6 3 3 1 2 4 2 3 2 3 4 6 8 9 10 8 8 9 17
11 8 6 7 5 5 2 3 3 3 1 2 4 1 3 3 6 6 10 3 6 10 3 7 8 12 10 6 5 2 3 3 3 0 4 5 8 8 10 4 3 5 7 9
9 9 5 4 3 4 4 6 3 3 1 3 3 4 5 5 2 6 5 13 5 2 2 4 8 14 13 12 8 6 3 4 3 2 3 2 4 4 5 7 5 5 5 7
9 9 5 3 1 1 2 2 2 3 2 7 6 7 6 10 13 6 5 6 5 4 2 4 4 5 4 5 6 5 3 4 3 4 3 7 6 5 4 3 4 2 1 4
10 8 7 4 3 3 3 2 3 4 7 1 8 6 6 4 3 3 3 5 5 3 2 3 3 3 3 2 2 4 3 5 4 3 3 4 4 1 1 3 4 3 2 1
10 10 8 5 5 5 4 4 2 3 4 4 10 3 5 7 5 3 2 3 2 3 2 2 2 3 1 4 5 4 3 2 4 3 2 7 7 5 2 2 4 16 8 8
8 11 10 8 7 5 6 4 4 3 3 5 3 5 6 8 7 5 7 4 1 2 3 3 3 2 3 0 3 6 6 5 4 3 3 6 0 3 2 2 7 11 14 14
7 9 11 12 9 8 8 5 5 3 3 3 4 6 5 4 8 8 11 2 4 5 4 2 3 2 2 3 2 1 2 5 4 7 5 5 9 8 10 8 7 7 8 10
5 6 11 12 10 9 11 8 6 5 3 1 2 3 7 7 6 7 6 4 5 5 4 4 2 3 3 3 4 2 3 4 3 2 1 2 9 9 6 8 9 6 7 7
5 5 7 11 11 10 10 9 7 6 3 3 2 3 2 5 13 9 5 11 10 10 6 4 2 3 4 3 3 4 7 2 2 6 11 13 3 18 16 10 10 8 7 6
6 5 8 9 9 10 9 8 6 8 4 3 4 3 2 1 6 12 11 7 10 6 4 3 2 3 2 3 3 3 9 7 5 6 5 3 10 12 15 14 13 10 10 10
6 7 9 10 11 11 10 3 10 10 7 3 1 3 1 2 4 7 11 11 7 4 4 3 4 4 3 2 4 9 13 14 15 6 11 16 9 6 5 9 11 10 10 11
9 10 12 12 13 14 5 4 6 14 12 5 2 2 3 7 8 7 10 11 5 4 4 3 6 5 8 2 4 6 9 7 15 5 3 2 8 11 18 20 17 16 16 15
11 15 14 11 13 11 9 5 9 14 6 4 3 1 3 8 4 3 4 4 5 5 4 5 4 5 5 5 11 8 6 8 7 6 10 14 15 19 24 22 19 16 15 12
18 18 16 12 10 7 7 8 13 14 3 6 3 4 3 8 4 5 4 3 2 4 2 3 6 3 6 8 8 12 12 6 10 14 16 22 19 17 17 15 14 13 11 8
24 22 8 6 8 9 11 6 5 7 4 4 3 6 3 8 5 3 4 2 1 2 2 6 1 4 25 26 23 21 17 11 13 20 17 15 18 17 15 9 8 11 11 9
22 8 6 11 17 7 4 3 4 4 1 6 5 10 4 6 3 3 4 3 2 3 2 4 2 4 5 10 10 10 10 9 6 8 11 12 13 11 10 5 7 8 8 8
16 10 17 13 5 3 3 4 2 3 5 6 6 5 5 5 4 5 3 3 2 3 5 2 3 4 11 6 3 2 2 5 7 9 13 13 10 9 7 4 4 6 5 4
19 5 7 5 3 3 7 8 4 3 7 9 7 3 6 4 3 5 3 4 3 9 3 4 5 5 3 6 4 3 4 6 9 14 15 14 11 10 8 7 4 4 5 8
6 8 6 5 4 5 4 4 4 5 10 20 18 7 4 3 3 3 4 2 3 3 3 6 2 7 6 6 4 4 7 10 14 16 15 13 11 10 9 8 8 8 9 10
5 7 6 5 5 2 3 10 10 8 23 22 11 6 4 1 3 1 3 3 2 4 4 3 2 2 1 5 8 8 10 13 16 15 15 13 12 12 12 12 12 12 12 13
8 4 4 4 5 2 6 7 10 20 20 10 4 3 3 2 3 3 4 4 6 4 3 7 4 4 8 12 12 12 13 15 17 17 16 15 14 15 15 16 17 16 15 16
4 2 8 12 5 8 8 9 9 21 14 2 3 5 5 3 3 2 4 5 4 5 8 7 11 15 18 16 17 16 15 16 18 19 18 17 15 15 18 20 18 17 17 18

GFSNW_850_spd_006.txt.gz
Wind_Speed
14 11 13 15 15 16 6 2 1 6 23 2 1 3 3 5 4 9 4 15 19 7 4 3 3 5 2 1 4 6 2 5 4 3 1 1 3 7 5 4 3 1 3 5
11 9 12 12 12 13 11 5 2 6 18 2 2 1 4 2 2 2 9 4 1 4 4 5 2 4 2 5 3 5 5 3 4 3 4 2 4 4 4 4 3 4 5 5
9 8 10 10 9 10 9 3 1 5 11 3 6 4 2 3 4 7 5 4 6 3 6 6 4 3 3 3 3 3 2 3 5 7 4 5 5 5 5 5 4 3 5 2
10 7 8 9 8 7 3 2 2 2 2 2 3 2 3 3 3 6 4 5 4 5 4 3 3 2 3 4 2 3 3 4 2 3 3 3 4 6 8 7 4 6 1 5
10 7 8 8 7 5 2 3 1 2 3 2 4 4 0 3 3 3 4 6 4 7 5 2 5 5 2 2 3 3 3 3 2 2 4 2 3 5 6 5 4 6 2 11
11 8 7 6 6 4 2 3 1 1 4 2 3 2 5 4 6 6 8 10 11 12 0 8 12 12 11 5 4 2 3 3 2 2 3 5 5 6 5 4 4 5 4 5
11 7 7 5 4 2 2 3 2 2 0 1 2 3 3 4 1 6 4 7 6 5 5 11 14 20 18 16 8 4 4 4 2 2 2 1 1 4 6 5 3 3 4 5
12 9 7 5 3 1 1 1 2 2 3 2 5 6 6 8 13 6 5 5 7 8 5 4 4 4 3 5 6 6 3 4 3 3 2 5 2 3 3 3 2 2 4 1
11 10 9 7 4 4 2 2 3 4 6 2 6 4 5 4 3 3 3 5 6 4 3 3 4 4 3 2 2 5 5 6 4 3 3 5 3 2 2 2 2 3 2 3
11 12 10 8 7 5 4 2 3 3 6 3 10 3 5 6 4 4 2 4 3 2 2 2 2 2 2 4 6 4 3 3 5 3 2 6 5 7 1 4 3 6 10 10
11 13 12 9 7 6 6 5 4 3 4 7 4 4 5 5 5 5 7 5 1 2 3 3 2 2 3 2 4 5 6 6 4 3 2 7 3 0 3 4 5 8 10 9
11 11 14 13 9 8 7 5 6 7 4 6 7 8 7 5 5 7 9 2 3 4 4 2 3 2 1 3 2 1 2 5 4 7 5 1 7 9 10 7 5 1 4 5
10 9 11 12 11 7 8 5 7 7 6 7 6 4 5 5 4 6 5 3 4 4 4 5 2 2 3 4 4 2 2 3 2 1 1 6 9 11 3 2 1 3 3 5
11 10 10 12 12 8 9 9 8 7 5 4 2 4 4 5 7 4 4 6 9 11 5 4 2 2 4 3 2 3 6 2 2 3 6 1 11 3 3 3 5 6 7 8
11 10 10 11 12 11 9 9 9 8 3 4 5 5 3 2 6 9 7 11 12 6 4 3 1 2 3 2 2 4 7 6 4 4 4 3 2 6 8 7 7 7 11 13
12 12 12 9 10 11 9 2 6 6 6 4 2 2 3 4 6 10 10 8 7 5 5 3 2 1 2 2 2 8 9 6 10 4 5 7 5 2 4 8 12 15 14 16
15 14 14 13 14 14 7 4 4 14 11 3 2 1 4 11 12 9 9 8 4 4 5 3 3 1 2 2 4 8 4 8 5 5 3 2 2 9 13 14 14 13 12 12
18 18 16 15 15 13 4 3 8 14 5 3 3 1 3 8 3 3 4 4 4 4 4 4 3 2 1 4 6 5 6 1 5 6 5 4 9 13 15 14 12 11 10 9
23 21 18 16 14 7 7 8 13 14 3 5 3 4 3 8 4 4 3 3 2 2 2 2 6 3 5 5 4 9 9 6 2 6 10 12 14 9 10 13 12 9 8 6
29 26 7 7 10 9 12 5 4 4 3 3 2 5 2 6 3 3 4 3 1 2 1 8 2 4 16 17 13 11 10 11 11 12 13 7 9 12 13 12 9 7 7 8
30 9 5 16 20 9 5 3 2 2 1 5 5 8 5 4 3 2 3 2 1 2 3 3 2 3 3 4 7 8 9 7 6 2 3 7 11 11 10 9 7 6 8 9
15 11 21 19 6 3 4 4 2 3 5 5 5 6 7 6 4 4 3 3 1 3 4 2 3 4 4 4 6 8 6 3 2 5 10 13 12 11 9 8 7 7 9 9
25 6 8 6 4 3 8 9 4 4 7 10 9 4 7 5 4 5 2 3 3 9 2 3 4 6 3 4 4 3 2 1 3 9 14 15 14 12 10 9 8 9 10 9
6 7 6 5 5 6 5 5 4 6 13 24 21 7 4 4 3 2 4 2 4 3 3 5 3 3 3 4 2 3 5 4 7 13 16 17 15 13 12 10 10 11 11 10
5 6 6 7 5 2 5 7 11 9 28 26 14 8 4 2 3 2 3 3 3 5 4 3 6 10 10 3 4 8 11 12 12 14 16 18 17 16 15 13 12 13 13 13
6 4 3 6 6 2 7 9 10 23 30 21 7 4 4 3 4 4 4 7 6 3 3 10 14 10 7 4 7 11 14 16 15 16 17 18 19 18 15 14 15 16 16 17
5 3 5 9 7 8 9 14 16 30 21 3 4 5 6 3 3 2 3 4 3 9 12 14 11 6 8 10 11 11 14 16 17 17 18 20 19 17 17 17 15 16 17 18

GFSNW_850_spd_009.txt.gz
Wind_Speed
16 15 13 14 15 13 8 2 1 8 21 2 2 2 3 9 8 3 4 2 9 7 7 6 3 6 2 9 9 7 3 5 4 2 0 2 2 7 6 4 4 2 3 6
13 12 11 11 13 11 12 3 4 12 10 1 2 1 3 2 3 4 4 5 4 3 5 5 3 5 1 6 5 7 6 1 4 3 4 2 4 5 4 4 3 5 5 5
11 11 10 8 11 11 11 2 2 5 13 8 3 6 1 1 2 0 5 3 5 4 3 4 4 4 2 3 3 6 6 3 6 9 6 6 5 5 5 6 4 4 6 4
11 10 9 7 9 9 7 3 3 3 4 4 3 3 5 1 3 4 5 4 4 4 4 3 5 3 4 3 4 3 3 4 3 2 5 4 5 6 9 7 5 6 3 6
12 10 9 7 7 8 4 3 1 1 1 2 4 2 1 3 1 2 2 3 1 2 4 2 5 6 2 3 3 2 2 2 3 1 3 4 1 2 7 4 3 4 3 4
13 10 10 7 5 6 4 3 3 1 3 1 3 3 5 5 7 6 1 14 8 5 7 7 13 12 11 6 5 3 2 5 3 2 3 2 4 8 7 4 4 6 5 3
13 9 10 7 5 5 5 4 4 2 2 0 3 4 3 6 1 6 2 2 4 10 20 16 16 20 18 14 8 5 4 3 3 2 2 2 2 3 4 5 3 3 6 4
14 11 11 8 6 4 3 3 4 3 2 2 2 5 5 8 11 5 4 4 7 17 7 4 6 5 6 6 7 8 5 4 3 4 3 3 2 3 6 5 2 3 4 4
13 11 12 10 8 6 5 1 2 1 5 3 5 4 3 4 4 3 3 7 10 5 3 3 5 5 4 2 4 5 5 5 3 2 3 5 2 1 3 4 1 2 4 4
14 12 12 11 10 8 7 4 4 1 4 3 6 3 5 6 5 4 2 4 4 2 2 3 3 2 3 5 8 5 2 2 4 2 2 5 5 3 3 4 4 5 7 6
14 13 14 12 11 9 9 7 5 4 3 5 3 3 4 5 5 4 7 5 2 3 3 3 3 3 3 3 4 5 6 5 3 3 2 6 0 2 5 6 9 10 5 3
14 14 15 13 11 9 9 9 8 7 3 5 7 8 7 5 4 8 10 1 3 6 4 1 3 2 1 3 3 1 2 5 4 7 4 2 3 9 14 10 10 4 2 1
14 13 13 15 12 10 10 10 11 9 7 7 6 5 5 5 5 5 5 4 5 4 4 4 3 3 3 4 4 2 1 3 3 2 2 3 10 12 8 4 3 2 4 4
15 13 13 13 14 11 11 10 11 7 6 4 3 5 4 4 4 2 2 6 9 11 5 3 3 3 3 3 2 3 3 4 4 1 1 3 8 4 5 6 6 5 5 5
16 14 13 14 15 11 10 10 9 8 3 4 4 6 4 2 6 3 6 11 12 5 3 3 2 3 4 2 2 3 6 6 4 4 7 5 6 6 3 3 1 3 6 9
17 15 13 13 16 15 12 5 6 9 10 5 2 2 3 5 8 10 10 10 7 5 4 2 3 3 3 3 2 4 5 3 3 6 12 6 5 6 2 2 5 8 11 12
19 18 16 14 16 17 7 3 6 13 9 4 3 1 1 9 8 6 7 7 6 4 4 2 3 3 3 3 4 4 2 9 5 7 9 8 7 2 4 6 8 10 12 12
21 18 17 17 16 14 7 4 9 13 8 4 3 1 1 2 3 3 3 4 4 4 3 2 2 4 2 3 6 5 7 9 7 6 4 4 1 5 9 8 10 12 12 11
23 21 19 16 12 9 8 10 12 10 5 7 3 4 3 4 3 3 4 3 2 2 1 0 2 1 4 4 6 9 10 3 6 5 3 5 8 5 6 10 13 15 12 9
26 26 8 7 11 14 14 6 3 3 2 3 2 7 3 6 2 3 3 4 2 1 0 3 1 3 11 11 7 5 8 10 5 5 8 7 3 6 9 11 12 12 9 7
26 8 4 19 22 8 3 4 3 2 2 6 6 5 5 3 3 2 2 2 1 2 2 2 2 3 4 3 8 15 18 15 11 4 4 2 7 10 12 11 11 11 10 10
18 11 19 19 5 4 4 3 2 3 5 5 5 6 8 6 4 4 1 2 1 4 4 2 3 4 5 3 10 14 14 14 12 7 5 7 9 11 12 13 12 11 11 12
29 8 8 5 3 3 8 10 4 4 7 13 10 5 7 6 5 5 2 3 3 7 1 3 4 3 4 11 11 12 12 10 7 2 5 9 12 13 14 14 13 13 13 13
6 7 6 5 5 6 5 5 4 6 12 24 21 7 4 5 3 3 4 2 3 3 3 6 3 9 11 14 11 9 6 6 7 5 6 10 13 15 16 16 14 14 15 14
5 6 5 7 3 3 4 8 11 10 28 29 15 8 5 2 4 2 4 4 4 5 5 3 9 17 19 13 8 4 5 7 10 12 13 13 16 17 19 17 16 15 15 16
4 4 4 3 4 2 5 7 9 22 29 25 8 4 3 2 4 4 6 7 7 4 3 11 21 21 14 5 4 3 5 9 12 15 16 17 18 19 20 19 18 17 17 17
4 2 6 10 4 7 9 11 14 31 26 3 3 5 6 4 2 2 3 5 4 7 13 21 19 12 7 4 5 6 8 10 13 14 17 19 19 20 22 21 18 16 16 17

GFSNW_850_spd_012.txt.gz
Wind_Speed
16 16 16 12 13 10 6 3 2 10 27 5 3 6 6 8 7 3 3 3 7 9 11 6 6 8 5 18 11 8 3 6 5 4 1 5 5 7 6 4 4 1 3 6
16 15 14 10 10 7 5 3 5 16 17 3 3 2 2 3 3 2 4 4 4 13 7 7 3 3 5 10 7 8 7 2 5 3 1 3 4 4 4 5 3 7 6 5
16 13 13 9 8 7 5 5 3 5 16 7 3 3 3 3 4 4 2 5 11 7 4 7 7 7 2 6 4 6 8 3 6 9 5 7 5 5 5 6 4 5 6 5
16 13 12 10 8 6 5 6 4 6 4 5 6 3 5 4 5 6 3 4 10 6 5 5 5 3 5 3 8 3 4 4 3 3 3 5 7 9 10 9 7 7 5 8
16 14 12 10 9 6 8 4 4 4 2 1 7 4 5 4 3 4 1 6 6 7 3 4 8 7 4 5 3 5 2 2 3 2 3 2 3 4 8 5 4 3 5 5
17 14 13 11 9 7 6 6 6 3 1 2 3 3 4 4 6 3 4 6 6 7 2 4 13 12 10 8 6 4 6 5 3 3 1 3 4 8 7 5 4 7 7 7
16 13 13 12 11 9 9 8 5 4 2 2 2 3 1 5 2 5 2 6 5 7 22 17 20 24 19 14 8 3 5 4 2 3 1 1 3 1 6 6 2 4 5 5
16 13 14 12 12 10 8 8 6 5 2 1 1 4 4 7 11 4 4 3 6 20 1 4 5 4 4 5 6 7 3 4 3 4 4 3 0 4 6 5 1 1 7 6
16 15 14 13 13 11 9 6 8 4 4 4 3 4 3 4 4 4 2 5 15 8 1 4 3 2 3 3 2 3 4 6 3 2 3 7 1 3 6 4 2 5 8 5
16 15 14 14 14 11 9 7 6 3 4 4 5 3 5 6 4 4 4 5 4 2 2 3 3 4 2 4 7 5 3 3 4 2 2 6 3 3 3 5 4 8 11 11
17 16 14 15 15 13 10 8 6 4 3 6 4 3 5 5 4 4 9 6 1 2 3 3 3 3 4 3 2 5 5 6 4 3 2 6 3 4 6 5 12 15 12 8
19 17 15 16 15 13 10 8 7 7 3 6 9 9 7 5 4 6 10 1 4 6 4 1 3 2 2 4 3 2 2 4 4 6 4 1 1 3 18 16 19 11 6 6
20 18 16 17 15 14 13 10 11 8 7 7 6 6 8 8 6 8 4 3 4 4 4 4 2 3 3 4 4 2 1 2 2 3 2 2 13 17 14 12 10 8 5 4
20 18 16 17 17 14 13 12 14 7 5 4 2 5 5 4 5 5 3 5 8 10 4 3 2 3 3 3 3 3 3 5 4 0 2 3 7 9 11 9 6 4 2 2
20 18 16 15 18 14 14 10 13 11 3 4 5 7 5 3 4 5 6 10 12 5 3 3 2 4 4 2 2 2 5 5 5 5 9 5 9 11 8 6 5 5 3 3
21 19 17 18 18 16 15 5 10 11 11 6 2 3 4 8 7 9 9 8 5 4 4 2 3 3 3 3 4 3 9 7 5 3 13 8 16 11 10 7 5 3 3 5
22 19 18 19 20 21 6 4 12 15 10 4 3 2 3 9 8 6 6 6 4 3 4 2 3 3 5 3 4 5 11 14 10 15 14 11 14 8 6 4 2 2 6 8
23 22 20 19 18 14 8 8 15 13 5 4 3 1 2 4 3 3 3 3 3 5 3 2 2 3 2 3 4 7 8 15 14 16 7 10 11 6 3 2 1 5 8 9
28 25 21 18 11 6 8 13 13 8 4 6 3 5 3 5 3 4 3 2 2 1 1 1 2 1 4 5 10 16 17 12 16 15 13 8 5 6 4 1 4 7 9 9
32 29 9 7 11 14 15 5 3 3 2 3 3 6 3 4 3 2 2 3 1 1 0 0 2 3 4 9 12 15 18 12 18 14 9 6 9 4 0 4 6 8 8 8
30 10 5 21 25 10 2 3 3 1 2 4 5 5 5 3 3 2 1 2 1 2 3 2 3 3 3 12 17 15 17 19 12 5 13 9 4 1 3 5 7 8 9 9
17 14 22 20 5 3 4 3 1 3 6 6 4 7 8 6 4 3 1 3 2 1 1 1 3 3 4 2 10 18 21 19 10 14 9 5 1 3 5 7 9 9 10 10
34 8 6 6 2 3 7 8 4 3 5 11 11 5 8 5 4 4 3 3 3 4 1 3 4 2 8 11 15 20 21 22 19 12 6 2 3 5 7 8 9 11 11 11
6 5 6 6 5 5 5 4 4 5 9 22 21 7 4 5 3 2 4 1 3 3 4 7 3 14 17 18 19 21 20 17 13 9 6 3 4 6 9 11 12 13 13 12
4 6 5 4 4 4 4 7 8 7 27 27 14 8 6 2 4 1 3 4 4 6 5 3 10 23 23 22 18 15 12 10 8 6 6 8 9 10 11 12 14 14 13 14
3 3 4 6 4 3 6 9 9 21 28 23 6 4 3 2 4 4 6 7 7 4 3 5 23 27 23 18 13 10 7 5 5 6 8 9 11 12 14 15 16 16 15 13
4 2 3 8 5 7 8 13 14 27 21 3 3 5 4 3 3 4 4 5 3 5 11 25 30 25 19 12 8 4 3 3 4 8 10 12 14 16 16 16 17 15 13 12

GFSNW_850_spd_015.txt.gz
Wind_Speed
19 16 14 13 11 10 7 3 2 3 33 6 4 3 5 8 9 25 12 8 6 7 10 8 6 10 5 23 9 7 6 6 4 4 1 4 6 8 7 4 3 1 2 5
19 15 14 12 10 7 5 4 4 11 32 3 5 4 13 13 9 12 4 5 4 9 8 7 5 7 13 22 16 9 6 2 5 4 1 3 4 4 4 4 3 6 5 4
18 15 14 12 10 8 7 5 3 6 18 7 3 5 2 5 6 2 3 4 7 7 9 2 6 7 5 18 15 13 7 3 5 8 4 6 5 5 5 8 4 5 6 4
18 15 15 13 12 9 7 7 5 8 5 7 10 4 6 9 5 9 4 5 14 10 5 4 5 5 4 4 15 4 3 3 3 1 2 6 6 8 11 10 10 10 7 8
17 16 15 13 13 11 11 5 4 6 3 4 7 7 4 11 6 4 5 9 18 5 6 6 10 8 5 8 3 6 2 3 3 1 2 4 5 6 12 11 4 7 5 7
17 16 15 15 15 12 8 7 8 3 2 2 4 4 5 6 5 2 3 13 5 4 1 3 14 14 7 8 6 4 5 6 4 3 2 5 4 10 11 7 5 11 11 9
17 16 16 16 18 16 14 8 5 4 3 3 4 5 3 5 3 4 4 6 5 4 24 26 23 18 16 13 7 3 5 4 3 3 2 2 5 1 6 8 4 5 3 5
18 16 15 17 17 17 15 13 8 4 3 2 1 4 5 8 7 5 2 6 12 20 1 5 5 4 5 5 5 6 1 5 3 4 4 4 1 4 6 7 5 6 8 6
17 16 16 16 16 16 14 12 12 6 1 4 3 4 4 4 4 3 5 6 13 4 3 3 4 4 5 6 6 1 5 4 2 2 4 6 1 2 6 4 3 8 9 8
18 16 17 16 17 17 13 10 11 7 4 3 5 3 5 7 5 4 5 5 2 4 2 2 3 3 3 4 6 3 3 2 6 3 3 5 4 4 6 4 3 9 15 16
18 16 16 16 17 17 13 11 11 10 3 3 3 3 4 6 6 5 10 5 2 3 2 1 2 3 4 3 4 5 6 6 4 3 2 7 4 4 6 4 13 19 18 14
18 16 18 17 17 18 13 11 10 9 3 3 6 7 6 5 6 11 15 5 6 9 4 2 3 2 2 4 4 0 3 4 4 6 3 1 0 1 10 24 26 15 15 11
18 18 19 18 19 18 15 12 12 10 6 6 4 5 7 6 6 12 5 4 7 5 4 4 3 3 3 4 4 3 2 3 3 3 0 2 10 18 16 18 17 13 11 10
16 19 19 19 20 19 17 13 17 10 5 4 1 5 4 4 5 7 5 7 9 10 5 3 3 3 3 3 2 3 3 5 5 2 2 6 7 14 18 16 13 11 9 8
17 20 19 19 21 17 16 14 16 16 4 4 5 6 5 5 4 4 7 11 11 5 3 3 2 4 4 1 2 2 6 6 5 5 14 6 14 17 16 14 12 10 9 9
18 21 19 20 22 17 14 5 13 15 11 6 3 4 3 8 7 8 9 7 6 4 4 2 3 2 3 3 3 3 11 9 7 5 20 6 23 19 16 14 13 11 8 7
20 22 21 22 20 19 7 4 11 17 11 3 3 2 4 8 6 5 5 5 5 4 4 3 3 2 6 3 4 5 13 11 10 17 21 17 19 14 16 12 11 9 6 4
25 23 24 24 18 19 6 8 15 16 6 3 3 1 3 5 3 3 3 3 3 4 4 3 2 3 2 3 5 10 16 14 17 24 9 20 19 19 14 12 10 6 3 3
28 27 25 20 15 7 9 12 11 4 3 6 3 5 4 7 4 3 3 3 2 1 1 1 4 2 4 6 12 21 25 21 21 16 17 21 18 15 14 11 7 4 3 3
34 29 11 7 11 15 15 6 5 4 2 3 2 6 3 5 3 2 2 3 1 1 1 1 2 3 7 8 18 22 27 21 29 27 18 17 15 16 12 7 4 3 3 4
34 10 5 22 27 10 3 3 3 2 1 3 5 5 4 3 3 3 1 2 1 2 2 2 2 4 4 13 17 23 23 24 23 16 14 13 16 14 9 5 3 2 3 4
17 15 23 24 6 3 4 3 1 4 6 6 4 6 7 6 5 3 1 3 2 2 1 1 3 3 6 14 17 19 23 28 18 20 22 17 12 8 6 3 2 1 3 4
35 12 6 6 2 3 8 9 4 2 5 11 9 5 7 6 4 4 3 4 3 2 1 4 4 1 11 12 20 22 28 21 24 22 17 12 9 6 4 2 0 3 4 6
6 5 7 6 5 5 4 4 4 5 10 23 18 6 4 4 3 3 5 1 3 2 3 5 3 8 11 12 18 31 28 22 22 17 12 8 6 5 3 2 3 5 6 7
4 5 5 4 4 3 6 10 10 8 26 28 14 8 6 2 4 2 4 4 4 5 5 3 4 16 18 18 22 27 28 22 15 10 7 6 5 4 4 4 5 7 7 8
2 3 4 6 4 1 3 10 10 19 29 24 7 4 4 2 6 4 6 7 6 4 3 4 20 26 24 22 20 18 15 12 9 7 6 4 4 5 6 6 7 8 9 9
2 1 3 5 4 5 7 14 17 30 20 2 3 5 5 4 3 5 4 5 3 4 6 19 27 28 24 19 15 12 10 8 6 3 3 5 6 6 7 8 9 10 9 7

GFSNW_850_spd_018.txt.gz
Wind_Speed
21 19 16 16 14 14 13 5 3 7 29 6 4 5 5 6 11 20 12 9 9 15 18 14 8 15 9 26 12 10 8 5 5 5 2 10 10 12 11 4 5 2 3 2
22 17 15 16 16 15 10 5 5 8 32 4 6 6 8 9 8 12 10 10 12 13 14 10 10 15 16 24 17 11 11 7 8 6 3 2 6 11 15 11 2 10 8 3
21 16 14 18 17 17 15 6 3 5 20 6 2 8 8 11 17 10 12 10 11 15 14 10 12 10 9 26 23 23 1 4 11 10 7 11 12 19 17 18 11 10 11 7
20 15 13 18 17 17 16 9 4 7 5 10 12 6 4 8 6 7 12 3 13 17 12 12 12 13 10 16 25 12 4 4 7 4 3 15 19 19 21 22 22 14 15 17
20 15 13 17 19 17 20 6 4 4 4 13 14 13 10 15 10 7 7 8 16 17 15 14 14 11 10 9 17 17 10 3 3 2 2 8 11 19 21 24 22 24 18 16
20 15 13 18 22 20 15 11 9 2 3 5 5 4 5 9 11 8 7 15 16 15 12 9 14 18 11 9 14 18 12 6 3 3 3 4 7 18 19 20 21 21 20 20
22 17 14 19 24 24 21 9 6 5 5 6 4 3 6 5 10 2 1 17 16 4 7 15 15 10 11 13 7 12 12 7 1 1 5 3 2 2 16 22 18 20 17 5
23 17 14 19 24 24 22 19 9 4 4 2 3 5 3 4 5 4 3 4 8 15 6 9 6 2 4 3 5 3 3 2 3 3 8 6 4 5 7 12 14 15 16 8
22 17 15 17 23 22 22 20 15 7 3 2 1 4 6 3 2 2 3 8 11 4 2 3 3 4 5 5 2 3 7 2 1 2 2 5 2 3 6 6 7 13 15 16
19 18 14 16 23 22 20 15 17 10 4 4 4 3 7 7 4 3 2 2 2 5 1 2 2 2 1 9 9 6 4 4 10 4 3 6 1 5 7 6 0 12 17 21
21 16 12 16 22 22 19 17 15 16 5 5 5 4 3 6 6 5 7 4 1 1 3 3 3 2 5 4 7 10 9 7 4 4 6 9 6 5 6 4 12 17 19 17
19 18 13 17 22 23 19 15 16 15 7 3 3 3 5 6 7 10 16 1 6 7 3 1 2 3 2 5 5 2 7 4 3 7 3 2 0 2 1 11 20 13 19 16
21 20 13 19 21 23 19 18 17 14 6 3 4 3 4 5 6 15 6 5 10 7 7 4 2 2 3 5 4 4 2 3 2 4 2 1 2 7 12 16 21 20 18 17
20 19 15 20 22 24 19 19 19 15 5 2 2 4 3 2 5 13 7 9 15 13 9 2 2 2 1 2 2 1 1 9 6 1 1 5 5 11 21 22 21 20 17 14
23 17 16 21 23 23 16 18 16 21 4 3 3 4 2 3 4 6 8 14 15 7 3 2 2 3 4 1 1 3 7 6 5 3 16 3 18 19 22 22 20 16 16 15
25 18 18 21 24 20 15 8 17 24 11 4 3 3 3 7 9 11 11 10 7 5 3 3 3 2 2 3 3 2 10 9 6 3 16 6 21 23 20 19 17 15 13 10
26 19 22 23 25 20 14 5 8 22 17 4 3 2 5 8 6 4 5 5 4 3 4 2 3 3 3 2 4 4 14 12 8 12 20 12 21 17 20 17 17 14 12 9
26 21 23 24 20 19 10 3 14 23 8 5 3 1 3 7 3 3 2 2 3 5 3 3 2 4 1 4 7 7 14 13 13 17 9 14 23 25 21 17 16 14 10 7
27 28 27 18 16 9 9 12 13 8 5 5 3 5 4 8 3 4 3 2 2 1 1 1 3 3 5 6 10 18 24 20 21 19 12 21 26 25 21 18 17 12 9 7
37 34 12 6 13 16 16 5 7 5 4 3 2 4 3 4 2 2 2 3 1 1 1 1 2 4 10 9 11 19 25 20 27 25 21 25 24 22 20 18 13 9 7 6
38 12 6 18 27 10 3 2 2 2 1 4 5 5 4 4 2 3 0 2 0 3 2 2 2 4 3 11 14 21 27 21 25 24 26 26 22 23 20 15 11 8 6 5
18 16 25 24 6 3 4 2 1 4 5 6 5 6 7 5 4 3 2 2 1 3 2 2 3 3 0 7 14 21 26 23 26 21 21 19 20 17 14 11 9 7 5 4
36 16 8 7 3 3 8 9 5 4 6 11 9 5 6 5 4 4 2 3 2 5 3 4 4 1 5 12 18 23 22 25 20 21 23 22 18 14 11 9 7 4 3 4
5 5 8 6 6 7 5 4 4 5 10 23 16 7 3 4 2 3 4 2 3 3 3 5 1 5 12 16 20 26 27 26 27 25 21 17 14 12 10 7 5 3 3 4
4 5 5 4 4 3 3 8 9 7 24 26 13 8 5 3 4 2 4 4 4 5 4 2 2 13 15 21 26 32 27 27 23 20 16 14 11 8 6 5 5 5 5 5
3 3 3 5 3 2 4 5 7 21 27 21 6 4 3 2 5 5 6 7 6 3 2 4 15 17 17 25 31 31 26 23 18 14 11 8 6 6 6 5 5 4 4 5
2 2 5 4 3 5 6 9 12 23 19 2 3 5 3 5 3 5 4 5 1 3 7 16 24 25 26 28 28 25 21 16 13 10 7 6 7 7 5 4 4 4 5 5

GFSNW_850_spd_021.txt.gz
Wind_Speed
21 22 23 17 15 18 17 14 3 12 25 6 4 6 5 5 8 20 12 6 16 14 16 17 13 12 11 20 15 7 7 4 3 4 4 8 10 9 10 7 4 3 5 6
12 23 23 17 17 22 21 8 6 16 33 5 7 4 7 9 3 9 10 11 16 13 16 11 11 9 11 17 18 9 10 6 4 4 7 5 11 9 13 11 1 10 7 6
12 24 24 17 19 22 22 7 4 8 18 11 4 8 8 8 16 17 16 10 15 12 15 17 12 8 8 14 20 16 7 7 9 4 8 12 10 18 18 16 10 9 11 8
18 20 25 17 20 23 21 11 5 7 5 8 13 6 4 8 6 13 20 7 17 17 15 19 11 13 10 13 20 16 4 5 3 2 5 16 15 19 21 21 18 13 12 15
19 9 25 17 20 24 24 9 5 6 2 13 15 16 7 11 11 7 15 9 21 18 13 14 13 13 12 8 13 16 9 2 3 4 2 6 11 17 21 21 21 20 18 16
25 16 21 16 21 28 17 17 9 3 3 8 8 5 10 12 14 10 8 19 10 17 16 20 7 18 15 2 15 16 9 5 4 3 6 5 8 18 19 19 21 19 20 17
20 12 25 19 22 30 25 12 8 5 8 10 10 3 5 12 12 7 8 16 15 11 6 13 12 11 3 6 10 18 13 11 3 1 6 5 1 3 16 20 19 19 19 15
22 6 25 20 21 27 29 23 8 4 7 9 4 7 6 1 4 2 1 4 6 10 15 9 5 0 2 4 7 10 7 5 3 3 7 8 8 4 5 12 17 20 17 15
21 6 18 19 19 24 27 26 22 6 4 2 1 4 5 2 2 2 2 5 10 8 3 4 4 4 4 4 2 5 5 5 2 1 3 4 6 3 0 5 7 5 16 13
19 18 19 23 18 23 27 20 23 9 7 8 3 4 3 4 4 3 3 5 3 4 2 3 3 2 4 7 8 6 4 3 4 4 3 7 3 4 4 5 2 3 6 15
21 5 17 18 18 24 26 24 20 17 7 8 4 4 3 3 4 3 6 5 1 1 2 3 2 3 5 6 11 9 6 6 3 4 4 7 5 5 4 3 6 9 13 17
22 9 16 20 19 25 25 20 19 20 8 4 7 8 9 9 9 7 14 1 5 5 3 2 2 2 2 6 6 6 7 7 5 9 5 3 2 3 2 5 12 15 18 17
19 9 22 16 20 26 26 21 16 19 9 8 5 5 5 6 10 13 5 3 8 6 3 3 1 1 3 4 3 6 4 3 3 3 4 2 4 2 4 13 14 16 18 19
19 8 22 17 20 24 25 21 18 21 5 3 3 5 5 3 6 15 8 11 8 7 6 3 2 2 2 1 1 3 1 9 8 1 2 2 5 6 13 16 17 18 15 13
17 11 22 17 20 23 22 18 21 23 4 1 2 3 1 2 4 11 7 11 14 8 4 3 3 3 3 1 1 3 7 6 6 3 13 4 10 17 17 19 19 18 17 16
16 17 22 20 22 24 20 6 18 20 9 1 2 1 1 5 7 8 11 11 8 4 3 2 3 3 3 4 3 1 15 8 4 2 14 4 17 19 17 19 18 15 13 11
17 22 21 22 24 24 14 4 3 19 21 4 2 3 2 6 5 4 3 4 3 2 3 2 2 3 2 1 3 6 14 10 8 13 18 15 19 14 18 19 18 16 14 13
19 24 22 22 22 22 18 14 4 21 10 5 2 1 3 6 3 3 2 2 2 4 1 1 2 3 3 4 7 7 14 13 12 13 8 12 18 22 19 20 19 17 15 11
26 26 25 21 16 10 12 11 14 16 4 5 3 4 3 7 2 3 2 1 1 1 2 2 2 4 5 6 8 16 21 17 19 13 13 19 24 25 23 21 18 16 13 9
32 33 14 7 13 12 13 9 8 5 4 3 1 3 2 4 3 2 1 3 1 1 1 3 3 5 12 5 7 14 20 16 23 24 18 23 26 26 23 19 15 12 10 7
34 11 6 20 26 10 3 3 4 5 3 6 5 5 4 3 2 3 2 2 1 2 2 2 3 4 3 3 8 12 21 21 21 13 15 22 28 26 22 18 14 10 7 5
18 12 25 23 6 3 4 3 0 3 4 5 6 6 6 5 4 3 2 2 0 2 1 2 4 1 1 0 7 14 18 21 20 15 21 20 21 20 19 16 12 9 7 5
32 13 8 8 3 5 9 9 5 4 6 10 8 4 6 5 4 3 2 3 2 2 3 4 4 3 2 5 11 16 20 21 22 22 22 21 22 19 15 14 11 8 6 3
3 4 8 7 6 7 5 5 5 5 8 19 15 6 3 4 3 3 4 2 3 3 4 5 2 7 10 10 14 22 24 24 26 25 25 23 20 18 15 12 9 6 4 3
4 4 4 4 4 4 3 7 9 7 23 23 10 7 5 2 4 2 4 4 5 5 4 1 4 12 16 17 18 25 28 28 29 27 24 20 17 14 12 10 7 5 4 3
2 2 3 4 4 3 4 5 8 21 25 17 5 4 3 2 5 5 6 7 6 2 1 4 10 13 15 20 25 29 30 30 28 23 19 16 13 11 10 8 6 4 4 5
2 2 3 3 4 6 7 10 12 26 19 2 3 4 3 5 3 5 4 4 1 3 6 9 12 18 20 24 28 29 27 24 20 17 15 13 11 9 8 6 5 5 5 5

GFSNW_850_spd_024.txt.gz
Wind_Speed
19 30 17 23 26 21 22 19 3 16 24 8 3 6 5 5 6 20 12 7 14 13 12 13 14 10 7 15 18 10 9 5 3 4 2 13 6 7 5 0 3 3 3 2
17 24 20 24 28 26 27 13 7 22 33 6 6 4 4 8 6 9 8 9 13 12 15 7 16 10 10 15 13 12 9 3 0 1 6 6 6 5 3 5 4 3 3 3
18 20 25 11 25 24 27 9 5 8 17 7 8 10 5 6 16 17 8 5 14 14 16 10 2 8 5 18 17 21 11 5 6 3 6 9 8 6 5 5 0 1 2 7
28 21 29 16 27 25 31 8 5 8 5 8 9 7 5 7 5 13 17 7 18 14 11 11 11 11 6 11 19 13 4 2 5 8 12 11 10 11 9 10 7 2 2 7
31 24 27 23 29 27 30 11 4 9 4 16 15 14 7 11 8 7 6 12 13 15 12 11 10 10 9 7 8 9 9 5 5 7 7 7 8 10 13 14 8 7 8 5
33 20 22 20 27 31 13 14 10 2 1 8 7 6 8 8 10 11 17 19 13 14 13 11 8 13 16 5 9 10 5 3 4 4 4 3 3 9 14 13 11 11 11 8
32 15 19 11 31 35 23 16 10 4 3 5 8 11 9 10 12 13 11 18 14 5 16 10 13 10 7 3 7 9 6 2 3 1 4 2 5 2 11 11 7 11 8 6
35 11 14 14 28 31 29 17 12 7 2 4 13 3 1 7 9 10 5 10 12 14 7 4 1 3 4 5 7 2 7 1 1 2 4 5 3 2 1 6 9 8 7 9
33 21 18 8 24 26 30 29 19 4 1 2 7 3 3 5 3 3 1 5 12 9 3 3 4 3 4 3 1 5 4 5 3 3 2 2 2 3 6 3 3 6 7 8
31 20 19 6 26 24 26 24 27 14 4 9 8 2 3 3 0 2 2 4 2 2 2 3 3 3 2 6 8 4 3 3 4 2 2 6 2 1 4 3 3 9 10 21
29 25 18 6 19 21 25 26 21 21 6 8 6 4 3 2 3 2 5 5 1 2 2 3 2 3 4 3 6 6 4 5 3 3 2 6 5 3 2 2 3 4 19 23
27 25 14 4 20 19 23 22 21 19 9 5 7 10 10 10 7 4 9 1 1 5 2 2 2 2 3 5 3 6 6 6 6 7 5 2 4 5 4 3 8 14 22 24
26 21 14 5 17 18 22 23 16 16 9 12 14 8 8 7 11 10 3 2 3 2 2 2 0 2 2 3 3 4 5 1 2 4 3 4 6 4 7 9 15 15 19 23
27 21 14 12 17 18 22 23 18 14 4 3 3 6 5 6 7 11 10 5 8 7 5 3 1 1 3 1 1 1 1 7 6 2 2 3 4 7 15 18 19 20 20 20
26 19 13 16 17 18 20 20 20 11 5 3 3 2 3 5 6 10 11 7 8 5 2 2 2 3 3 1 2 3 5 5 4 3 12 6 8 19 20 23 25 23 24 22
27 15 12 16 18 19 16 8 20 18 20 3 1 0 1 4 4 9 11 8 7 4 3 3 3 2 2 3 3 3 16 9 5 3 15 9 22 24 22 26 25 22 22 20
26 14 14 18 20 22 17 4 3 18 19 3 1 1 3 7 7 5 5 8 3 2 2 1 2 2 3 1 3 4 16 12 12 20 24 18 23 15 22 25 23 21 20 18
18 16 14 17 20 20 26 13 4 19 15 5 2 0 2 6 4 3 4 4 3 2 1 1 1 2 2 4 6 11 17 15 17 19 6 18 20 27 25 24 23 22 20 17
12 18 15 20 16 10 17 10 4 18 6 5 3 4 3 6 2 3 2 1 2 1 1 1 1 2 4 5 3 16 20 17 19 13 19 24 28 27 25 24 21 21 18 14
19 20 9 7 15 13 12 7 8 7 4 4 2 4 2 3 2 2 1 4 2 1 0 3 2 4 8 3 3 11 21 18 23 27 21 25 24 27 25 22 19 17 16 14
19 9 6 23 26 12 6 3 3 4 2 7 6 4 3 2 3 2 2 1 1 0 1 1 2 3 2 4 3 8 20 18 18 13 15 20 26 31 28 22 18 17 14 11
16 9 19 24 7 3 4 3 2 3 5 5 4 5 7 5 4 3 2 2 1 3 1 1 3 3 1 2 4 13 16 17 18 11 18 22 28 27 25 22 20 16 13 11
23 9 5 8 2 4 8 9 4 5 4 10 9 4 7 5 3 3 3 3 3 1 2 3 4 2 2 4 9 12 17 21 23 25 27 30 27 23 22 21 16 14 12 9
5 4 6 5 5 6 4 4 5 6 11 18 16 5 3 4 3 3 4 1 3 2 3 5 2 8 9 11 16 22 25 26 27 29 30 30 29 25 20 17 14 11 9 7
3 2 3 3 4 5 4 7 10 7 25 26 12 8 5 2 3 2 4 3 4 5 5 2 8 13 15 16 18 22 25 28 31 31 31 28 25 22 20 15 12 9 7 5
2 3 3 3 3 1 2 5 7 19 24 17 6 4 3 2 4 4 6 7 6 4 2 7 14 17 18 20 24 26 29 31 32 29 26 24 21 18 16 13 9 6 4 3
2 2 6 4 4 4 6 8 10 25 23 3 3 5 5 4 3 3 4 5 2 6 11 13 19 23 22 25 28 30 32 31 29 26 22 20 17 14 11 9 8 5 4 3

GFSNW_850_spd_027.txt.gz
Wind_Speed
47 26 15 19 15 15 36 18 6 27 42 6 4 4 6 6 5 12 10 5 7 6 9 7 9 11 10 15 11 12 11 4 5 8 6 8 13 9 9 8 9 16 4 3
45 31 17 12 17 16 36 20 7 28 43 6 5 4 7 9 8 9 8 10 11 10 7 7 14 10 12 21 14 13 8 5 3 3 4 10 8 13 17 23 5 2 4 4
42 32 17 17 20 14 35 11 4 9 18 5 8 7 7 6 10 12 13 7 14 7 6 8 7 15 6 23 14 19 17 5 6 2 2 7 6 18 19 15 3 2 2 6
40 36 23 16 23 20 30 7 4 7 5 6 6 11 5 6 5 10 9 4 12 10 5 6 8 5 3 14 14 12 6 4 8 13 16 9 8 5 7 5 4 4 5 6
40 38 32 21 9 32 20 9 4 8 7 13 12 7 8 9 7 6 6 9 14 17 14 6 6 6 5 7 6 6 7 5 12 7 8 8 7 5 6 4 3 2 3 2
35 35 23 19 18 30 9 10 12 10 8 9 8 6 9 11 7 10 16 15 11 11 21 22 19 10 5 6 6 8 6 2 5 2 4 5 3 7 4 2 2 5 3 5
35 34 21 16 17 24 11 20 16 4 3 4 7 7 11 15 11 13 7 17 14 10 11 11 3 6 11 11 6 4 5 1 3 3 4 2 4 2 8 11 5 6 4 3
33 33 26 22 12 23 17 18 9 6 2 6 7 6 10 6 11 9 14 13 17 20 4 3 4 1 3 3 4 6 3 2 2 1 2 5 2 4 3 6 6 6 11 6
32 31 26 13 6 14 29 17 17 8 3 5 3 2 3 1 6 2 3 10 13 7 2 3 3 3 3 3 2 4 4 3 2 3 2 3 2 4 3 1 2 2 1 11
30 29 28 14 6 16 33 19 16 6 4 3 4 3 3 3 4 0 1 4 4 6 3 3 3 2 1 4 8 4 3 3 5 2 2 6 4 3 6 2 4 6 4 15
28 28 28 13 16 13 24 26 27 19 5 5 6 5 3 4 6 2 3 4 2 2 4 4 4 3 4 3 5 5 6 6 3 2 2 6 2 2 2 3 4 6 12 18
27 27 27 13 13 12 21 19 20 15 9 4 9 11 10 13 13 5 10 3 1 5 3 0 3 3 3 4 4 4 4 6 5 6 6 2 1 2 4 2 7 10 23 24
27 25 26 15 8 14 18 23 16 13 8 11 18 15 15 13 11 10 4 4 3 2 5 3 1 2 3 4 4 4 4 4 3 4 5 4 6 4 5 9 12 17 22 26
25 24 25 12 3 15 17 18 16 14 4 2 4 6 6 5 7 9 11 2 5 5 5 3 0 2 1 2 2 3 4 8 6 2 1 2 4 7 14 19 19 21 21 23
24 24 25 10 3 15 14 18 17 16 6 2 1 2 4 4 6 7 9 5 3 4 2 1 1 1 1 1 1 3 5 6 5 5 10 6 6 19 24 24 24 24 27 26
25 26 24 11 7 15 14 9 18 19 12 4 1 2 1 3 3 5 10 5 3 2 2 2 2 2 1 2 3 6 16 10 11 4 6 5 18 25 23 25 26 26 26 26
26 26 16 12 12 20 11 5 4 19 17 3 1 1 3 7 7 4 5 7 3 3 2 2 3 2 3 2 3 3 12 10 13 15 23 17 23 14 24 27 27 26 25 23
28 25 11 10 18 23 18 6 2 18 13 3 2 0 1 8 3 2 4 4 3 1 1 1 1 0 1 3 4 5 15 19 20 12 4 18 19 27 28 28 29 28 27 24
23 13 11 9 15 11 17 13 2 20 7 4 3 4 3 5 2 3 2 2 1 1 1 1 0 2 3 4 3 15 20 13 15 14 18 25 31 32 31 30 28 29 27 23
8 11 6 4 13 13 15 5 3 8 5 4 1 4 2 3 2 1 1 2 1 1 1 2 1 3 9 8 4 11 20 15 23 27 22 29 32 32 31 29 27 25 25 23
10 7 5 20 25 11 7 4 3 3 1 6 5 4 3 3 2 2 2 2 1 1 1 1 2 3 2 4 5 6 17 16 19 16 19 26 30 34 32 28 25 24 22 20
4 6 15 22 6 4 4 4 2 4 5 5 3 6 6 5 4 3 2 2 2 2 1 1 3 3 1 2 3 10 16 18 17 12 20 22 30 32 30 28 26 23 20 19
12 8 4 6 1 4 8 9 4 4 4 11 9 3 8 5 4 2 2 3 3 1 1 4 4 2 2 4 9 12 17 18 16 20 25 30 32 29 27 28 24 22 20 17
4 5 4 5 5 6 5 6 6 7 10 18 17 5 3 3 2 2 5 0 2 2 2 6 2 7 8 11 13 18 21 21 25 29 33 34 32 31 28 24 22 20 19 17
4 4 3 4 3 2 1 8 10 6 25 28 10 7 4 1 3 2 4 2 3 5 5 3 5 12 14 17 21 24 26 28 32 34 35 35 33 32 29 23 20 17 17 15
1 1 0 2 2 0 2 5 6 17 25 20 5 3 4 2 4 4 6 7 6 4 3 8 16 16 17 20 22 25 28 33 36 36 36 34 31 30 28 24 19 16 13 12
1 0 2 2 2 4 5 6 8 26 22 3 3 4 6 3 3 1 4 5 3 4 10 17 19 20 21 23 25 28 32 35 36 36 32 30 27 25 23 22 18 14 12 10

GFSNW_850_spd_030.txt.gz
Wind_Speed
37 38 31 24 12 14 12 15 4 40 49 7 5 4 7 6 8 8 2 4 8 5 9 5 8 11 8 14 7 11 13 4 7 17 8 17 23 20 18 7 8 6 4 7
35 39 30 17 7 9 4 6 5 44 45 5 6 5 5 5 6 8 7 8 9 11 7 6 9 11 8 13 12 9 9 4 4 4 5 9 15 17 22 14 3 16 6 7
31 39 31 25 10 7 11 7 5 11 21 10 7 8 7 7 11 8 9 5 11 10 7 12 4 6 6 20 14 21 15 5 7 8 1 7 10 22 22 18 6 10 11 17
30 37 38 26 17 13 12 8 3 8 10 7 9 12 8 13 7 8 11 4 14 8 7 6 10 15 14 4 13 13 9 5 8 14 22 16 18 22 24 26 12 12 23 25
30 34 36 28 19 17 27 4 6 7 9 20 11 13 10 10 8 9 5 8 11 16 12 8 5 6 6 5 11 11 7 4 5 7 8 16 14 17 19 16 13 22 15 2
30 32 33 27 15 10 9 6 15 14 9 8 8 6 9 11 8 14 13 15 13 14 21 22 27 14 16 8 6 10 5 3 4 6 1 14 8 18 14 18 20 8 2 2
27 29 31 30 18 9 11 12 15 6 5 8 9 9 13 15 15 11 9 16 13 5 14 13 18 21 13 6 8 8 5 3 4 3 5 3 4 3 6 6 7 6 6 3
26 29 29 29 15 6 7 17 11 6 2 3 8 9 4 8 17 16 11 19 19 18 13 3 1 2 5 2 2 6 8 2 3 2 2 4 4 5 3 4 3 6 7 6
23 27 27 31 13 18 5 19 12 7 4 6 5 4 4 3 2 7 9 10 14 14 3 3 4 3 4 3 2 2 4 3 2 3 2 1 2 2 1 1 2 0 3 8
25 26 27 29 15 19 13 14 10 8 5 5 7 3 2 3 1 3 1 3 6 14 5 2 3 3 2 3 5 4 3 1 2 2 2 6 4 2 3 2 4 3 2 12
23 23 25 28 12 14 4 21 16 8 3 6 9 9 7 5 4 2 2 2 2 2 4 3 4 3 4 2 3 4 4 5 2 2 1 5 4 3 2 3 2 3 0 10
22 23 24 26 13 9 8 11 20 13 8 4 11 20 21 15 7 7 5 3 2 5 3 2 3 2 2 2 3 1 4 5 4 7 5 1 3 1 3 1 2 3 13 19
21 22 23 25 12 3 6 15 13 10 2 6 13 15 16 16 17 13 5 4 5 3 3 3 2 2 4 4 5 4 4 3 2 1 2 2 3 2 2 3 7 12 21 28
20 22 23 25 9 1 11 16 15 12 4 2 5 10 7 9 9 12 16 6 4 2 2 1 2 2 2 2 1 2 4 5 4 4 3 0 4 5 6 10 16 20 21 24
21 21 22 25 9 1 12 14 13 16 5 2 3 2 5 5 7 8 9 8 5 3 2 2 3 2 2 1 1 3 4 5 4 5 7 4 3 14 17 20 22 22 25 28
22 23 23 24 8 8 12 5 15 16 14 1 2 0 0 2 5 6 8 6 3 3 2 2 1 3 2 1 3 5 19 15 18 1 2 5 11 20 20 21 22 24 27 28
25 26 24 17 10 6 4 4 5 20 14 3 1 1 2 5 5 3 5 3 1 2 3 0 2 2 4 2 3 3 3 11 9 9 16 13 19 14 21 24 25 27 27 26
28 26 22 10 10 13 9 5 5 19 13 3 1 1 0 5 3 2 4 5 3 2 1 1 1 2 2 3 5 2 9 16 18 16 4 15 21 26 27 28 30 30 29 27
28 21 6 9 9 8 17 5 10 20 6 3 2 3 2 4 1 2 2 2 1 1 1 1 1 2 4 5 4 10 17 8 15 13 18 24 31 31 31 32 30 32 30 27
12 7 5 4 8 13 23 6 7 10 8 5 2 4 1 1 1 2 0 3 1 1 1 4 1 3 8 6 4 3 18 12 21 25 19 27 31 33 34 32 30 29 29 27
3 4 3 7 27 9 7 4 4 4 2 6 6 6 3 3 2 2 2 1 1 0 1 1 2 4 3 2 7 6 17 16 19 12 15 23 32 37 35 31 28 28 27 25
7 4 3 12 5 4 4 3 1 3 5 5 3 6 6 5 3 2 1 2 1 2 1 1 3 3 3 2 4 8 15 19 16 9 16 23 30 32 31 30 29 27 25 23
6 3 4 4 3 4 7 9 3 3 4 11 8 3 7 5 3 3 2 2 2 1 0 4 4 2 3 4 5 9 16 17 15 17 23 27 30 30 30 31 27 26 24 22
3 3 4 4 4 5 3 4 5 6 10 19 18 5 3 4 3 2 4 1 2 1 2 6 2 9 7 7 10 16 18 17 19 25 28 32 35 34 31 29 27 26 24 22
3 3 3 3 1 1 3 2 4 3 23 28 9 6 3 2 4 2 4 2 3 5 5 3 5 13 12 13 15 18 20 21 25 29 34 34 33 32 31 28 25 23 23 21
2 2 2 1 0 1 1 3 3 14 22 20 5 3 3 2 4 3 6 7 6 4 3 4 16 16 15 17 19 20 22 26 32 35 36 36 35 34 32 27 23 21 19 18
2 1 2 3 3 4 3 4 8 20 20 2 3 4 6 3 3 2 4 5 3 3 5 17 17 19 20 21 22 24 27 32 35 36 35 35 34 32 30 28 24 21 19 17

GFSNW_850_spd_033.txt.gz
Wind_Speed
31 29 34 43 20 10 6 6 2 22 51 5 2 5 7 6 6 3 2 3 4 8 8 7 8 8 7 13 8 10 10 4 8 20 7 15 20 15 12 6 7 7 2 10
29 30 32 36 20 12 1 5 4 42 44 5 5 7 4 3 5 5 4 6 8 9 4 5 10 6 10 12 10 10 10 5 5 4 5 10 10 13 14 16 2 10 9 10
26 27 31 32 27 14 3 4 2 11 23 4 13 7 7 6 6 4 6 5 9 7 6 11 4 5 5 14 15 12 15 5 8 11 10 1 6 13 17 19 11 8 15 20
24 26 28 29 27 19 9 4 3 6 7 6 12 7 11 12 7 8 13 6 11 7 6 8 11 11 12 10 10 11 9 8 12 18 20 16 4 12 20 23 22 14 10 21
23 26 27 29 29 23 15 7 4 8 11 19 11 13 8 14 11 9 5 9 10 14 8 10 3 6 6 7 5 9 5 6 4 17 20 23 10 14 22 21 24 16 13 21
23 25 25 26 30 19 4 5 20 4 11 11 9 7 7 12 9 12 14 15 12 12 15 21 24 13 16 9 4 8 4 3 3 6 6 7 6 16 24 19 20 21 13 20
22 22 23 22 25 14 17 11 15 4 4 9 10 8 11 7 12 9 10 17 9 5 6 9 19 22 20 15 15 13 5 4 3 4 2 3 4 18 19 20 14 13 13 19
22 21 21 23 26 16 14 13 5 3 4 7 8 9 6 9 11 12 15 17 15 6 6 3 2 1 3 6 7 13 10 2 4 4 3 2 4 9 9 11 12 22 24 20
23 22 21 24 27 18 15 13 3 1 5 4 7 9 7 3 4 2 5 17 23 14 4 4 5 4 4 3 2 5 3 5 3 3 3 2 2 3 10 12 3 13 19 13
23 20 19 23 25 19 12 12 6 3 4 5 11 4 4 6 3 2 4 4 6 21 7 4 3 4 4 3 4 3 3 2 3 2 3 6 4 5 2 3 4 2 4 10
23 20 21 23 25 18 10 9 9 5 2 7 8 8 6 6 5 3 3 4 3 3 5 4 4 3 5 2 2 4 5 5 3 2 2 4 6 5 3 1 2 2 6 9
23 20 19 21 24 14 9 5 15 12 5 2 9 11 12 14 11 5 6 2 3 6 3 2 2 2 2 4 2 1 4 5 4 6 4 3 4 2 3 3 2 2 6 13
24 21 20 20 23 13 5 1 16 12 2 4 9 12 12 15 15 14 3 4 5 4 3 2 1 3 3 4 4 4 4 4 2 1 1 2 3 2 5 5 7 8 15 23
18 19 18 20 23 9 2 10 11 12 2 1 3 6 8 10 12 13 15 17 7 9 5 4 2 1 2 2 2 2 3 4 3 4 5 5 6 3 3 8 11 15 19 23
19 20 22 22 21 8 9 13 11 13 5 1 4 5 4 4 3 5 8 11 11 7 3 3 3 3 2 1 1 3 5 6 4 4 4 2 1 10 10 13 15 16 22 27
19 21 22 22 17 6 9 3 12 13 13 3 2 3 1 3 3 6 7 7 7 3 2 1 1 1 2 1 2 5 9 11 10 3 4 2 9 14 13 16 16 17 23 25
22 21 22 21 12 5 5 5 3 14 10 2 2 1 1 2 3 2 3 5 3 2 2 1 1 1 1 2 3 4 10 9 8 7 9 9 14 9 16 19 20 22 25 25
23 22 21 16 9 7 5 4 4 15 10 2 1 2 1 4 2 2 3 2 2 2 1 1 1 1 1 3 7 8 4 6 11 13 4 5 15 22 22 22 26 28 27 27
23 19 7 8 6 6 6 6 9 19 5 2 2 2 2 4 1 1 3 3 1 1 1 1 1 2 4 6 6 8 11 7 11 9 11 18 26 27 27 29 30 31 30 27
9 11 4 3 7 9 14 9 9 6 5 3 1 3 1 2 1 1 1 2 1 0 1 2 2 3 10 6 6 4 15 7 16 19 16 22 27 29 31 31 30 30 31 28
4 2 2 6 14 7 6 3 0 2 1 6 5 7 3 4 1 1 1 1 1 1 2 1 2 4 3 4 10 6 13 13 17 8 13 22 29 35 34 32 30 30 29 27
11 10 6 4 3 4 3 4 2 4 5 5 3 6 4 4 2 2 2 1 1 3 2 1 3 4 4 2 5 9 13 18 17 8 12 21 27 32 32 31 30 28 26 25
3 2 2 1 2 4 6 7 3 3 3 9 7 3 6 4 2 3 1 1 2 1 0 3 4 2 5 4 4 8 14 18 15 12 17 20 29 30 30 31 29 28 27 25
4 3 3 3 3 3 2 2 3 6 6 18 16 5 3 3 2 2 3 1 2 2 2 5 3 6 7 5 6 11 16 16 16 19 22 28 32 31 30 29 28 27 26 24
3 2 3 2 1 2 4 5 4 2 15 25 8 5 3 2 3 1 3 1 3 5 4 3 3 8 8 8 10 14 17 18 20 24 29 33 33 33 32 28 26 24 25 23
2 3 2 2 1 1 2 2 3 5 19 18 3 3 3 3 4 3 6 6 6 4 3 2 8 10 10 11 13 15 17 20 25 28 30 32 32 31 31 28 25 22 21 20
2 2 2 3 5 4 3 2 4 9 14 3 3 5 5 3 2 2 4 5 3 2 2 11 11 11 12 15 16 17 19 22 27 32 34 34 32 31 31 29 25 22 20 19

GFSNW_850_spd_036.txt.gz
Wind_Speed
26 29 28 33 35 29 4 3 2 12 44 6 3 4 7 5 5 3 3 3 4 5 6 7 8 8 6 12 10 10 9 3 6 11 12 14 15 15 19 5 5 4 3 14
26 27 26 30 32 32 8 6 3 18 39 5 5 6 4 4 4 3 3 3 3 3 6 3 8 4 7 15 11 12 10 4 5 7 1 5 7 12 14 16 3 14 6 11
24 25 24 28 31 26 18 4 1 7 12 3 7 7 5 5 5 4 4 3 4 3 5 8 3 5 3 12 14 11 15 5 8 11 19 11 7 13 17 16 7 13 18 19
25 25 23 27 30 25 12 4 1 3 6 2 7 4 6 5 5 2 8 5 9 8 4 5 7 11 9 6 8 7 7 7 9 21 26 27 24 12 18 19 26 10 17 18
21 24 22 26 29 26 4 1 3 4 9 11 11 5 6 13 4 8 6 7 6 9 6 6 4 4 4 5 4 8 6 4 5 19 20 19 19 16 17 22 20 22 19 18
22 22 21 22 23 23 8 8 4 1 12 6 6 6 7 7 7 9 7 9 9 10 14 20 23 16 9 8 3 5 3 3 3 11 10 11 5 8 15 14 14 18 15 19
21 24 21 20 21 24 17 16 5 3 5 10 6 9 8 7 10 7 5 14 9 5 7 11 16 19 18 13 13 12 6 3 3 6 7 5 4 5 13 17 12 16 12 14
20 24 19 20 20 25 19 13 7 5 3 6 11 8 11 8 10 9 9 8 9 4 7 3 3 1 3 8 12 12 15 5 4 4 4 6 5 2 4 5 6 16 17 17
22 23 17 17 23 25 21 7 16 10 3 6 7 7 8 4 4 3 5 14 15 15 2 3 3 3 3 3 2 3 8 11 3 4 4 3 3 4 7 3 5 9 15 15
21 23 21 18 23 24 20 6 11 2 4 8 13 4 6 5 3 1 1 3 5 21 6 3 3 4 2 3 2 3 3 3 6 2 3 6 2 3 13 3 3 2 16 18
20 23 21 19 22 24 19 4 6 2 3 8 6 10 10 7 6 3 3 2 4 4 5 4 3 4 6 2 3 3 5 4 3 3 3 3 3 2 2 1 3 3 7 16
21 21 21 20 20 22 14 4 10 4 1 1 6 8 9 12 11 10 8 3 2 5 3 3 3 3 2 3 2 1 3 5 3 6 5 3 3 3 5 8 7 3 7 12
20 19 18 19 21 19 11 6 8 6 3 4 7 9 12 12 15 15 6 6 5 3 3 2 1 4 3 4 4 3 3 3 2 3 2 4 3 1 5 3 2 4 6 18
19 20 20 20 21 17 9 5 8 8 2 1 2 4 8 10 13 14 15 14 11 10 5 2 2 2 3 2 2 3 3 4 3 5 7 8 9 3 1 6 8 11 14 17
22 22 20 19 21 14 7 12 10 11 2 1 4 7 4 4 4 10 12 11 9 6 3 2 3 2 2 1 1 3 5 6 4 5 5 3 1 6 8 10 12 12 17 22
25 25 23 19 17 12 3 5 12 11 8 3 2 4 3 3 3 6 8 8 7 6 2 2 3 3 3 2 2 5 10 9 9 2 4 5 10 12 11 15 15 17 21 23
27 24 23 19 14 11 7 3 6 14 8 3 2 2 1 1 2 2 4 6 5 5 3 3 1 2 2 2 4 4 5 6 10 7 11 8 12 8 13 17 21 22 23 24
26 23 21 16 9 8 6 2 5 17 6 3 1 2 2 3 2 1 3 2 2 3 2 2 1 1 1 4 8 11 6 3 9 13 6 4 14 17 19 20 25 26 26 27
20 15 7 6 7 5 2 4 7 17 4 2 2 2 2 2 1 1 2 1 1 1 1 0 1 2 4 7 6 10 11 9 11 10 10 15 20 24 23 26 25 30 29 27
6 5 1 4 10 5 14 6 7 6 4 3 2 3 2 2 1 0 1 2 1 1 1 3 2 4 16 12 8 4 9 8 17 20 13 18 24 26 26 27 28 29 30 28
7 7 3 3 14 8 3 2 2 4 2 5 4 9 3 4 1 1 1 1 0 1 2 1 2 4 3 3 10 4 9 10 15 4 6 18 25 31 31 29 28 28 28 28
9 12 8 1 2 3 3 3 0 3 3 4 4 5 3 4 3 2 1 0 1 3 4 1 3 3 2 0 4 7 8 12 11 4 9 17 23 28 29 29 30 28 27 26
2 2 3 1 2 2 5 5 2 2 2 6 3 2 4 3 2 3 1 0 2 1 0 3 4 3 1 1 1 5 10 13 10 8 13 17 24 26 28 30 28 27 26 25
2 3 3 3 2 2 1 1 2 0 3 11 12 4 2 2 2 1 2 1 1 1 2 5 3 2 2 2 3 7 12 14 12 12 17 22 28 30 29 28 27 27 26 24
2 2 2 2 3 2 1 2 3 3 6 12 6 4 3 1 2 1 2 0 3 5 4 3 2 5 5 4 6 9 13 15 16 18 22 28 30 31 30 27 26 25 25 23
2 2 2 3 2 1 2 3 5 5 8 8 1 2 2 3 3 3 6 5 5 3 3 3 3 7 6 7 10 12 14 17 20 23 27 30 31 32 32 30 27 25 23 23
2 1 3 4 6 5 4 3 3 3 6 2 2 5 6 2 2 3 4 5 3 2 3 3 6 6 8 11 13 15 16 18 22 27 30 31 31 31 32 32 28 25 22 21

GFSNW_850_spd_039.txt.gz
Wind_Speed
29 27 26 26 31 38 21 9 2 7 27 4 2 3 4 4 3 7 5 4 4 5 7 5 6 7 4 8 10 9 8 3 5 12 9 14 15 12 18 9 8 6 10 17
27 25 27 26 30 32 27 14 4 19 25 3 3 4 1 2 3 3 3 3 3 2 4 4 5 5 5 13 8 9 8 4 4 9 2 2 8 15 22 12 8 10 3 9
27 23 24 23 29 33 24 5 2 7 4 3 7 3 4 4 5 4 4 4 4 5 3 2 2 4 3 15 11 10 13 5 7 10 14 7 12 14 15 17 8 13 16 21
26 24 22 22 28 31 7 1 1 2 2 1 9 5 3 7 4 2 4 3 3 5 3 3 5 7 5 7 13 9 7 6 9 20 24 25 26 27 22 20 26 10 16 18
24 23 25 19 25 30 11 6 3 1 8 9 12 4 5 7 4 6 3 4 7 5 4 5 3 4 6 4 3 8 6 4 5 18 22 21 21 18 16 16 21 19 21 24
23 22 26 20 19 27 9 17 8 4 9 6 4 4 6 10 7 4 8 8 4 7 12 14 18 14 11 4 1 9 4 3 3 7 13 23 4 5 7 4 7 15 14 15
22 22 23 19 19 23 20 18 10 1 2 4 7 7 4 8 9 5 3 8 5 2 8 7 10 13 13 12 13 11 6 5 3 7 13 4 2 2 6 10 9 15 11 10
21 20 22 19 17 20 22 17 9 3 2 5 8 8 5 5 7 4 5 7 9 11 0 2 2 2 2 9 18 17 15 7 3 3 4 8 3 4 2 2 6 16 14 13
21 20 22 20 18 21 25 14 12 7 2 7 12 6 7 4 4 2 3 3 10 9 3 3 3 4 3 3 1 6 10 13 6 2 4 4 3 6 1 3 4 4 9 9
20 21 22 21 18 21 26 7 6 7 3 6 11 5 7 7 4 2 2 4 5 12 4 4 3 3 3 3 4 4 4 4 11 8 3 7 4 7 2 4 5 4 10 8
20 21 19 19 19 22 24 8 8 9 2 7 6 7 8 8 7 3 5 1 3 3 4 4 4 4 5 1 3 4 5 5 3 3 3 6 3 2 2 2 7 11 10 8
21 18 18 20 19 21 20 11 2 3 2 0 6 8 7 12 8 11 11 2 3 6 3 3 2 3 2 3 3 1 3 5 4 6 5 5 7 6 9 10 11 9 10 9
20 19 18 19 18 18 17 13 4 4 2 3 4 6 10 12 11 12 7 8 7 5 5 2 2 5 4 4 5 3 3 3 2 2 3 6 11 8 6 7 7 7 5 6
19 20 21 20 17 15 16 11 4 4 2 0 2 2 5 8 13 17 15 11 8 9 10 2 2 2 4 3 2 3 4 5 4 5 7 8 10 9 4 4 5 7 7 8
20 22 21 19 17 16 10 10 7 7 1 2 3 7 5 6 6 12 16 17 18 7 3 3 3 3 2 1 0 3 6 6 4 4 3 0 2 3 4 5 8 10 11 15
20 22 23 16 14 10 6 1 5 9 2 2 2 3 5 3 5 6 10 8 7 5 4 2 4 4 4 2 3 4 12 10 9 2 3 1 6 8 6 10 13 14 16 18
21 21 18 18 10 7 7 4 4 13 7 2 2 2 2 3 4 5 6 8 5 5 3 3 2 2 4 2 4 4 7 10 9 12 6 4 9 5 9 13 18 18 20 22
20 19 16 9 6 7 8 1 4 13 4 2 1 2 2 3 3 3 5 4 4 6 2 2 1 1 2 4 7 12 8 8 7 12 14 4 10 18 14 17 21 25 25 26
12 9 5 8 7 6 1 1 3 14 4 2 2 1 1 2 2 1 2 2 2 2 2 1 1 2 5 6 4 5 12 9 8 13 8 13 21 22 24 24 25 29 29 28
5 4 3 2 4 4 10 4 9 5 4 4 2 3 2 3 1 1 1 1 1 1 0 4 2 4 16 12 7 8 6 11 14 17 13 17 22 26 25 26 27 27 29 30
3 6 4 3 5 6 3 2 3 2 2 4 5 8 2 4 2 1 0 1 1 1 1 2 2 3 3 5 6 6 4 9 15 5 6 15 23 31 33 28 29 31 31 31
6 7 8 4 2 1 2 2 1 2 3 2 2 3 3 2 1 1 1 1 1 3 3 1 3 3 3 3 3 5 8 11 12 4 7 16 22 26 28 30 33 32 31 30
1 0 2 2 2 2 4 5 2 2 1 2 2 1 1 2 2 3 1 1 2 1 1 3 4 3 2 2 2 6 10 12 8 9 14 17 24 26 28 32 30 30 30 28
1 2 1 1 1 2 1 1 1 1 2 3 3 3 2 2 3 1 0 1 1 1 2 5 3 2 3 3 4 9 14 14 13 14 18 23 27 29 29 30 31 31 31 30
0 1 1 2 3 2 3 3 3 3 3 4 3 4 2 2 2 2 1 1 4 5 4 3 3 2 4 3 5 9 14 16 16 18 22 27 29 31 32 30 30 29 28 27
1 1 2 3 0 2 5 5 6 4 2 5 2 2 2 3 3 3 5 4 5 4 3 3 2 3 3 3 5 9 12 15 18 20 24 29 31 33 33 32 30 29 27 26
1 1 1 2 3 4 3 6 5 5 2 2 2 4 7 2 2 3 4 5 3 3 4 4 4 4 3 5 7 10 12 15 18 23 28 31 33 33 34 34 31 28 25 24

GFSNW_850_spd_042.txt.gz
Wind_Speed
27 27 28 27 27 32 35 7 1 6 19 3 1 3 4 8 12 3 4 6 10 15 13 12 8 8 3 9 12 10 12 4 7 15 11 14 15 12 19 8 8 9 12 22
27 27 29 22 26 31 38 7 5 11 19 4 2 4 2 4 4 2 3 4 3 5 10 6 7 6 5 15 10 11 10 5 4 4 5 4 8 13 20 18 13 22 15 14
26 27 28 21 26 33 16 3 1 5 6 2 6 5 4 5 5 3 7 8 8 9 8 3 6 6 4 12 12 9 14 5 8 9 11 9 9 16 15 16 10 22 22 31
25 25 26 24 25 32 15 6 2 3 3 2 5 5 7 10 5 2 4 4 6 5 4 5 4 6 3 4 9 11 9 5 12 18 22 22 23 25 26 19 23 16 29 20
23 24 26 27 22 30 20 8 3 6 5 11 12 6 9 14 4 3 3 6 8 5 4 5 6 5 6 5 11 10 7 4 8 13 20 20 21 21 20 17 12 16 22 24
22 22 22 25 19 28 10 15 8 1 8 7 9 5 12 10 9 3 3 8 7 7 6 6 5 7 4 4 4 13 5 4 3 8 13 23 5 4 10 8 7 7 9 13
21 20 21 23 16 17 22 22 13 1 3 5 5 7 7 11 5 5 5 9 5 3 1 2 3 9 14 13 15 10 5 5 2 7 14 3 5 4 8 8 11 13 14 14
19 19 21 20 17 15 19 20 10 5 3 4 7 6 5 9 7 4 4 6 5 5 4 1 2 3 2 9 16 17 14 6 3 4 7 15 1 2 6 3 5 9 14 12
18 19 18 18 16 18 20 15 3 4 3 5 7 10 9 5 6 4 4 3 10 9 2 3 3 4 3 3 5 5 10 10 5 3 5 4 4 4 2 3 4 11 7 7
17 17 13 16 15 18 20 6 1 5 5 2 10 5 9 6 5 3 3 6 6 12 3 4 3 4 2 3 3 4 4 3 12 10 5 9 6 5 4 4 5 6 11 5
18 17 16 14 16 16 19 6 4 8 6 5 7 9 7 6 6 4 6 3 3 3 4 3 3 5 5 3 2 6 7 6 4 4 5 7 1 3 5 3 7 9 3 6
16 15 16 17 16 12 14 10 4 5 7 1 4 5 6 11 11 10 13 2 4 5 4 3 4 4 3 3 2 3 4 6 2 7 5 3 3 6 6 6 8 8 7 4
17 16 16 18 16 11 10 11 10 5 3 3 3 6 9 9 10 10 6 6 8 6 7 2 3 4 2 4 5 3 5 5 4 3 3 8 4 4 6 7 4 5 6 9
18 17 16 18 15 10 9 8 4 3 2 2 1 2 5 9 13 14 17 9 13 7 3 2 2 3 5 2 2 3 1 5 5 6 12 12 3 3 3 3 3 5 5 7
19 16 17 17 14 9 7 6 6 7 3 3 3 6 6 6 9 12 16 13 12 6 3 4 3 2 2 1 1 4 6 5 4 3 3 3 3 1 2 1 4 7 10 13
22 16 16 15 11 7 2 3 2 10 4 3 2 2 4 4 3 5 5 9 13 10 6 4 4 4 4 3 3 6 11 10 9 2 3 1 4 3 5 7 9 10 12 15
23 17 16 15 11 7 7 5 7 9 7 3 3 2 2 3 5 6 7 9 5 6 4 4 2 3 5 3 11 6 7 11 11 11 6 1 6 3 8 10 13 15 16 18
16 14 13 8 8 7 6 1 5 12 4 3 2 2 2 4 3 3 6 5 6 9 4 3 2 4 5 5 10 11 14 15 12 10 10 4 9 13 15 10 16 20 21 22
8 8 8 7 6 5 5 3 6 11 3 2 2 1 1 3 3 3 4 4 3 5 2 2 2 3 5 6 7 5 6 8 6 8 9 9 16 17 17 15 17 21 24 25
3 2 2 2 2 8 10 3 5 5 5 4 2 2 1 3 1 1 1 1 0 2 1 2 3 4 14 10 7 3 5 8 11 14 11 14 19 20 21 20 17 20 27 28
1 2 2 0 6 4 2 2 2 2 2 4 3 4 1 2 1 1 1 1 1 1 1 2 2 3 2 5 7 10 9 8 10 9 9 11 17 26 24 23 23 26 28 30
1 3 2 2 1 0 1 2 1 2 3 1 1 2 5 2 2 1 0 0 0 2 2 2 3 3 3 5 2 4 7 11 15 8 11 14 20 25 28 29 29 28 29 30
2 0 1 1 0 2 4 5 2 2 1 2 1 1 2 2 1 2 1 1 2 1 2 3 4 3 7 3 2 4 8 11 12 9 11 16 21 24 27 30 30 31 31 31
1 1 0 2 2 1 1 1 1 2 2 4 2 2 1 1 2 0 1 1 1 2 2 4 1 5 4 2 2 5 8 10 10 11 15 19 25 29 28 30 33 33 32 31
1 1 2 2 1 1 1 1 2 3 5 2 1 1 2 1 2 1 1 1 3 4 4 2 4 7 3 2 1 3 8 10 11 14 18 23 27 29 32 33 33 33 33 33
2 2 1 1 2 1 1 0 2 4 5 3 3 1 1 2 2 2 4 2 5 2 2 4 7 2 2 2 2 4 8 11 13 15 20 25 29 32 35 34 33 33 30 29
2 2 2 1 2 4 2 3 2 5 2 2 1 4 2 2 2 3 4 4 2 4 6 8 4 2 2 2 3 6 9 12 13 16 21 26 29 32 34 35 33 31 30 29

GFSNW_850_spd_045.txt.gz
Wind_Speed
28 28 28 29 26 30 37 6 0 8 23 4 2 4 5 7 11 4 3 8 6 16 17 11 11 12 2 12 12 13 9 3 5 11 8 8 14 11 16 6 7 7 10 20
28 27 27 29 25 31 31 6 3 5 14 3 2 5 1 6 4 2 3 5 2 12 15 7 5 8 7 12 12 11 10 5 3 3 3 7 9 16 17 17 14 22 14 15
26 26 26 29 22 27 13 2 2 3 2 5 6 6 2 5 6 4 8 9 12 14 12 4 10 9 4 9 10 6 10 4 7 4 8 6 5 13 16 14 7 22 23 33
25 24 25 28 22 22 14 6 2 1 3 3 6 4 3 12 4 3 3 4 5 10 5 6 5 8 7 6 6 7 5 5 10 16 20 20 19 20 19 18 20 15 30 26
23 23 23 26 22 23 13 7 5 9 1 9 8 6 10 7 5 1 2 7 9 4 4 0 5 8 7 5 9 8 4 4 6 12 19 18 16 18 20 19 18 15 16 21
22 21 23 24 20 21 10 16 13 5 2 4 7 4 8 11 12 1 4 9 7 4 4 3 3 3 3 4 7 11 5 2 3 5 9 17 6 6 6 9 12 7 9 10
21 20 21 20 18 16 15 15 11 4 1 3 6 5 6 12 8 5 6 7 3 4 2 4 2 4 5 7 9 9 6 8 3 6 11 3 8 4 4 8 10 9 14 14
20 20 18 17 16 16 15 14 4 2 2 4 4 8 7 11 7 8 9 5 5 7 4 2 2 3 2 8 11 14 10 3 3 3 6 14 8 2 5 2 3 8 11 9
19 20 16 14 15 15 17 6 2 2 2 6 8 7 7 6 6 4 4 3 5 3 2 1 1 3 3 3 4 8 10 9 3 3 4 3 2 4 3 3 2 10 9 11
19 19 16 16 16 13 15 4 4 2 4 4 8 6 7 1 5 2 5 4 4 4 3 2 3 3 3 4 5 5 5 3 8 8 5 8 9 3 4 4 5 8 6 12
20 18 16 17 18 15 11 3 2 7 5 5 10 3 4 8 7 4 6 3 2 3 4 2 3 4 5 5 4 7 8 8 4 4 5 8 1 2 5 4 4 3 7 5
19 18 16 16 19 14 12 5 5 11 6 4 6 7 6 7 3 2 8 2 4 4 3 2 3 4 3 7 4 7 5 6 4 7 6 7 2 8 11 7 8 5 5 3
20 19 19 17 17 13 11 9 8 5 4 4 3 4 7 5 7 7 3 3 6 5 6 1 2 6 3 5 7 5 7 7 5 3 5 9 9 10 3 5 5 4 6 8
20 20 17 15 15 14 9 7 4 6 4 3 1 3 5 7 10 13 14 9 10 8 9 4 3 4 5 4 3 5 3 6 5 11 16 11 6 5 3 2 3 4 1 7
21 21 19 14 14 13 8 6 4 7 3 4 5 8 10 8 9 11 14 14 13 8 4 3 4 3 1 3 3 8 8 8 5 5 6 5 5 4 5 3 4 5 7 12
22 23 17 14 12 8 1 4 6 8 6 3 2 3 4 6 6 8 10 9 16 8 5 3 6 7 5 3 4 6 11 13 11 8 2 2 1 4 5 6 7 7 10 12
23 20 18 15 11 9 8 3 10 10 4 2 3 2 3 4 5 5 9 7 4 6 5 4 5 3 3 4 12 9 4 5 6 6 4 2 3 2 5 7 9 12 14 15
13 12 11 5 7 8 8 4 6 7 4 3 2 2 2 4 2 3 6 4 7 6 3 3 2 2 3 5 10 14 12 14 11 8 8 5 6 8 10 9 9 12 14 18
4 6 7 7 4 5 5 4 6 8 4 2 3 2 1 2 3 3 4 6 3 5 3 2 2 3 5 10 10 8 6 3 2 7 7 8 10 14 14 13 13 15 15 19
0 1 1 1 3 4 7 4 4 6 4 4 2 2 1 3 1 1 1 1 1 2 1 2 3 6 17 16 7 6 5 5 9 7 7 12 15 18 18 17 14 16 19 22
1 0 1 2 4 5 2 3 2 3 2 4 3 3 4 2 2 1 1 1 1 1 1 2 2 3 1 3 7 11 16 13 9 10 8 14 16 20 20 19 16 17 21 23
3 2 2 2 1 1 1 2 1 2 2 0 2 1 3 2 2 1 0 1 1 2 2 2 3 1 4 8 7 5 6 8 10 9 9 12 13 18 20 21 20 22 24 26
2 2 1 1 0 3 3 5 3 2 2 3 2 1 2 2 2 1 0 1 2 0 2 3 3 4 8 7 7 3 2 7 9 8 6 12 14 20 22 24 23 24 26 28
1 1 2 3 3 2 0 2 2 2 3 5 3 3 1 2 1 1 2 0 1 2 2 4 2 7 10 7 6 2 2 5 6 7 7 11 17 21 22 24 26 28 29 28
1 1 3 3 1 1 1 1 1 2 3 3 2 2 1 1 1 1 1 1 3 3 3 2 8 14 9 7 6 3 3 5 6 6 9 13 18 21 23 24 26 27 27 28
3 3 3 2 1 2 1 1 1 2 4 3 2 1 1 2 1 2 4 2 4 1 3 10 16 11 8 8 7 4 4 6 7 8 10 13 18 22 25 26 27 28 29 28
3 3 4 1 2 2 0 1 1 3 2 2 0 3 2 1 2 3 2 2 3 10 13 14 13 12 11 9 7 5 4 5 7 9 12 16 20 23 26 29 29 30 29 27

GFSNW_850_spd_048.txt.gz
Wind_Speed
28 30 30 31 29 33 29 5 2 8 16 2 2 2 4 3 1 6 1 3 11 13 14 11 7 9 4 19 13 11 6 3 3 8 8 12 11 6 8 3 4 4 2 7
29 29 30 32 28 30 21 3 4 9 1 1 1 1 2 1 2 5 2 5 9 15 11 8 6 11 6 9 10 12 7 3 2 3 2 6 4 6 9 10 4 12 6 6
26 28 28 32 26 28 10 3 2 4 3 6 4 3 2 3 3 8 4 6 16 15 6 8 9 8 3 6 3 8 13 4 4 2 4 2 3 6 7 6 5 13 19 25
24 26 27 28 24 21 9 6 2 3 2 3 4 1 2 6 2 4 7 4 11 12 6 11 10 10 8 3 5 4 4 3 5 10 13 9 10 10 13 15 20 12 23 23
23 24 25 25 25 20 11 6 4 6 4 1 1 3 3 6 3 7 3 7 9 2 5 6 10 11 6 5 5 5 3 2 4 5 12 12 12 16 16 19 19 16 19 24
20 22 22 21 21 23 9 14 11 5 7 4 3 3 7 5 2 9 9 9 6 9 8 11 12 11 8 8 8 8 6 3 1 3 7 9 8 9 9 4 7 8 9 17
19 20 20 15 17 17 16 12 10 4 3 5 2 3 3 10 6 3 3 3 4 3 4 8 7 7 5 3 3 7 5 5 2 4 8 4 2 6 6 7 8 8 13 14
19 18 18 16 16 16 17 9 3 2 2 4 3 3 2 11 10 9 8 10 10 7 4 1 4 2 3 7 7 8 5 2 2 2 5 9 3 4 1 1 3 4 8 12
22 18 16 15 18 17 15 7 4 4 4 2 7 3 5 2 4 3 4 7 4 3 1 1 2 2 4 4 4 6 6 5 0 3 3 3 2 4 4 7 2 4 0 8
20 19 17 14 17 18 13 4 9 2 4 6 3 1 1 2 1 2 5 4 2 2 1 1 1 2 4 2 7 4 4 2 6 4 3 6 7 7 8 1 4 4 2 7
18 18 19 17 15 18 13 6 3 7 4 9 2 3 4 3 4 1 4 3 1 1 2 1 2 2 3 2 5 7 6 6 3 3 3 7 1 4 0 2 3 7 3 2
18 18 16 18 16 14 13 6 6 10 7 5 6 7 5 3 1 1 8 2 3 3 1 0 2 3 2 4 3 7 5 6 5 6 6 8 5 8 4 5 5 6 3 3
19 18 17 16 13 12 12 10 8 5 5 6 4 5 7 7 7 6 3 1 5 5 3 2 2 4 2 2 4 3 4 11 3 4 5 9 5 8 6 6 5 7 6 7
20 19 19 16 14 13 12 10 5 6 4 2 2 3 5 7 9 10 9 4 7 6 6 4 2 3 4 3 4 3 1 1 4 6 9 4 7 7 4 5 4 4 1 10
20 20 20 16 13 11 11 10 8 7 4 3 6 9 10 8 8 8 10 11 11 7 4 3 3 3 2 3 3 4 6 5 4 3 4 1 2 3 3 2 1 2 5 10
22 22 18 15 12 9 4 2 3 6 6 2 2 3 5 5 6 6 7 10 11 8 5 3 4 11 4 3 3 7 15 19 17 0 1 2 2 1 1 2 4 5 9 12
24 20 15 13 8 10 9 3 10 11 7 3 3 3 2 4 3 3 4 7 3 6 5 5 4 3 2 3 5 7 16 7 6 8 5 3 5 3 4 5 8 10 12 13
21 10 11 4 5 10 12 4 14 10 5 3 1 3 3 2 1 1 3 2 5 5 3 4 3 3 7 4 8 15 17 12 6 9 8 7 7 8 8 8 9 12 14 15
6 5 3 6 3 6 4 7 5 8 6 2 2 1 2 2 2 3 4 6 2 3 3 2 1 3 5 5 7 14 3 2 3 4 7 7 10 11 12 13 13 14 17 17
1 0 1 1 3 3 6 4 4 5 5 4 2 3 2 3 1 2 2 3 1 2 2 1 3 3 17 19 13 8 6 4 7 5 4 9 12 14 16 15 15 16 20 20
1 1 2 1 3 3 3 3 2 3 2 4 3 3 2 2 1 1 2 1 1 1 1 2 2 3 2 8 10 11 10 13 12 7 8 8 10 18 19 17 17 17 19 21
5 3 3 1 1 1 1 2 2 1 2 1 2 1 3 3 2 1 1 1 1 1 3 1 2 2 11 15 12 11 7 3 5 7 4 4 8 15 17 18 18 17 18 22
2 2 2 2 0 2 3 5 2 1 2 3 3 1 2 2 2 2 0 1 2 1 1 2 3 8 19 16 15 10 6 1 2 3 2 8 7 12 17 19 18 19 22 25
2 2 2 2 2 2 1 2 1 2 1 3 3 3 1 1 1 1 2 1 0 1 1 3 2 19 21 16 15 11 8 5 2 3 4 9 12 15 18 20 20 23 27 28
2 2 3 3 1 1 1 2 1 2 2 3 2 3 1 1 1 1 1 1 2 2 2 2 15 21 16 16 15 11 7 5 3 2 6 11 14 18 20 21 23 24 26 27
3 4 2 4 1 2 1 1 1 2 4 5 2 1 0 2 2 2 4 1 2 1 2 15 20 19 16 16 14 12 8 5 4 3 5 9 14 17 20 22 23 25 26 28
3 4 6 3 1 1 3 2 1 4 2 1 1 3 3 1 1 2 3 2 2 9 13 18 18 19 18 16 13 11 9 5 4 4 5 9 12 17 21 24 25 27 28 28

GFSNW_850_spd_054.txt.gz
Wind_Speed
25 27 29 29 31 25 12 13 3 5 12 3 2 3 7 7 6 4 3 3 10 4 6 4 3 6 5 12 6 5 2 5 3 3 2 4 4 5 5 4 4 0 1 7
25 26 27 26 27 22 11 4 2 2 10 3 3 4 4 3 4 4 2 4 4 4 5 5 4 5 4 19 5 6 3 2 3 2 4 2 3 5 4 4 3 6 4 6
22 25 26 23 24 17 7 3 3 5 3 1 3 4 3 3 7 5 3 5 11 7 4 4 4 3 7 11 8 12 6 2 4 5 4 4 4 5 8 6 3 3 7 11
21 22 23 22 21 17 5 6 3 4 4 4 8 8 8 11 7 9 14 5 7 6 3 5 4 4 4 8 6 4 4 3 4 5 6 2 4 6 8 13 16 6 3 8
22 19 19 21 21 11 18 3 3 6 4 7 8 7 7 13 11 6 6 6 5 10 2 1 5 6 3 2 3 3 2 1 1 4 6 8 7 10 10 13 15 15 21 24
19 20 16 18 20 16 8 7 7 3 6 4 2 3 3 6 5 16 11 6 8 12 7 6 10 9 10 8 6 3 4 3 1 4 3 1 5 11 15 7 7 10 13 17
18 18 16 15 16 15 11 8 6 5 3 3 3 5 2 4 4 5 3 11 5 2 4 14 18 19 13 8 4 6 5 4 3 3 3 3 5 4 7 14 10 11 14 14
18 15 17 16 14 11 8 6 4 4 3 2 5 10 3 7 12 6 9 11 7 3 4 3 3 2 2 2 3 4 4 3 2 2 2 6 2 2 4 6 5 7 8 7
17 15 14 14 16 11 5 2 2 1 4 3 4 4 4 1 3 4 3 5 6 3 3 2 2 3 3 3 3 3 3 4 2 1 1 3 2 2 4 4 4 8 9 7
13 14 13 12 14 12 7 3 3 1 3 5 2 3 2 2 1 2 1 1 4 5 2 2 1 1 2 4 6 4 3 2 4 4 3 7 7 2 6 2 5 6 11 8
13 13 13 11 11 9 8 4 5 2 4 10 7 4 3 3 1 2 3 3 1 3 2 0 1 1 2 1 4 5 6 5 3 3 3 7 4 4 2 3 8 6 6 6
13 13 13 13 10 9 7 6 7 10 8 7 7 11 9 5 1 1 3 1 3 3 2 1 1 0 1 1 2 1 4 6 5 7 6 6 4 8 13 12 11 8 5 6
13 13 14 14 11 10 7 11 6 7 4 8 7 9 10 10 8 5 3 4 3 3 2 3 1 2 1 2 4 3 4 8 3 2 5 8 14 16 18 11 8 6 5 8
14 13 15 14 14 11 7 11 8 8 3 3 2 3 4 7 9 9 10 5 6 4 4 2 1 2 4 3 3 3 4 4 3 5 8 15 9 7 6 9 8 5 4 8
14 15 16 15 15 8 10 15 15 14 5 2 6 7 9 9 7 8 10 9 10 6 3 2 3 2 2 2 1 4 7 7 4 4 6 6 6 5 7 8 8 4 3 10
16 17 18 16 8 8 8 3 8 16 15 2 2 2 4 5 5 7 8 9 11 8 5 4 4 5 5 2 2 8 12 14 7 5 16 14 9 8 8 6 5 3 3 8
18 20 12 8 9 11 12 3 7 13 11 2 3 3 2 4 6 5 7 9 8 9 4 5 6 7 10 2 3 8 19 17 24 16 12 11 13 9 8 7 6 4 5 10
18 6 8 6 6 9 14 7 15 14 8 3 2 2 1 6 4 3 5 4 4 5 3 3 3 5 5 4 9 16 14 14 9 8 9 12 12 9 11 10 8 7 8 11
4 3 2 2 4 7 4 5 9 14 5 3 2 2 2 4 4 4 3 3 2 3 2 3 4 3 4 2 9 12 14 11 15 10 8 8 9 8 10 11 11 11 10 12
3 1 1 1 3 4 6 6 8 8 5 6 3 3 2 5 5 2 2 4 2 2 3 3 3 2 8 15 17 15 17 17 14 13 13 11 12 12 13 14 12 11 11 14
5 3 2 2 4 2 4 4 4 6 2 5 5 7 3 4 2 2 5 2 1 2 1 1 2 1 3 15 16 15 14 13 14 17 21 19 14 15 14 15 14 13 13 15
1 0 1 1 3 2 2 3 2 3 3 3 2 3 4 2 3 1 2 2 1 3 1 2 1 2 13 17 18 17 13 13 10 7 9 12 16 15 13 15 15 14 14 15
3 1 2 2 3 3 5 5 3 2 2 1 1 1 2 3 3 2 0 2 2 2 1 1 1 7 18 18 18 16 12 10 8 6 5 6 7 7 11 14 15 13 14 15
2 2 3 3 3 3 2 0 1 2 2 1 1 1 2 2 0 2 2 1 1 2 1 1 2 15 18 17 16 15 16 13 11 8 4 2 3 6 9 11 13 13 14 16
3 3 3 3 3 1 0 0 2 2 2 1 2 1 1 1 1 1 1 1 3 2 1 1 10 13 15 16 16 15 14 12 12 10 6 2 3 6 10 11 12 15 15 17
4 4 3 3 1 1 2 2 2 0 1 0 1 0 1 3 2 1 4 1 3 2 1 4 8 10 14 17 16 14 11 9 9 7 5 3 3 6 8 12 14 15 14 16
3 4 5 4 4 2 2 3 3 2 1 1 1 4 3 0 2 3 0 1 2 5 2 3 5 9 13 17 18 15 13 12 9 7 5 3 4 7 10 12 15 16 17 17

GFSNW_850_spd_057.txt.gz
Wind_Speed
26 27 29 27 27 19 12 5 2 5 13 3 1 2 9 8 6 2 4 9 8 5 5 4 3 5 2 8 7 4 1 4 3 2 1 3 3 5 4 4 3 1 1 6
26 27 25 25 23 20 13 3 4 5 9 3 3 5 5 4 5 4 2 4 4 4 4 5 3 3 2 13 4 5 3 2 3 2 2 2 3 4 4 5 3 5 5 5
26 27 23 23 19 17 9 4 4 6 5 2 2 3 3 3 5 4 2 4 5 4 4 5 4 3 4 12 6 7 6 3 4 5 3 4 3 4 6 5 3 3 7 7
24 26 23 22 19 14 6 6 2 4 4 5 10 8 6 12 5 6 11 5 6 5 3 4 3 3 4 5 10 3 4 2 2 3 4 2 5 4 8 11 9 6 3 6
23 22 23 20 20 10 14 4 4 6 5 11 6 8 9 13 7 5 6 7 8 9 3 2 6 6 3 2 3 3 2 1 1 3 4 6 5 7 8 9 10 12 19 22
22 19 22 21 18 17 8 7 6 4 6 5 3 4 5 5 3 12 12 5 6 12 6 4 10 8 6 6 5 2 3 3 2 4 4 3 5 8 13 7 5 14 12 20
20 21 18 19 16 13 9 8 5 4 3 4 3 5 2 6 5 3 5 7 3 2 3 14 18 20 15 10 6 5 4 4 2 2 4 2 6 3 6 14 9 14 14 14
16 18 17 15 16 10 6 6 4 5 3 4 4 9 3 4 7 4 5 9 6 2 4 4 4 3 3 3 3 4 4 3 2 1 2 6 1 3 5 6 5 11 15 13
15 15 16 14 15 11 5 2 4 2 3 2 6 4 4 2 2 4 3 5 6 2 3 3 2 2 3 3 2 3 4 4 3 1 1 3 2 1 3 4 3 5 11 7
15 15 14 14 12 13 7 2 4 3 3 5 2 3 3 3 2 1 2 4 3 5 2 2 2 1 2 4 5 4 3 2 4 5 3 6 7 6 3 2 3 8 7 11
13 14 14 15 12 11 6 6 4 4 4 12 8 7 3 4 2 2 1 2 2 3 2 2 2 1 1 1 2 5 6 5 3 3 3 6 4 1 3 3 7 8 10 8
14 13 13 14 14 10 9 7 6 8 7 8 9 14 12 8 1 1 1 1 1 1 2 1 0 0 1 3 2 0 3 5 4 7 5 6 5 8 13 12 10 8 8 8
16 13 13 13 14 12 10 11 8 8 7 14 10 11 12 12 10 5 2 2 1 1 3 3 1 1 2 2 4 3 4 6 3 1 4 12 19 13 12 8 8 9 8 8
16 14 15 15 15 14 12 11 7 8 6 4 3 3 5 7 9 10 9 8 4 2 3 2 2 2 3 2 3 2 4 6 4 4 8 17 15 9 2 6 7 7 6 7
17 15 16 17 16 17 11 14 16 16 7 4 7 7 9 8 8 9 11 10 9 5 2 2 3 2 2 1 0 4 7 7 4 5 4 5 14 9 7 7 6 5 4 5
15 17 19 19 16 8 8 6 7 18 17 4 2 3 6 6 9 10 10 9 9 6 3 4 4 6 6 3 3 7 9 12 10 6 14 22 22 16 12 10 6 4 4 5
17 19 18 13 8 11 10 4 1 13 15 4 2 3 3 7 6 5 7 7 6 6 4 5 5 7 11 2 4 7 9 14 15 14 17 16 14 9 7 8 8 6 4 6
18 13 7 7 7 10 15 17 9 13 10 4 2 2 2 7 4 3 5 3 6 6 5 3 4 4 7 4 4 8 10 12 3 8 8 12 16 13 9 9 9 8 7 9
15 3 2 2 4 4 4 6 11 14 6 4 2 1 3 6 4 4 5 4 2 3 2 3 5 3 4 2 5 9 11 10 19 22 17 14 12 10 9 9 10 10 10 11
5 4 4 2 3 5 3 6 6 8 5 5 3 3 2 6 5 3 2 4 2 2 3 3 3 2 8 6 9 11 14 15 15 19 21 15 16 15 13 12 11 11 11 11
4 4 4 2 7 4 4 5 5 6 3 6 6 9 3 5 2 1 5 2 2 2 1 2 2 2 2 13 13 12 12 11 13 15 19 21 23 24 19 16 14 13 12 12
3 4 2 2 2 4 3 3 2 3 3 3 2 3 4 2 4 2 3 2 1 3 2 2 2 2 9 13 14 13 11 10 11 10 13 15 14 16 19 18 15 14 12 13
2 3 2 2 2 3 4 4 2 2 1 2 2 0 1 2 3 3 1 2 2 3 2 2 2 4 12 13 14 13 11 10 9 9 9 7 8 9 10 10 11 12 12 13
3 3 2 3 3 3 1 1 1 1 1 2 3 2 0 2 1 2 2 1 1 2 2 2 1 10 12 13 13 14 15 13 14 12 10 7 4 1 3 5 6 10 12 13
4 3 4 4 3 2 1 1 2 1 1 1 2 1 1 1 2 1 1 1 3 3 2 2 3 6 10 14 15 15 16 15 15 13 11 9 6 3 2 3 4 8 9 12
3 4 3 4 1 2 2 3 3 1 1 0 1 1 1 3 2 2 4 2 4 2 2 4 3 5 8 13 14 14 13 14 14 12 10 7 4 3 2 4 6 8 8 10
3 4 7 6 5 4 1 2 3 3 1 1 1 4 5 1 2 3 3 3 2 8 8 6 3 2 7 12 12 12 13 13 12 11 8 7 7 6 4 5 7 9 11 10

GFSNW_850_spd_060.txt.gz
Wind_Speed
29 28 25 25 25 27 16 7 3 14 17 3 2 3 6 4 4 5 3 7 7 4 5 4 3 4 2 3 4 4 2 4 3 1 1 2 3 5 4 4 3 1 1 5
29 27 25 24 23 23 19 11 5 9 14 4 4 6 4 2 5 5 4 3 5 3 4 5 3 4 2 8 4 4 4 2 3 1 1 1 3 4 4 5 3 5 4 4
29 25 26 22 21 17 11 6 4 7 6 3 3 5 5 4 4 5 6 5 7 6 6 5 3 3 3 5 4 8 6 3 4 5 3 3 3 4 5 5 3 3 5 6
28 25 26 21 21 13 6 7 3 6 4 6 8 8 7 8 7 7 14 6 5 4 3 3 3 3 3 5 8 4 3 3 1 4 2 3 4 4 8 6 5 5 3 6
27 25 23 24 20 12 15 4 4 7 5 11 6 8 7 8 7 5 5 5 4 4 4 0 6 6 3 3 3 3 3 1 2 3 2 6 4 7 8 9 7 9 9 18
21 22 21 23 20 19 9 9 6 5 6 5 2 3 4 6 3 10 8 3 5 11 6 2 11 10 7 6 6 3 3 3 2 3 4 3 4 7 11 6 5 8 7 11
23 18 21 18 18 15 11 11 7 4 3 3 3 5 4 6 4 4 3 7 3 3 7 12 18 20 15 13 7 3 4 4 2 2 4 2 4 1 6 12 4 11 9 11
20 16 18 17 16 13 8 7 6 4 2 4 4 8 4 4 6 4 4 7 3 1 3 3 3 2 3 4 5 4 2 3 1 1 2 6 0 2 5 5 1 9 12 12
17 14 16 16 15 15 6 2 6 3 3 2 4 4 4 2 3 4 3 4 5 2 3 3 2 2 2 3 2 4 5 5 3 0 1 2 2 2 2 1 2 2 7 9
14 11 14 14 14 14 9 3 5 4 4 4 3 3 3 4 1 1 2 4 3 4 2 2 2 2 2 3 4 3 2 1 3 1 2 6 6 6 2 2 4 8 3 8
14 14 11 12 13 13 12 6 4 4 5 15 10 7 4 4 2 1 0 2 3 3 3 2 2 2 1 2 1 4 5 4 2 3 3 6 4 1 2 2 8 10 10 7
12 16 9 11 11 11 12 9 6 7 8 10 16 17 16 14 5 3 1 1 2 2 2 1 0 1 2 3 2 1 3 5 3 6 5 4 2 7 11 16 17 13 9 8
11 14 12 11 11 13 12 14 10 10 7 15 13 11 11 15 12 7 3 1 1 1 1 2 1 1 2 2 3 1 3 5 3 1 3 8 15 15 14 16 9 9 9 7
13 15 15 13 12 12 14 17 8 8 7 4 6 2 5 10 11 10 11 6 3 1 1 1 2 1 4 3 2 3 4 4 4 4 7 11 6 11 11 8 8 8 6 5
14 15 13 13 15 17 15 16 16 14 11 4 8 9 8 8 8 10 10 9 7 4 1 2 3 2 3 2 2 3 6 7 4 5 8 4 9 13 16 15 12 7 5 4
15 12 14 18 17 13 10 7 4 19 19 5 3 4 6 10 11 10 9 9 8 6 4 3 3 4 4 3 3 5 8 6 7 5 7 14 19 22 15 13 12 8 7 5
14 15 18 9 7 8 10 5 6 9 19 5 3 3 3 7 7 7 9 9 6 6 4 5 4 6 5 2 4 5 4 7 9 6 10 10 3 6 10 9 9 9 8 8
15 16 7 9 9 10 15 18 18 12 12 6 2 2 1 9 5 4 7 5 6 6 4 2 3 4 5 4 4 3 8 11 7 7 11 11 13 12 11 10 10 11 10 9
14 9 6 7 4 4 5 7 11 12 10 5 2 1 2 7 4 4 5 4 3 3 2 3 4 3 5 1 1 4 7 8 16 20 20 17 15 14 12 11 10 11 11 11
12 5 1 2 3 6 3 5 8 9 7 6 3 2 1 7 7 6 2 5 2 2 3 3 3 4 6 2 4 7 11 14 14 18 19 17 20 15 13 13 12 13 13 12
2 3 3 3 6 3 4 4 5 6 3 6 5 8 3 6 2 2 4 1 2 2 2 2 2 2 1 5 8 8 11 11 11 15 19 19 20 23 21 21 19 16 15 15
3 3 3 2 3 4 3 3 3 3 3 3 2 5 6 4 4 2 2 2 2 3 2 2 2 2 3 8 9 9 8 9 10 10 14 16 17 18 18 17 17 17 15 14
2 2 2 2 4 4 4 4 2 1 2 3 0 1 2 3 4 2 1 3 3 3 2 2 1 1 5 8 8 7 7 8 9 9 9 9 10 10 10 11 12 12 13 14
3 3 3 3 3 4 2 1 2 2 1 3 2 0 2 1 1 2 2 1 1 2 2 4 2 0 4 6 7 8 11 11 11 12 11 9 6 5 2 1 3 7 11 12
3 3 4 4 4 3 2 2 2 1 2 1 1 1 1 0 2 2 1 2 3 4 3 2 6 4 5 8 9 11 12 14 14 13 12 10 8 5 3 1 3 5 7 9
3 5 3 5 2 3 3 3 3 1 1 2 2 2 2 4 2 3 4 2 4 3 2 8 9 5 4 8 8 9 11 13 15 16 13 11 8 7 5 3 1 2 3 3
3 4 8 7 4 5 3 2 3 3 1 1 1 3 5 0 2 3 3 4 3 8 13 11 8 3 2 8 9 9 10 11 12 13 12 10 9 7 5 3 3 2 4 5

GFSNW_850_spd_063.txt.gz
Wind_Speed
30 30 29 28 29 27 18 8 3 16 13 5 2 3 5 5 5 1 3 2 5 3 4 5 3 3 1 1 2 3 1 5 4 2 1 2 2 3 3 3 3 1 1 4
29 30 27 26 25 22 17 6 6 9 13 4 4 4 3 2 6 4 2 3 3 4 3 5 3 2 4 3 2 5 4 2 4 1 1 2 2 4 4 4 2 4 3 3
28 29 27 23 22 18 10 4 4 7 6 4 3 4 5 6 4 3 5 4 4 4 5 6 4 3 3 3 4 9 6 3 4 4 2 3 2 4 4 4 2 4 5 5
26 26 26 22 21 15 6 6 3 5 4 5 7 3 4 5 6 7 16 6 6 4 3 3 3 3 3 6 4 4 3 3 2 1 2 3 4 4 7 5 5 5 2 5
21 24 25 23 20 12 18 5 4 7 5 11 6 6 6 7 6 6 6 5 6 4 3 1 5 6 3 3 3 3 3 2 2 3 1 4 3 4 7 8 3 7 1 13
21 22 22 20 20 17 9 10 8 5 6 5 3 4 5 5 3 7 7 2 3 8 5 1 6 6 6 6 5 3 3 4 2 2 2 1 4 9 11 5 4 8 7 9
18 20 17 19 18 13 11 11 6 5 3 2 2 5 4 7 5 3 6 8 4 3 3 7 15 22 16 13 7 3 4 4 2 1 2 2 3 1 7 12 4 11 6 9
15 17 14 16 14 12 7 8 6 4 2 5 4 7 4 5 4 3 2 5 3 2 1 3 3 3 2 4 5 5 1 3 2 1 2 5 1 2 5 5 1 9 13 13
12 15 13 12 14 11 4 3 6 2 2 2 6 4 4 2 3 4 2 3 2 1 3 2 2 3 2 2 2 4 4 5 3 1 1 2 2 0 2 2 3 3 9 6
10 15 15 10 12 13 7 1 4 2 4 4 2 2 3 4 2 2 3 3 1 2 2 2 1 2 2 3 5 4 1 1 3 2 2 5 5 4 3 1 3 3 2 7
9 13 16 9 10 10 10 4 2 3 5 15 14 11 7 4 1 1 3 2 2 2 2 2 2 2 1 1 1 4 5 4 3 2 0 5 4 1 1 1 6 12 11 7
11 10 13 11 6 9 11 9 8 8 9 10 12 18 18 17 14 6 3 1 2 3 3 1 2 2 2 3 2 2 3 5 3 6 5 4 3 4 8 13 16 11 7 7
11 9 11 11 11 9 10 12 12 10 7 13 14 14 10 16 18 14 4 1 1 1 1 3 1 1 2 3 3 2 3 3 2 1 1 7 11 11 8 8 9 9 8 6
15 13 14 11 10 10 12 16 14 9 6 4 7 2 7 10 17 15 17 6 2 2 1 1 1 1 5 3 2 3 4 6 4 4 7 8 5 4 7 8 13 11 9 6
15 16 14 10 12 14 17 17 17 14 9 4 11 18 11 10 13 14 15 14 7 3 1 2 2 1 3 1 1 4 7 6 4 5 7 5 9 10 15 14 17 12 10 6
16 19 14 12 15 11 11 6 2 14 16 4 3 6 8 15 13 14 15 13 9 6 4 4 3 4 4 3 3 6 10 6 5 3 4 10 15 16 12 12 9 8 9 7
17 18 13 15 11 9 8 4 4 3 18 4 4 4 5 13 14 11 11 11 6 6 4 4 4 5 6 2 4 5 8 7 4 8 9 7 3 4 13 10 8 7 7 8
16 15 14 8 8 9 14 16 15 7 10 5 3 3 2 12 7 6 10 7 7 6 4 3 4 5 5 4 5 6 6 6 7 8 7 11 14 13 10 8 8 9 9 9
14 13 7 6 5 3 3 2 7 10 10 4 4 2 1 9 5 5 7 6 3 3 2 3 4 4 5 3 3 5 5 4 8 13 16 14 9 9 9 11 11 11 9 9
11 5 1 3 3 4 5 5 7 7 7 7 4 3 2 4 4 4 5 4 1 2 3 4 3 3 4 4 3 4 8 10 12 14 13 14 19 15 14 15 14 15 14 13
3 3 4 5 5 3 4 4 6 7 4 7 6 5 2 4 2 2 5 2 1 2 2 2 2 2 3 2 3 6 8 9 9 12 14 16 18 20 19 19 18 19 19 16
4 3 3 3 3 4 3 3 3 4 3 3 3 3 5 2 3 2 3 2 2 4 3 2 3 2 3 2 3 4 5 7 9 9 12 14 15 16 17 20 19 18 18 18
3 2 2 3 4 4 4 3 2 3 2 3 2 0 2 2 2 2 2 3 3 3 2 3 2 4 1 3 3 2 4 6 7 8 9 10 11 11 12 13 12 12 13 14
4 3 3 3 3 4 2 1 2 1 1 0 2 1 1 0 1 1 2 1 2 2 2 4 2 5 3 3 3 4 7 9 9 9 8 8 8 7 6 4 3 4 7 10
4 3 4 3 3 3 2 3 1 2 2 1 2 0 1 0 2 2 1 2 3 3 3 2 9 8 5 4 4 6 9 11 12 13 12 11 8 8 7 4 2 3 5 8
4 4 3 4 3 2 3 3 1 1 2 2 2 1 2 4 2 2 5 2 4 2 2 9 13 9 5 4 4 5 7 10 12 14 16 15 12 9 8 6 4 2 2 3
3 4 7 7 4 4 3 2 2 2 2 1 1 4 4 2 2 3 3 4 3 6 12 16 13 9 4 3 4 5 7 8 9 9 11 13 13 12 10 7 5 3 1 2

GFSNW_850_spd_066.txt.gz
Wind_Speed
28 34 32 28 27 26 12 6 2 13 7 2 1 2 3 2 2 4 4 2 6 4 3 5 4 4 1 1 1 3 1 5 4 2 3 2 1 2 3 3 4 1 1 3
28 33 32 26 25 23 13 3 4 11 10 3 4 2 1 2 6 5 4 4 4 3 3 4 4 3 3 1 1 3 5 4 5 2 2 2 5 4 3 4 2 4 2 4
25 32 31 23 22 19 8 3 2 6 8 4 3 5 4 3 2 5 4 3 2 3 5 6 4 5 3 4 5 6 3 3 0 3 3 4 4 8 8 3 3 4 4 2
26 30 29 24 20 15 4 5 3 3 4 5 7 7 5 4 5 6 11 4 7 2 2 3 4 3 4 3 3 2 1 3 2 3 2 2 3 5 10 6 3 4 2 4
22 26 25 27 20 12 14 4 3 5 4 8 5 9 8 8 4 6 4 5 7 4 3 3 5 5 3 3 1 2 2 3 2 2 2 5 5 7 10 12 11 11 8 14
18 23 23 25 20 17 9 7 5 2 4 4 2 3 4 6 6 4 6 2 4 8 4 1 3 1 4 4 4 2 1 4 1 0 2 3 5 9 12 8 8 11 9 7
15 20 22 20 20 13 10 10 6 4 2 2 3 5 5 7 6 2 4 3 3 5 4 5 12 15 12 10 7 1 5 4 1 0 2 2 3 2 3 11 5 12 8 10
13 17 21 19 19 11 6 7 5 4 2 6 1 8 5 6 5 4 3 6 3 3 1 2 3 2 2 4 6 5 1 2 2 2 2 4 2 3 4 4 2 11 13 13
11 15 19 13 14 14 5 3 5 1 4 2 3 4 6 3 3 1 2 3 1 1 1 0 2 2 1 3 2 4 4 5 1 1 2 2 2 2 2 2 2 2 9 7
12 11 16 13 12 13 10 4 6 3 4 5 4 4 3 2 2 3 3 3 0 1 1 2 2 2 0 3 4 4 3 1 4 3 3 3 2 2 2 3 5 1 4 7
14 11 11 15 11 8 11 9 5 5 6 13 11 11 6 3 2 2 3 2 2 1 3 2 2 2 2 2 1 3 6 5 3 3 3 4 5 3 3 3 1 6 7 5
16 13 8 11 12 7 12 14 12 6 10 11 12 15 20 20 14 5 3 3 2 1 1 2 2 2 2 2 2 2 4 3 1 5 2 2 3 1 3 4 7 6 4 5
17 15 10 13 15 12 8 14 14 13 8 15 11 14 17 25 24 20 6 3 2 2 2 1 0 2 1 3 4 3 4 4 3 2 3 9 8 8 6 4 2 5 7 6
19 16 12 14 13 6 8 16 16 14 6 6 7 3 8 11 17 24 22 10 1 3 2 2 1 2 3 1 1 3 0 7 5 5 9 11 6 5 2 6 7 11 12 8
19 16 15 14 9 11 15 20 21 17 11 5 12 18 13 15 14 19 22 22 17 5 3 2 2 2 3 1 0 4 7 7 5 5 5 4 4 4 9 12 11 13 15 10
18 16 16 12 10 14 10 5 2 6 17 4 4 7 11 12 16 18 20 19 15 7 5 4 3 4 4 3 3 5 9 9 8 2 2 5 9 11 13 9 8 8 9 8
17 17 16 12 14 13 9 4 6 8 15 4 5 5 5 15 16 14 14 17 11 9 5 4 4 4 7 3 7 7 9 10 9 9 6 6 4 3 9 12 10 9 7 8
14 16 15 15 11 9 13 16 13 5 11 6 3 4 4 14 9 7 11 10 12 9 3 3 4 3 5 5 9 8 7 8 7 8 9 10 12 13 12 11 9 9 9 10
11 13 15 9 7 5 4 4 8 9 9 4 3 3 1 9 4 8 8 7 2 5 3 4 4 5 6 5 8 8 7 6 6 9 12 13 13 12 11 12 11 13 12 12
10 10 5 5 4 6 5 6 12 12 6 7 4 6 2 3 3 4 6 5 2 3 4 4 3 3 7 6 7 6 6 6 8 10 8 8 14 14 15 15 16 17 17 15
7 6 6 6 5 4 5 5 6 7 4 7 8 7 2 2 2 2 0 2 2 2 2 3 2 3 3 4 5 5 6 7 8 9 11 13 15 17 18 17 17 18 20 21
6 4 5 5 4 5 4 4 4 5 3 4 3 3 5 4 2 2 3 2 2 3 3 2 3 2 5 4 3 2 3 4 6 9 11 13 14 15 17 18 19 20 21 21
6 5 4 4 4 5 5 4 3 3 2 2 2 2 1 1 1 3 2 3 3 3 3 3 2 4 4 1 1 1 1 4 6 7 9 10 10 11 13 15 15 16 16 16
5 5 5 4 4 4 3 1 0 1 2 4 5 1 0 1 2 1 2 1 2 2 2 3 2 8 6 4 3 2 2 4 7 7 6 6 7 8 8 9 9 7 7 9
4 4 4 4 3 4 3 4 2 2 4 4 2 1 1 1 1 1 1 3 3 3 2 1 8 11 8 6 4 3 4 6 8 9 10 10 9 8 7 6 6 5 5 6
4 4 3 3 2 3 5 3 2 2 3 4 2 1 2 3 1 3 4 2 3 1 2 8 15 13 9 7 4 3 5 6 8 9 11 13 13 11 10 8 7 4 3 4
3 4 7 7 5 5 3 2 0 3 3 1 2 3 2 2 2 3 3 3 2 3 8 16 16 13 9 7 4 2 3 5 7 8 9 9 11 12 12 12 9 6 5 3

GFSNW_850_spd_069.txt.gz
Wind_Speed
27 31 31 28 28 24 11 8 3 14 7 3 4 4 3 2 4 2 4 5 5 5 5 9 5 5 6 4 3 4 3 5 4 2 2 4 4 4 6 3 3 1 3 4
28 32 30 27 25 23 14 7 3 9 7 3 4 4 3 3 6 5 4 4 5 3 3 3 5 4 4 3 1 2 5 4 5 2 2 3 5 7 4 1 2 3 2 5
26 29 29 27 25 18 9 4 3 4 7 5 4 4 4 2 3 7 4 3 1 2 5 5 4 5 2 4 4 6 3 2 2 1 4 5 3 8 7 3 2 2 3 8
25 28 28 28 24 16 6 6 3 4 4 4 8 4 6 4 4 5 5 2 4 3 1 3 4 2 4 3 1 1 2 2 3 3 3 0 3 5 10 5 5 2 5 2
23 26 29 27 24 17 12 5 5 7 7 8 6 8 6 7 6 6 3 4 5 3 2 4 4 4 4 3 3 2 0 2 2 1 1 3 5 6 8 12 14 12 8 7
22 23 27 27 23 20 8 9 6 3 6 5 2 3 5 6 6 3 5 4 2 4 5 3 4 2 3 2 3 4 2 4 2 0 2 4 7 12 12 9 8 13 10 11
21 20 23 23 22 16 12 12 8 4 4 4 3 4 5 7 5 4 4 3 1 4 3 3 8 9 7 6 3 2 3 3 1 2 2 3 3 1 4 12 6 11 8 6
19 19 20 21 18 14 9 9 7 4 4 9 7 7 6 8 2 1 2 5 4 1 2 3 3 4 3 3 3 1 3 3 2 3 4 5 4 4 4 7 3 14 12 9
17 18 17 18 17 15 10 6 6 4 7 2 6 8 6 4 4 3 2 2 2 1 2 2 3 3 1 3 3 1 1 1 3 1 2 2 4 3 3 2 3 5 4 2
16 15 16 16 16 13 11 6 8 3 6 8 6 5 6 4 5 4 1 1 2 1 2 2 3 2 1 3 4 5 4 3 6 5 3 4 6 4 1 3 3 6 4 4
17 16 15 13 13 12 11 9 8 5 6 17 12 11 12 8 6 3 4 3 4 2 3 2 2 3 3 3 1 2 6 4 3 4 4 4 7 4 2 3 3 6 6 4
18 17 16 12 11 13 14 8 12 10 8 14 25 25 22 23 16 6 4 4 3 2 3 2 2 3 2 3 2 3 4 3 1 5 2 4 6 2 4 3 1 3 4 4
21 19 17 15 13 14 11 11 10 11 11 20 13 9 12 21 28 20 4 5 3 2 2 3 2 4 2 4 6 4 5 4 4 2 4 7 6 3 3 0 2 1 5 6
23 21 18 16 14 11 7 12 13 10 7 7 8 8 10 8 17 26 27 15 4 5 3 4 2 3 1 2 2 4 3 7 7 7 9 6 10 7 3 2 4 6 9 10
24 19 18 15 14 10 13 16 18 16 10 6 15 32 26 20 18 19 22 27 17 8 4 4 3 2 3 2 3 8 9 8 7 3 4 4 3 5 3 6 7 8 10 11
24 16 15 14 13 9 13 6 3 4 16 6 4 10 13 9 19 18 18 23 18 9 5 4 4 3 4 3 4 4 7 11 10 10 1 2 4 4 6 7 8 9 9 9
26 19 13 14 11 11 9 6 4 7 4 2 6 6 6 10 14 16 15 18 11 10 7 6 6 5 6 4 10 8 6 8 8 5 4 6 8 3 6 11 13 12 11 9
21 18 15 11 13 17 21 18 21 14 7 4 3 5 6 11 8 8 14 11 13 10 6 2 3 4 5 5 4 16 16 8 9 8 10 9 9 11 10 11 11 11 10 10
19 13 10 12 8 7 7 7 7 9 6 4 4 3 3 3 3 12 9 8 3 3 3 4 5 5 7 7 9 7 7 7 4 8 9 11 11 12 10 11 11 11 12 12
12 6 4 3 4 7 6 6 11 9 6 7 4 5 3 3 3 7 2 6 3 3 4 3 4 4 14 2 3 5 7 7 7 6 7 9 10 10 10 12 13 14 16 16
10 5 5 4 4 5 5 5 6 7 4 7 7 11 6 4 3 2 4 1 2 3 3 3 3 3 3 5 5 6 6 6 7 8 9 10 11 13 14 14 13 14 15 17
10 7 5 6 4 6 4 3 4 5 4 6 4 4 6 4 3 2 3 2 0 2 4 2 3 2 5 5 4 3 2 3 5 7 9 11 13 13 15 17 18 19 19 20
11 2 1 3 5 5 5 6 3 3 3 3 4 3 3 3 4 2 1 2 2 3 3 3 2 5 5 4 3 3 1 2 4 7 8 9 10 11 12 15 16 16 17 16
5 6 4 4 4 5 2 3 3 4 4 8 8 4 2 2 1 1 2 2 2 3 3 3 2 9 9 6 5 4 1 2 4 6 7 7 7 7 8 10 12 12 11 11
4 4 4 5 5 5 4 5 5 4 5 7 6 3 2 1 0 0 1 3 3 2 2 1 7 12 10 8 6 5 3 4 6 8 9 10 11 10 9 8 9 9 9 8
2 4 3 4 4 5 4 5 5 4 5 6 4 2 1 2 1 2 3 2 3 1 0 3 12 13 11 10 8 5 3 1 3 5 6 7 8 11 12 12 10 8 7 7
3 4 7 7 6 6 6 3 3 4 4 2 2 3 1 1 2 2 2 3 2 4 1 8 11 12 11 10 7 4 2 3 4 6 7 8 9 9 9 10 12 10 8 7

GFSNW_850_spd_072.txt.gz
Wind_Speed
30 32 33 34 32 28 13 8 3 15 8 4 2 4 4 2 3 5 7 6 7 7 8 9 5 7 5 7 5 3 5 4 3 3 3 1 2 5 5 3 2 1 1 3
29 30 32 32 31 26 18 7 4 9 7 3 4 7 7 3 7 5 6 4 4 4 4 3 5 5 5 5 5 3 3 3 4 3 2 2 3 3 2 5 2 2 1 2
27 29 30 31 30 23 11 6 4 5 7 5 1 3 6 4 1 4 5 3 6 3 6 7 4 4 3 5 4 6 5 4 3 3 3 4 2 4 5 4 2 2 4 5
27 29 29 29 30 24 8 7 4 5 4 4 6 3 8 10 7 10 5 1 5 4 2 2 4 3 4 2 1 1 4 3 3 4 4 3 4 3 7 4 5 3 5 2
23 25 28 28 28 23 17 5 5 8 7 9 7 7 5 8 10 7 5 6 6 8 6 5 1 2 2 2 0 2 2 2 3 2 0 2 3 5 6 7 7 7 5 5
22 23 25 26 25 25 12 10 7 1 8 6 5 2 4 6 10 2 6 8 9 6 5 7 7 5 6 5 2 2 2 3 1 1 1 4 5 10 9 6 6 9 7 6
20 21 21 23 22 20 14 11 7 4 4 7 6 6 8 7 9 6 8 8 6 2 5 5 3 5 5 4 2 4 2 2 1 1 1 2 3 4 2 8 6 7 7 4
16 18 19 19 20 17 11 9 5 2 4 7 11 10 10 12 12 5 4 4 3 4 6 2 0 1 2 2 3 1 3 2 2 1 3 1 1 2 3 5 5 8 6 3
16 16 17 17 18 16 10 8 6 2 3 2 9 11 12 4 5 6 3 1 3 3 2 2 2 2 2 3 2 1 1 3 1 2 1 2 3 3 1 2 2 3 9 6
18 17 16 17 15 16 12 8 9 2 5 7 5 2 5 7 3 4 8 1 2 1 2 2 2 2 3 2 4 4 3 3 3 4 2 4 5 6 2 2 3 7 3 2
19 20 17 16 16 16 14 9 11 6 7 19 16 7 8 11 8 3 7 4 3 1 2 2 2 1 2 2 1 4 5 4 4 4 2 5 6 3 1 6 7 6 5 3
22 21 20 16 16 15 16 11 8 11 11 15 25 28 29 26 21 8 5 6 7 4 2 1 2 2 2 4 1 3 2 2 2 5 3 2 9 8 6 3 3 2 5 2
26 22 20 16 15 13 14 15 10 13 14 24 15 6 7 9 19 24 6 6 4 2 6 4 2 2 2 1 4 4 5 2 1 3 2 7 8 6 1 3 5 4 3 2
29 25 22 17 14 14 14 12 12 13 7 6 8 5 11 8 12 18 32 15 4 8 6 4 2 2 2 2 0 1 1 4 5 4 5 3 6 7 11 5 3 2 4 5
27 26 25 18 14 11 15 15 17 17 11 5 17 37 15 13 28 19 21 27 25 10 5 3 3 2 1 2 2 3 6 4 3 2 3 6 10 10 5 1 2 4 6 7
28 27 22 16 13 13 11 4 2 2 11 7 4 12 24 14 8 24 19 21 19 11 5 4 6 3 3 2 3 4 2 12 10 3 3 3 3 3 4 2 3 5 7 7
26 28 23 14 14 9 9 5 3 7 9 4 6 5 7 6 6 12 16 17 9 11 6 8 5 4 4 2 4 3 6 7 8 7 5 3 3 5 5 5 8 10 10 8
18 17 20 15 7 14 16 19 16 19 10 4 3 4 6 3 6 5 14 13 14 9 7 3 2 3 5 4 5 17 17 11 13 10 8 8 7 7 8 11 11 10 9 8
16 15 8 9 10 7 6 6 4 6 6 4 4 3 3 8 4 6 8 10 3 4 3 3 3 3 5 5 4 6 6 5 3 9 11 9 9 9 9 9 9 9 9 9
17 10 3 1 2 4 4 3 8 7 5 7 4 5 4 3 3 2 5 4 3 2 4 5 4 4 10 3 5 5 7 7 7 6 4 6 7 8 8 10 12 13 13 14
6 4 4 3 2 3 4 3 5 5 3 6 7 11 5 5 3 2 4 1 2 3 3 3 2 3 2 6 6 5 5 4 4 5 6 7 9 11 13 14 13 13 14 14
6 5 5 6 4 3 3 3 3 4 3 6 4 5 9 5 5 2 3 2 0 2 3 1 3 1 6 4 3 2 2 2 1 3 5 7 10 11 13 15 15 16 17 17
9 3 2 3 3 3 4 4 3 3 2 5 6 4 3 2 8 2 1 2 2 4 2 2 2 7 7 6 5 6 4 2 1 3 5 7 8 9 11 12 13 15 16 15
5 5 3 3 3 3 1 3 3 6 7 12 13 6 3 3 1 0 1 1 2 2 3 3 2 9 10 8 8 6 5 3 4 6 7 8 8 7 7 8 10 12 12 12
4 4 4 4 4 1 4 6 6 8 10 11 8 6 3 2 1 1 1 2 2 2 2 0 4 7 10 8 8 7 6 4 4 5 6 6 8 10 10 11 11 11 11 10
4 5 3 4 1 5 3 4 6 5 7 10 4 2 2 2 2 1 2 3 1 2 2 1 8 10 9 9 8 6 3 3 4 5 5 7 8 8 9 10 11 13 11 9
3 4 8 6 5 6 7 6 4 6 5 2 2 2 1 2 2 2 1 2 2 7 7 2 6 8 10 10 8 6 2 1 4 6 7 8 9 9 9 10 10 10 11 11

GFSNW_850_spd_075.txt.gz
Wind_Speed
24 27 29 32 33 25 9 5 3 16 13 7 4 3 7 3 7 4 5 4 4 4 7 7 4 3 2 10 5 3 3 5 4 2 5 10 5 5 4 4 5 3 2 4
23 26 28 29 30 25 14 4 4 8 9 4 5 6 5 3 2 4 3 4 4 4 5 4 3 3 6 9 3 2 3 3 4 3 2 3 4 8 5 2 2 3 4 4
23 25 27 28 27 20 10 4 4 6 5 4 1 3 5 9 4 3 5 4 7 4 5 6 2 2 2 5 2 3 2 3 5 6 4 5 4 5 5 4 3 3 4 4
20 23 26 27 27 21 6 5 2 3 4 5 8 4 4 7 7 6 9 1 7 4 2 2 2 2 2 1 3 3 4 3 2 2 4 4 5 4 7 4 4 5 1 3
19 21 22 24 25 19 17 4 3 4 5 14 5 5 4 6 6 3 6 3 8 6 3 2 3 1 2 1 1 1 3 2 3 2 3 3 3 6 7 5 4 4 4 4
17 19 20 21 23 22 9 5 2 2 5 4 2 1 2 6 9 7 2 3 4 2 2 9 12 3 2 2 2 1 2 4 3 2 2 0 5 9 9 5 5 6 5 7
17 16 18 19 20 19 15 11 7 5 3 1 1 4 7 9 10 5 12 7 3 1 5 9 4 0 2 4 3 1 2 3 2 2 2 1 5 1 8 9 7 8 4 4
17 18 17 18 18 18 15 13 5 2 4 5 7 4 2 12 16 4 3 2 3 4 4 1 1 2 2 3 2 4 2 2 1 3 2 4 2 3 5 7 6 7 7 5
16 17 19 18 17 15 13 11 8 4 5 5 6 4 6 2 3 6 2 3 4 2 1 1 1 3 3 3 1 1 3 3 3 2 1 3 2 2 1 3 3 5 11 6
18 17 19 20 17 16 15 11 10 6 6 11 8 2 4 5 2 3 5 6 3 1 0 1 3 3 2 3 3 4 1 1 3 2 2 5 1 3 4 3 3 4 8 8
18 18 20 20 16 15 15 12 8 7 7 26 20 6 6 8 6 2 6 4 3 1 1 2 2 1 2 1 4 5 5 4 3 3 3 5 5 3 2 4 8 7 6 5
24 22 22 21 16 16 15 13 9 10 17 25 33 37 33 30 20 10 5 4 3 2 2 0 1 1 0 3 2 1 2 5 4 6 4 4 9 4 8 11 8 6 7 5
26 25 29 25 16 17 14 17 14 14 15 25 12 10 11 9 11 16 8 7 3 2 2 1 2 2 2 2 3 2 2 4 1 3 1 5 12 7 5 4 6 7 6 5
25 24 26 21 19 14 14 16 15 15 10 5 9 9 9 9 10 13 29 18 4 5 4 1 2 2 2 2 2 3 4 3 3 3 5 5 10 11 10 7 6 5 4 4
22 23 21 24 20 12 14 18 16 15 12 5 16 35 7 12 11 21 23 24 31 8 4 2 3 3 1 1 1 3 5 5 3 4 2 5 3 14 9 7 3 2 4 5
15 17 20 21 14 10 11 4 2 4 8 7 5 10 14 12 9 13 26 17 19 13 6 4 6 4 2 2 3 6 6 9 11 5 4 5 11 8 4 4 3 3 4 6
16 14 14 19 13 11 7 3 4 6 7 5 6 6 6 15 2 3 20 15 12 12 6 5 3 5 1 1 3 4 9 8 9 8 7 6 8 5 5 4 4 6 8 8
10 3 4 9 7 9 11 14 13 9 5 5 3 4 6 6 3 5 13 11 13 10 5 4 4 4 6 4 8 20 21 17 10 12 10 8 6 7 5 6 7 8 7 7
2 3 4 5 4 3 4 3 3 4 5 3 3 2 3 9 4 4 8 8 3 5 4 3 4 3 4 6 9 5 6 6 10 11 9 7 5 5 6 7 7 7 7 7
6 6 1 2 2 1 3 1 6 3 4 4 4 5 3 6 3 2 3 4 2 3 5 5 3 3 8 5 5 9 10 8 8 9 6 5 4 5 6 7 8 10 11 12
6 2 3 4 3 1 1 0 3 4 3 6 6 10 5 6 3 2 4 1 2 2 2 4 2 3 2 8 8 7 6 5 4 5 5 6 8 9 11 10 10 11 13 13
2 2 6 4 2 2 2 2 3 4 3 3 3 5 10 6 6 3 3 2 1 2 5 2 2 1 6 5 5 5 4 3 3 1 3 5 7 9 10 11 13 14 14 15
5 2 3 2 3 1 3 2 3 2 2 5 7 5 4 3 4 4 2 2 1 2 1 2 2 3 5 5 7 7 5 4 2 2 1 2 3 5 7 8 10 12 13 13
3 4 2 4 3 4 3 1 1 6 7 12 15 7 3 4 2 1 2 1 1 2 2 3 1 7 9 9 8 6 6 5 6 6 6 6 7 7 7 7 8 9 10 10
3 3 4 4 5 2 3 5 5 7 10 11 8 6 4 2 2 1 1 2 2 2 1 1 6 3 8 8 8 7 7 6 5 5 5 6 6 7 8 8 9 11 10 10
4 4 3 4 1 3 1 2 7 8 10 11 4 2 2 2 2 1 2 2 2 2 3 12 5 3 6 7 7 7 5 4 4 4 4 5 7 8 8 9 10 10 11 11
3 5 7 4 3 3 7 7 8 8 6 2 3 3 2 3 2 2 1 2 2 7 10 7 2 3 4 6 7 6 3 1 2 4 5 7 7 8 8 8 9 9 9 10

GFSNW_850_spd_078.txt.gz
Wind_Speed
19 21 24 25 24 19 4 3 3 12 10 7 1 2 5 5 5 3 5 2 4 4 3 4 3 2 2 8 2 4 3 4 5 2 4 4 4 5 6 4 4 2 4 5
17 20 23 23 23 20 6 4 3 5 7 3 2 4 5 3 3 3 2 4 2 4 3 3 2 1 3 7 2 3 4 2 4 2 2 4 4 6 7 3 3 5 5 5
16 18 20 21 21 20 8 3 2 1 3 0 2 2 4 5 5 5 6 4 6 5 5 5 3 1 2 5 2 1 4 3 5 6 4 5 6 8 9 5 3 2 5 4
15 16 18 20 21 16 6 4 2 2 3 3 3 2 2 3 5 3 7 2 4 2 3 2 2 1 2 3 4 2 3 3 3 2 5 4 5 7 10 8 6 5 3 7
16 17 19 20 21 19 10 6 5 4 6 10 3 4 4 3 2 2 4 3 7 2 1 2 1 4 1 2 3 3 3 2 2 4 1 1 2 6 8 6 5 3 4 6
16 17 18 21 21 20 9 8 4 3 6 3 0 4 4 6 2 7 8 5 3 4 3 5 8 8 7 1 3 1 2 4 3 3 1 1 5 10 9 5 5 7 6 7
13 15 17 19 21 20 16 13 8 5 4 4 4 6 8 8 4 3 10 13 3 2 5 9 7 3 4 3 2 3 4 4 2 2 2 2 5 1 7 9 6 8 3 4
14 14 15 18 21 19 16 13 7 2 4 6 8 12 6 17 15 6 9 7 6 5 5 0 2 2 2 2 2 4 3 3 2 3 3 5 3 3 4 6 7 8 8 5
14 13 14 15 18 19 16 12 9 5 5 4 5 7 11 3 5 5 4 3 4 2 1 1 3 3 3 4 4 4 5 4 3 2 2 4 2 1 2 4 4 4 11 7
15 16 14 15 16 18 17 11 11 7 5 8 4 4 4 13 7 6 5 7 4 2 1 2 3 3 2 3 5 4 2 1 4 2 1 6 4 2 5 1 4 1 10 15
18 20 18 19 18 16 17 13 11 9 6 23 6 1 3 10 7 3 11 9 2 1 2 2 3 2 3 2 3 5 5 5 3 3 3 5 4 3 3 3 3 4 8 8
19 18 20 21 18 18 15 14 10 11 14 25 33 32 24 23 28 17 7 8 11 3 1 2 1 1 2 2 2 1 2 5 4 6 5 5 9 3 5 8 6 4 4 4
20 21 20 19 23 15 17 12 13 14 14 23 10 9 2 10 9 9 11 9 4 5 7 1 1 2 3 2 4 0 2 3 2 1 2 5 9 6 6 5 4 4 4 5
16 17 17 17 15 19 10 12 11 11 10 5 9 7 27 21 15 14 18 22 14 11 10 4 1 2 2 2 2 2 4 4 3 3 5 2 5 9 7 5 6 6 4 2
13 10 10 11 8 11 9 14 12 12 8 5 14 29 6 12 8 21 28 23 21 16 6 3 2 3 1 1 1 3 5 5 4 4 4 4 4 11 9 7 6 4 3 3
8 8 6 8 10 13 9 1 3 1 6 6 4 11 9 12 13 9 12 23 18 9 6 5 5 5 1 2 2 6 9 10 14 6 6 3 8 10 9 7 5 3 3 4
8 9 2 4 4 9 5 3 3 5 8 2 4 6 6 14 6 2 6 14 11 8 6 6 4 5 4 2 3 6 7 9 8 10 10 8 12 7 9 6 5 4 5 6
7 3 5 2 6 7 8 8 8 9 1 1 2 4 7 8 5 0 7 7 10 11 5 4 5 4 5 4 11 22 17 13 8 10 11 6 11 11 9 7 6 7 8 8
3 4 4 4 3 3 2 0 1 2 2 1 1 2 4 10 4 3 7 5 3 5 3 4 5 3 5 7 15 15 7 5 7 12 9 8 8 8 8 7 7 7 7 8
5 3 2 2 2 3 1 1 1 3 1 1 3 4 3 6 4 3 2 5 2 3 5 4 3 3 15 9 7 9 8 7 10 12 9 8 7 6 5 5 7 9 10 11
3 2 2 2 3 3 1 1 1 3 0 4 5 8 5 7 3 3 3 1 2 2 2 4 3 3 2 1 4 5 5 5 5 6 5 5 5 6 7 8 9 10 11 12
3 0 2 2 3 3 2 1 3 3 3 3 3 5 9 6 6 4 3 2 2 3 5 2 2 1 2 2 3 4 3 3 4 4 3 3 4 5 7 9 10 11 13 14
2 3 3 2 3 2 3 3 3 0 1 3 9 6 5 4 5 5 2 3 2 0 2 2 2 0 3 4 5 5 5 4 4 4 2 1 1 2 4 5 7 10 11 11
3 4 0 3 4 4 4 3 2 0 3 13 15 7 4 4 3 2 3 1 1 1 1 3 2 8 4 5 6 5 4 3 5 6 5 5 5 4 4 5 6 8 9 9
3 4 4 5 8 3 2 2 2 4 5 10 10 7 5 2 3 1 3 2 2 2 1 2 11 7 3 5 5 4 5 6 5 4 4 6 8 8 8 8 8 9 9 10
5 5 3 5 2 3 3 4 2 3 4 7 5 3 3 2 2 2 3 2 2 3 2 11 8 2 2 3 5 6 5 4 3 4 3 4 6 8 8 9 10 11 10 10
4 4 10 7 4 4 3 2 2 3 3 1 1 3 2 3 2 3 1 1 2 7 11 7 4 3 2 4 5 5 4 2 2 2 4 5 7 8 9 9 9 10 10 11

GFSNW_850_spd_084.txt.gz
Wind_Speed
11 14 17 21 22 24 21 5 2 3 9 3 0 1 3 4 5 2 4 3 3 3 2 5 5 4 2 9 11 8 6 3 3 2 2 6 1 4 4 4 3 3 3 5
10 13 16 20 24 25 23 10 3 2 5 0 3 7 5 4 3 3 4 4 5 2 3 3 2 1 2 10 9 6 6 2 4 4 2 2 2 3 4 5 3 6 4 4
9 13 18 22 24 24 20 6 3 2 1 4 3 4 5 5 11 5 2 4 3 3 2 3 1 1 2 9 7 12 4 2 3 4 3 5 5 5 6 6 3 4 6 6
9 14 17 21 22 22 15 9 2 2 4 4 6 4 3 6 5 5 6 1 4 3 4 5 3 1 4 5 3 3 3 3 2 2 1 2 2 5 10 9 8 8 2 9
10 14 18 20 21 19 11 7 6 4 4 10 5 6 6 8 8 6 9 5 11 3 3 1 3 2 3 3 2 2 2 1 3 1 3 2 3 7 10 13 10 7 11 12
10 13 15 17 19 17 10 11 8 4 4 6 3 1 4 6 10 10 9 14 8 10 6 5 4 2 2 2 1 3 2 4 2 2 0 0 5 7 12 7 5 12 9 14
9 12 12 15 14 18 15 12 6 2 3 2 2 5 5 9 11 8 15 17 2 8 22 17 5 4 2 2 1 1 3 3 2 2 1 1 4 1 5 10 4 11 8 4
9 10 8 12 12 14 15 14 8 2 3 4 6 6 6 16 20 5 9 5 12 22 12 2 2 2 0 2 4 2 2 3 3 2 1 6 2 1 3 5 5 11 14 14
10 10 4 7 7 10 13 12 10 4 2 3 7 5 7 4 5 6 4 15 14 12 2 2 3 3 3 3 2 3 4 4 4 1 2 3 2 3 3 3 4 2 7 9
11 6 5 7 8 10 10 10 11 6 4 4 5 3 4 7 4 3 7 15 13 12 1 1 1 2 2 2 5 4 2 1 4 3 2 6 5 3 5 3 4 7 6 9
7 7 9 10 10 10 9 10 11 6 5 15 7 9 11 14 5 3 12 7 7 5 3 1 0 1 0 1 2 4 5 4 3 3 1 6 3 2 3 4 3 4 5 2
7 11 13 11 10 10 7 8 10 6 7 13 25 15 12 11 12 11 5 6 6 1 3 4 2 1 1 1 0 1 1 4 4 6 5 5 4 5 4 4 0 1 4 4
8 9 7 6 7 9 7 5 5 11 6 15 6 1 3 4 9 13 5 3 3 4 6 3 3 2 1 1 2 1 2 3 2 1 2 4 7 7 5 3 2 1 3 6
6 5 4 3 3 4 4 4 6 9 5 3 6 9 12 7 6 8 12 13 12 11 9 3 2 3 1 2 2 2 3 2 2 3 6 7 10 8 6 4 3 3 4 4
5 4 3 1 3 7 6 2 7 8 3 3 10 8 3 6 13 11 10 11 14 8 3 2 2 4 3 1 1 3 5 4 3 4 3 3 5 4 7 5 5 4 2 2
7 6 5 5 8 9 4 1 2 2 1 2 3 7 3 8 9 9 7 10 11 5 2 4 5 5 3 2 2 5 4 4 6 4 7 6 5 1 5 6 6 3 2 1
8 7 7 8 13 8 2 2 1 4 4 1 5 9 4 9 7 5 1 5 5 6 4 5 4 3 2 2 4 7 8 9 14 12 6 4 5 1 5 5 5 3 1 2
10 9 9 15 12 6 3 1 3 1 1 2 2 4 8 7 5 3 2 4 5 5 4 3 4 3 4 3 11 19 20 16 13 11 8 6 3 5 6 6 5 3 3 3
14 11 14 11 6 5 3 3 1 1 1 2 1 1 3 10 3 4 4 5 3 4 3 4 2 2 4 5 6 8 9 7 9 7 7 7 4 5 5 4 4 5 5 6
15 14 5 5 6 8 5 2 1 0 1 1 1 2 3 6 4 3 3 5 2 3 4 4 3 3 8 6 6 7 8 6 2 3 3 4 4 3 3 3 4 5 7 9
13 6 5 12 9 4 2 1 1 2 2 3 4 6 3 5 2 2 4 2 1 2 3 2 2 2 3 8 6 4 2 2 2 4 3 3 3 3 4 4 6 9 10 12
10 10 16 10 4 3 1 1 2 2 3 4 3 3 6 5 4 3 3 2 1 4 1 2 2 1 10 9 6 3 1 0 1 2 1 1 1 2 4 5 6 7 8 9
14 5 5 5 3 2 5 5 3 1 4 3 2 4 4 3 4 5 2 3 4 3 2 2 1 11 16 9 4 2 1 1 1 2 2 2 2 3 2 2 3 5 7 9
4 5 5 4 2 4 4 4 4 4 4 1 3 5 4 3 3 3 3 2 2 2 2 2 2 16 14 7 4 2 2 1 2 4 6 5 4 5 5 6 6 7 9 10
4 4 4 4 5 3 3 8 4 4 2 1 2 5 5 2 3 2 2 2 3 1 2 2 13 13 9 6 4 4 2 1 2 2 1 0 2 5 8 7 8 9 10 11
4 4 4 5 3 3 7 8 7 7 4 1 3 2 2 3 2 2 4 1 2 2 2 11 11 9 9 7 4 2 1 0 1 1 2 4 5 7 8 8 10 11 12 12
4 2 8 10 2 4 8 9 8 8 4 2 2 3 3 3 2 3 2 2 1 4 5 9 10 11 11 8 5 3 3 2 2 4 4 5 6 8 9 10 11 12 13 13

GFSNW_850_spd_087.txt.gz
Wind_Speed
7 11 14 18 20 23 22 9 2 2 5 3 1 1 4 7 6 4 5 2 5 4 3 3 4 5 4 11 13 8 6 1 4 1 1 5 0 4 3 4 4 2 2 3
6 9 13 17 20 21 22 13 2 1 5 3 3 6 6 5 5 4 4 3 5 3 2 2 2 3 6 12 10 7 4 2 4 3 2 4 3 2 4 4 3 6 5 4
4 8 12 16 19 20 19 6 3 2 4 4 2 5 5 7 15 5 11 5 4 3 2 3 0 1 4 12 4 5 2 2 2 4 4 4 5 6 6 5 3 6 4 5
3 8 13 16 18 18 11 6 2 2 3 4 3 4 4 6 10 8 11 7 14 11 3 2 3 2 4 2 7 2 1 2 2 3 1 3 1 3 7 6 5 6 6 8
4 6 11 15 17 14 10 3 1 0 1 5 4 5 4 5 7 4 8 7 17 9 8 6 3 1 2 0 4 4 1 2 1 3 2 2 2 5 7 9 5 4 3 9
4 6 10 14 15 13 6 5 4 1 2 3 3 2 4 5 11 6 8 13 10 7 7 21 21 14 3 4 3 2 2 3 2 2 2 2 5 5 7 4 4 7 8 8
4 4 8 11 11 17 14 9 4 2 1 1 2 4 3 6 11 6 16 16 4 7 24 28 8 10 3 5 1 1 3 3 2 1 2 1 3 1 3 7 3 8 6 4
4 2 6 8 12 10 13 13 6 3 1 2 2 7 3 12 13 5 5 14 15 17 10 3 3 3 2 3 4 3 2 3 3 2 2 5 2 1 2 2 4 4 11 11
6 2 2 4 4 5 8 13 10 3 3 2 3 2 4 3 4 5 4 14 14 13 2 1 1 2 1 2 1 2 4 4 3 1 1 2 2 2 2 2 3 2 4 7
7 2 2 1 2 2 3 6 12 5 2 1 2 1 1 2 4 3 5 15 11 14 3 2 1 1 2 1 3 2 1 2 3 3 1 5 5 4 4 2 3 7 6 7
7 4 4 5 6 5 2 4 4 3 3 6 3 7 6 4 1 2 10 4 4 5 5 3 2 1 2 2 2 2 3 4 2 2 1 5 3 1 1 4 4 4 7 4
8 7 6 8 10 9 5 1 2 5 4 4 12 6 4 4 6 5 4 2 3 2 2 2 3 2 1 1 1 1 1 4 4 6 5 4 4 6 3 5 4 3 6 5
9 7 8 6 9 9 7 5 2 5 3 4 3 4 5 4 4 8 2 2 1 2 3 3 2 2 2 0 1 2 2 3 1 1 1 4 5 6 6 3 2 3 2 5
9 9 6 5 8 11 8 6 3 2 2 0 1 4 5 5 4 5 4 8 10 7 9 3 2 2 2 2 2 2 2 2 2 3 5 8 5 6 4 4 3 3 3 3
10 9 7 8 10 12 12 6 4 2 1 2 5 2 4 2 6 9 7 6 9 6 2 2 2 5 2 2 1 3 4 3 3 3 3 3 5 8 5 4 5 5 4 3
15 11 11 11 13 14 9 3 3 3 2 1 1 2 2 4 8 6 4 3 5 2 2 5 6 5 3 2 2 5 3 1 1 3 11 9 8 4 3 4 6 5 4 3
17 14 14 15 16 11 3 3 5 1 1 2 2 5 1 7 5 4 3 4 3 3 3 4 4 4 3 2 2 6 2 5 16 15 9 6 4 1 2 4 5 4 3 1
19 19 17 17 14 9 4 5 5 3 1 3 2 3 2 9 4 2 0 2 3 4 4 3 4 3 1 3 8 13 16 14 10 8 5 6 2 3 4 5 4 3 1 1
24 23 21 19 8 5 7 8 4 2 3 3 2 2 2 7 3 3 2 3 2 4 4 4 3 2 4 3 8 11 10 8 12 9 4 5 4 4 4 4 3 2 2 4
26 26 7 5 8 13 12 4 2 1 2 3 1 1 2 4 3 2 4 3 1 2 4 3 3 3 3 6 9 10 11 10 7 4 2 3 4 4 3 2 1 3 5 7
23 8 5 19 12 3 2 2 1 2 1 2 3 3 2 1 0 2 2 2 1 2 2 1 2 1 3 13 11 8 7 5 4 3 2 2 4 5 4 2 3 5 6 7
12 12 21 14 4 2 3 1 1 2 3 5 4 3 2 2 3 2 3 2 1 4 1 2 2 1 14 14 10 7 6 4 2 2 2 2 3 3 2 1 1 2 4 5
21 6 6 6 4 2 6 7 3 3 6 7 5 1 1 2 4 3 2 3 4 2 2 2 1 7 14 12 8 7 5 3 2 1 2 3 4 5 4 3 3 4 6 8
4 7 6 4 4 4 4 4 4 5 10 11 6 2 3 3 2 3 3 3 2 2 1 2 1 14 14 10 8 6 5 3 2 1 3 5 6 6 7 6 5 5 6 7
4 5 5 6 4 3 7 8 9 9 10 8 5 3 2 2 3 2 2 2 3 2 2 2 12 12 11 9 6 5 4 1 0 0 1 1 3 5 4 5 6 7 8 9
4 4 4 5 5 3 8 9 7 11 10 8 4 2 2 4 1 1 4 2 4 3 2 3 7 8 9 9 6 3 2 2 1 1 1 3 3 3 4 5 6 8 9 10
4 2 5 9 3 10 11 13 12 15 11 3 3 3 8 1 2 3 3 4 3 6 6 1 3 7 10 10 7 4 3 3 3 4 1 4 5 6 7 8 8 9 10 11

GFSNW_850_spd_090.txt.gz
Wind_Speed
5 1 5 9 14 18 17 4 1 2 5 2 1 5 9 10 10 7 5 2 2 4 3 2 3 6 4 12 13 7 6 1 2 5 2 4 3 6 3 2 3 2 3 5
6 2 4 9 13 17 17 4 2 4 6 3 4 8 6 4 14 11 9 7 6 6 3 4 3 1 7 12 8 4 4 2 5 7 3 1 4 4 3 4 1 2 1 5
7 2 3 8 12 15 14 2 1 3 4 4 2 4 5 11 13 3 11 6 9 15 6 4 5 6 4 9 5 2 5 1 3 2 5 7 4 10 10 4 3 5 4 2
9 3 2 7 11 12 8 3 2 2 2 3 4 2 7 9 11 7 14 4 13 7 5 9 7 7 3 7 5 4 2 1 2 4 4 3 5 10 11 6 4 5 5 10
9 5 3 5 9 9 5 2 4 3 3 1 2 6 8 10 10 3 5 8 11 1 2 2 5 8 3 1 5 1 3 0 1 2 3 3 3 6 12 12 10 11 7 14
10 6 1 6 8 6 3 4 5 5 0 0 1 3 5 7 9 1 5 9 7 3 2 14 15 9 13 5 2 1 0 0 1 2 3 4 2 2 8 5 5 9 10 10
12 6 1 5 6 5 8 8 7 4 2 1 2 2 4 6 8 4 7 7 7 5 19 17 6 5 7 5 2 2 2 1 1 1 0 2 4 2 2 7 6 11 10 9
13 8 2 3 5 8 10 9 5 4 3 1 1 4 3 5 5 2 3 6 9 13 9 2 1 1 3 2 3 1 1 1 2 1 2 2 3 2 1 1 3 1 7 8
15 9 4 2 1 4 9 9 8 5 6 2 0 2 4 3 6 2 3 7 7 6 2 1 2 2 0 3 2 1 2 2 0 1 2 0 3 2 1 2 3 2 4 7
16 11 7 6 4 2 6 7 8 5 4 3 2 0 1 3 3 2 4 10 9 6 2 2 1 2 2 1 2 3 2 2 3 2 1 2 1 1 4 3 3 4 4 7
20 13 9 8 5 6 6 3 5 5 3 3 2 2 2 3 2 3 7 2 4 5 3 3 2 2 2 1 0 2 2 4 2 2 2 3 2 1 2 2 4 3 4 2
20 15 10 9 7 8 7 6 4 4 4 4 1 3 2 5 6 2 4 2 1 4 2 2 2 2 2 2 2 1 3 2 0 3 0 2 3 6 3 3 4 3 2 4
20 16 12 10 11 11 8 7 6 3 5 4 4 3 2 1 1 1 1 1 1 3 4 2 2 2 3 2 1 3 2 2 2 2 2 3 3 4 5 4 2 1 3 5
20 16 14 12 16 14 12 8 6 4 5 2 3 3 5 5 4 1 2 4 3 4 2 1 2 3 0 2 4 3 2 2 2 3 1 3 5 5 3 3 2 2 3 4
22 17 16 17 18 15 13 9 6 3 3 2 5 5 4 1 1 2 3 6 5 1 2 2 3 3 2 2 3 4 3 1 2 2 4 5 6 10 3 3 5 5 3 4
20 19 17 21 14 17 13 5 7 5 2 3 3 4 6 1 1 2 1 5 4 2 2 3 4 4 2 2 3 3 3 2 4 4 12 11 11 5 1 5 5 5 2 2
23 20 21 21 18 17 4 4 7 6 3 2 3 3 3 1 4 1 2 5 2 3 2 3 3 3 2 2 3 8 11 11 15 11 10 7 4 3 3 5 7 6 6 4
25 24 26 22 18 10 6 8 7 5 3 3 2 2 2 2 2 3 3 3 3 4 3 3 3 3 3 4 4 9 12 15 9 8 7 8 7 4 5 7 7 6 4 2
31 32 27 21 10 6 8 10 6 3 3 3 1 3 3 0 0 2 3 4 1 4 3 3 3 2 4 2 6 10 12 9 15 14 8 6 7 6 6 6 6 5 3 2
35 33 8 6 8 13 13 4 2 1 2 1 2 3 1 1 1 3 1 3 1 2 3 3 3 3 1 3 9 12 12 11 12 11 5 4 5 7 7 7 6 4 4 4
30 9 6 23 17 5 2 2 1 2 1 3 3 5 1 2 1 1 1 0 1 2 1 2 2 2 1 9 13 11 10 9 8 7 6 6 6 7 7 5 4 3 4 4
14 15 23 17 5 3 2 2 2 4 3 6 5 4 4 2 2 2 1 0 1 3 1 2 2 2 7 11 11 9 8 7 6 5 4 4 5 7 6 5 3 2 1 2
24 6 7 7 4 3 6 8 4 3 8 9 7 4 4 3 3 1 1 1 3 0 2 2 0 3 7 9 8 7 7 4 3 3 3 4 4 5 4 3 2 2 3 4
6 7 7 5 4 5 5 4 4 5 10 15 11 4 3 3 3 3 3 2 1 3 3 2 1 6 9 8 7 6 6 4 3 2 3 4 7 6 5 4 3 3 4 5
5 6 5 5 4 3 8 9 9 8 17 16 8 4 2 2 2 2 1 2 4 4 2 0 3 5 7 6 5 4 4 3 2 2 2 1 4 5 6 2 3 4 4 5
4 4 5 5 5 3 8 9 10 17 17 11 5 3 3 3 2 3 5 2 5 2 2 5 1 3 5 7 6 4 3 3 2 3 5 5 3 2 2 1 3 5 6 7
5 3 5 9 4 9 10 12 13 19 16 3 4 5 6 2 3 3 4 4 2 7 9 7 4 2 4 7 8 8 5 5 5 6 5 5 3 4 5 6 6 7 8 9

GFSNW_850_spd_093.txt.gz
Wind_Speed
13 9 5 2 6 11 8 0 1 3 4 1 2 4 6 7 13 11 5 6 4 4 4 4 3 3 3 5 11 5 3 2 4 2 4 6 3 6 8 3 3 2 3 5
14 10 6 1 4 8 7 0 2 6 7 3 4 7 4 7 9 7 7 5 4 9 3 3 6 2 5 6 9 1 6 2 4 5 3 2 4 6 7 1 3 1 4 6
15 12 7 1 3 6 5 2 2 2 2 2 3 5 5 8 5 4 7 4 2 8 8 6 6 7 3 2 1 7 6 0 3 3 5 9 5 11 11 2 2 2 4 6
16 12 7 3 1 4 2 2 2 3 1 2 2 3 5 8 7 5 9 1 9 3 6 5 6 6 5 5 4 4 3 2 2 4 5 5 8 12 12 5 5 3 5 6
19 14 8 4 1 3 2 2 4 2 4 2 3 3 5 7 6 3 4 6 9 3 4 3 4 8 2 1 3 3 3 2 1 2 3 1 3 5 10 8 10 12 12 16
20 15 10 5 2 3 4 5 7 3 5 3 2 3 5 4 7 2 4 7 7 2 3 12 12 10 13 4 2 3 2 1 2 3 2 3 2 6 8 7 6 10 11 9
22 16 11 6 3 2 6 8 10 5 4 3 1 1 3 5 3 3 4 5 5 6 15 13 7 10 9 8 6 4 6 3 1 1 3 4 4 2 1 8 5 8 11 10
24 17 10 8 5 4 7 11 7 5 4 3 4 1 3 2 1 2 4 4 8 13 8 2 2 4 4 3 2 3 3 5 1 2 2 5 4 4 1 3 3 1 5 6
25 20 14 11 6 5 7 9 9 4 5 3 4 3 0 1 2 4 1 3 6 5 2 3 2 1 3 2 3 0 3 4 4 1 2 1 6 3 0 2 4 0 4 7
25 20 15 12 8 7 7 9 9 5 5 4 3 1 1 1 1 2 1 4 5 3 3 1 2 1 2 2 2 1 1 2 5 3 2 2 4 3 3 4 3 3 5 8
26 23 17 14 10 8 8 9 8 8 3 5 4 2 2 0 1 2 4 2 2 2 3 1 2 2 3 3 1 3 2 2 2 2 2 2 3 3 4 5 3 3 4 4
31 24 19 15 11 9 9 9 7 10 6 5 5 3 3 4 2 2 3 2 2 1 2 2 2 2 1 3 1 2 2 2 4 3 3 3 1 4 4 4 5 3 4 4
31 26 20 15 12 9 9 10 8 10 7 5 3 1 2 1 2 2 3 1 0 1 2 1 1 3 2 2 2 5 2 1 3 3 4 3 3 3 3 2 2 1 2 2
31 25 21 17 14 10 10 8 8 8 6 2 3 5 5 5 2 1 3 3 3 2 2 1 2 2 1 2 3 5 3 2 3 6 1 3 5 8 5 1 1 1 2 3
30 25 21 18 16 14 13 9 8 8 5 3 4 5 5 2 1 2 3 4 3 3 3 3 2 2 3 2 3 7 3 4 2 1 8 7 6 11 8 2 2 3 3 2
30 22 21 19 16 15 14 5 8 7 10 4 4 4 4 2 0 1 1 3 3 3 2 2 2 3 3 3 3 5 4 3 7 6 14 12 12 9 6 2 4 5 6 4
28 25 24 19 18 20 5 4 4 10 8 3 4 4 3 4 4 1 1 3 1 3 3 3 2 2 3 3 4 4 7 9 10 7 12 4 5 4 6 5 6 6 5 5
32 28 24 22 22 14 6 7 9 8 4 4 2 3 4 5 4 3 3 1 1 3 3 2 3 2 4 4 7 6 8 11 4 8 9 11 11 9 7 6 6 6 5 4
34 31 29 23 14 6 8 9 6 4 2 3 3 5 3 6 3 3 3 3 2 2 3 3 2 2 5 3 4 8 11 9 13 16 13 9 7 6 7 6 6 5 5 5
38 36 10 7 9 10 13 4 2 0 1 1 2 2 3 3 4 4 3 3 2 2 4 3 3 4 4 1 5 9 12 12 13 13 7 7 6 5 5 6 7 7 6 5
35 11 5 18 22 7 2 3 2 2 2 5 4 5 4 3 2 2 2 1 1 2 2 2 2 3 3 3 8 9 10 11 10 11 11 9 9 8 7 6 6 6 6 6
19 15 25 18 5 3 2 3 3 4 3 6 6 4 3 4 4 1 3 2 2 3 3 2 3 2 1 5 9 9 8 10 9 8 9 9 8 8 9 8 6 5 4 4
30 8 8 8 4 3 6 8 4 4 9 10 8 5 4 3 3 2 1 3 3 2 2 3 2 4 2 5 7 8 8 6 8 8 6 7 7 6 5 4 3 1 4 5
7 8 6 6 5 5 5 3 4 5 11 19 14 8 3 3 3 2 2 2 1 3 3 4 3 4 3 3 4 6 7 7 6 6 7 6 7 5 4 2 1 2 3 6
5 5 5 5 5 4 6 9 9 9 19 16 11 6 3 2 2 3 1 3 4 5 3 2 4 3 1 3 4 3 4 4 5 6 6 6 5 5 6 7 1 4 5 6
3 3 5 7 6 4 6 8 11 18 18 12 6 4 3 3 2 4 6 3 5 2 2 7 8 5 2 2 4 5 4 4 4 5 6 8 8 6 4 4 6 5 6 9
3 2 6 8 6 7 8 12 12 20 12 3 4 5 5 3 3 4 4 5 1 2 7 9 8 5 3 4 6 7 7 6 7 8 8 8 9 10 8 6 8 9 9 10

GFSNW_850_spd_096.txt.gz
Wind_Speed
19 17 14 9 5 1 3 4 1 3 3 1 2 2 2 4 9 9 3 4 3 3 5 3 2 2 1 3 6 1 3 0 3 2 2 3 4 6 3 2 5 3 3 1
20 18 16 10 6 2 4 2 2 3 3 2 1 4 3 5 6 5 5 3 1 6 3 3 4 1 6 6 5 1 3 1 3 3 2 3 2 4 3 0 1 2 1 2
20 19 16 12 8 5 5 4 2 1 1 2 2 3 1 5 6 2 6 3 5 7 5 7 4 3 5 4 7 7 3 1 2 1 3 6 4 6 8 4 1 4 3 2
21 21 18 14 10 7 7 5 3 3 2 3 1 1 2 6 5 3 4 3 8 1 4 3 6 6 5 6 5 4 2 2 1 3 3 4 4 7 12 5 4 2 3 3
23 23 18 15 12 10 7 6 5 4 5 4 5 3 5 4 4 3 2 3 5 3 3 2 3 5 3 2 3 4 4 3 0 3 2 3 3 7 7 4 6 6 5 3
24 24 20 16 13 12 6 7 10 7 6 4 2 2 3 3 3 3 3 4 5 1 2 7 9 6 8 6 2 2 2 2 1 1 1 2 2 4 6 2 3 2 4 2
27 26 22 16 13 11 9 8 12 5 3 2 3 3 2 0 1 3 3 3 5 5 12 10 7 9 10 13 11 12 5 5 1 1 2 1 2 5 5 3 3 2 5 5
31 29 22 14 10 8 10 11 8 5 3 8 4 5 2 3 4 5 5 3 4 11 5 3 3 3 3 6 3 4 3 3 2 1 2 3 2 2 1 0 1 3 3 5
31 28 21 16 11 8 10 12 10 6 8 2 6 6 2 0 2 4 3 1 5 2 2 2 2 2 1 3 4 4 3 4 2 2 1 1 2 2 4 3 1 4 4 5
35 28 24 19 13 10 12 12 11 9 7 4 5 2 3 2 1 1 3 4 4 1 2 1 1 2 0 0 2 3 2 2 3 3 1 2 3 3 0 1 2 4 5 5
37 31 25 19 14 12 12 12 12 12 7 7 5 5 5 3 1 2 3 2 3 3 2 1 0 2 3 3 3 1 1 2 3 1 0 1 3 2 2 2 2 4 6 5
36 33 23 20 13 13 13 12 12 13 8 9 9 6 4 8 4 2 3 3 3 2 1 2 1 2 2 3 1 1 2 2 1 2 0 2 2 1 2 3 4 3 4 4
42 35 27 20 14 14 12 13 16 17 12 11 6 3 4 3 3 5 2 4 2 1 0 1 1 3 2 2 2 4 3 3 2 2 3 5 8 5 5 3 2 0 3 5
42 36 26 20 15 15 13 13 16 12 8 6 3 5 4 6 4 2 3 4 2 1 2 2 2 2 0 2 3 2 4 5 3 0 8 7 12 10 7 3 2 1 1 2
42 33 25 20 17 16 13 11 10 11 6 4 7 7 5 3 2 1 2 4 3 1 2 3 2 2 1 3 2 4 5 4 3 1 8 8 5 12 8 3 1 3 2 3
37 31 25 21 16 14 13 5 6 10 11 6 3 4 6 4 3 2 3 3 2 1 2 2 3 3 1 2 2 6 10 8 9 5 10 11 11 7 7 2 4 5 7 4
35 30 27 20 17 18 5 4 7 12 9 5 5 4 5 6 5 3 3 4 1 1 2 3 3 2 3 2 3 6 9 6 7 2 10 3 6 9 11 6 5 5 6 5
36 31 26 22 19 15 6 9 15 12 4 4 3 2 5 7 4 3 2 2 0 3 2 2 3 2 4 3 3 8 6 10 1 6 7 9 13 11 10 6 4 4 4 3
38 33 28 21 12 6 8 10 9 9 2 4 2 4 3 9 4 3 3 2 2 3 2 2 1 3 4 3 3 2 5 5 10 15 13 5 5 7 9 6 5 5 5 5
39 35 9 6 10 9 13 5 3 2 2 3 2 5 3 7 6 4 4 3 1 1 4 3 2 4 7 5 2 4 6 8 10 9 8 13 10 4 5 6 7 7 7 7
32 10 6 19 21 6 3 3 2 3 2 5 4 3 5 4 3 2 3 1 1 2 2 1 2 3 4 6 4 6 7 6 8 8 8 7 10 12 5 7 6 6 7 6
24 20 27 18 5 4 2 2 3 3 4 9 7 5 8 6 5 3 3 2 1 2 3 1 3 1 6 4 6 6 6 7 7 7 7 6 7 8 6 7 7 5 2 3
37 11 7 7 4 3 6 8 4 3 10 12 11 5 5 5 4 3 2 3 3 4 2 3 3 7 5 4 4 4 5 5 6 5 6 5 5 4 5 5 5 5 4 1
9 11 7 6 5 5 4 2 4 5 13 22 20 10 5 4 4 3 3 3 1 2 3 4 3 9 5 4 2 3 4 5 5 4 4 4 5 5 4 4 2 2 2 4
5 6 5 4 7 6 10 13 11 12 25 20 14 8 6 3 3 3 2 3 4 5 4 2 10 7 5 2 1 2 3 4 4 3 3 4 4 4 4 6 7 7 3 4
3 4 5 8 6 4 8 12 15 23 20 14 7 3 3 3 4 4 5 4 5 4 2 7 10 9 4 1 3 5 5 4 5 4 3 4 3 3 4 4 2 2 3 6
4 3 8 7 11 9 10 15 17 23 11 2 4 5 6 3 4 4 4 5 3 4 7 10 9 7 4 4 7 8 9 9 8 7 7 6 6 6 5 5 7 4 6 8

GFSNW_850_spd_099.txt.gz
Wind_Speed
26 24 21 18 14 10 12 8 2 3 3 3 3 2 2 1 5 9 1 3 2 1 2 3 2 0 2 15 2 3 2 2 1 2 5 4 3 3 2 3 3 0 3 3
27 24 23 20 15 14 13 9 4 5 2 3 1 2 1 4 2 3 4 2 3 2 1 1 3 3 8 11 4 2 2 2 2 2 2 2 3 3 2 2 1 1 2 3
29 26 24 21 16 15 12 7 2 3 2 3 6 4 1 4 2 1 4 2 5 3 4 6 3 4 4 10 5 6 7 1 2 4 4 4 4 5 5 4 3 1 2 1
29 28 25 21 16 14 13 6 2 4 2 2 5 4 3 3 1 1 2 2 4 3 3 3 3 3 4 5 8 6 1 0 1 5 4 4 4 5 7 4 3 3 2 5
33 29 26 23 18 18 14 7 5 5 5 9 5 3 1 3 1 0 2 3 3 4 3 2 2 1 2 2 3 3 2 2 2 3 2 3 2 6 6 3 2 2 5 2
31 29 27 23 20 20 8 9 10 8 6 3 4 3 4 4 4 1 3 2 3 2 2 3 5 5 6 5 3 2 1 2 2 3 3 4 3 1 5 3 1 2 3 3
33 30 28 25 22 21 10 11 14 6 2 3 4 5 4 5 4 3 2 1 2 2 9 9 4 8 12 10 12 10 3 2 1 2 2 0 3 2 3 4 2 2 2 1
38 30 27 24 19 20 14 11 8 6 3 7 5 8 5 8 5 3 3 1 2 9 3 1 2 2 2 5 7 5 7 2 3 1 1 1 1 1 2 2 2 2 3 4
42 39 30 23 18 19 16 15 11 6 13 2 7 6 7 4 4 2 2 1 3 1 1 1 2 2 3 1 0 2 1 2 3 3 1 1 2 1 2 2 1 2 5 3
43 38 29 24 20 15 15 16 14 8 9 5 13 3 5 6 4 3 4 1 1 1 1 2 1 2 2 2 3 3 1 0 3 1 1 3 0 1 1 4 3 2 5 3
43 35 29 25 24 15 18 16 17 10 9 9 6 7 6 8 5 4 3 3 2 2 1 1 1 1 1 2 1 2 3 3 2 1 2 2 1 2 2 2 4 5 4 3
43 35 29 27 22 17 17 18 16 11 10 10 9 8 7 5 8 8 4 5 3 1 0 1 1 1 0 2 1 4 1 2 2 4 3 2 4 4 4 3 2 2 2 3
47 37 37 28 21 19 17 19 19 16 20 14 7 6 7 6 5 8 5 4 4 3 2 1 1 1 2 1 2 3 5 6 0 2 6 5 11 10 8 5 2 1 2 3
50 41 42 25 19 17 15 20 22 15 11 7 4 7 8 8 6 5 5 13 10 7 4 0 1 1 2 1 2 1 4 6 2 2 5 5 12 14 12 6 4 0 2 3
51 46 41 25 18 19 19 17 19 13 4 6 9 8 7 6 5 6 8 10 12 5 3 1 2 2 2 2 0 3 3 1 2 2 2 3 8 15 10 6 2 0 1 3
50 44 31 23 19 20 21 7 10 11 14 8 3 5 7 6 6 6 8 10 7 4 2 1 2 1 0 1 2 3 7 8 7 0 5 7 9 1 7 5 4 4 4 2
43 36 27 22 21 21 5 6 14 17 10 6 5 3 5 8 7 5 6 6 4 3 2 1 3 2 2 1 2 4 1 3 0 2 4 7 2 7 10 7 5 5 6 6
38 33 26 22 19 14 9 12 18 16 5 5 4 1 5 9 4 3 3 3 2 2 1 1 2 2 2 3 4 5 2 2 6 3 5 7 11 9 9 8 5 6 6 6
40 34 27 21 11 6 10 16 13 10 3 6 3 5 4 11 5 4 4 3 1 4 2 2 3 2 4 6 8 5 4 4 8 12 7 5 4 3 4 7 6 7 7 7
42 33 11 6 11 14 15 5 4 3 2 3 3 7 3 9 6 5 5 3 1 2 3 4 2 3 12 9 8 7 6 7 8 10 8 9 8 6 6 4 6 6 8 7
36 10 6 22 21 5 3 3 2 2 2 5 4 5 6 6 4 3 3 3 3 2 2 3 2 3 5 10 6 4 7 7 7 8 9 8 9 10 7 5 8 7 7 7
26 17 25 15 5 4 3 1 1 3 4 8 7 7 8 6 4 3 3 3 2 3 6 1 3 3 8 10 7 6 4 5 6 8 7 7 7 7 6 7 8 8 8 7
36 12 6 7 4 2 7 7 3 3 10 11 13 4 7 6 3 3 3 4 4 7 2 3 4 7 12 9 6 3 2 3 5 6 6 6 6 5 5 7 7 7 6 4
7 7 6 5 4 5 4 3 4 6 12 25 23 8 5 5 3 3 4 2 2 2 2 5 3 15 13 9 6 3 2 2 4 6 6 5 5 6 6 6 6 6 4 4
5 6 5 5 5 5 9 15 11 11 28 27 14 8 6 2 3 2 2 4 4 5 5 3 8 14 13 10 7 5 4 4 4 5 4 5 5 6 7 5 5 5 5 4
4 2 4 8 6 3 7 15 17 25 28 15 6 4 4 3 4 4 6 5 6 4 3 6 13 13 12 8 5 3 3 4 5 5 5 5 5 5 5 6 4 4 3 2
4 2 8 5 9 9 12 17 21 27 17 2 4 5 5 3 3 3 3 5 3 6 6 8 11 12 9 6 5 5 6 7 9 8 7 7 7 8 8 7 5 7 7 5

GFSNW_850_spd_102.txt.gz
Wind_Speed
37 37 33 31 28 23 22 12 3 9 10 2 1 2 5 4 1 4 3 3 1 2 3 2 1 1 2 13 3 3 1 1 2 4 3 2 3 3 2 3 2 2 3 2
41 39 35 34 30 26 26 15 6 7 7 3 1 2 3 3 2 2 2 2 2 1 1 1 2 2 5 10 3 2 1 2 3 3 2 2 4 3 1 4 3 2 4 3
47 39 36 35 29 27 19 10 3 3 3 3 7 5 3 2 2 2 3 3 3 1 3 3 3 2 2 8 4 4 1 2 3 4 4 3 2 3 2 4 3 1 2 3
41 40 37 33 29 29 18 6 3 5 3 2 5 4 5 4 4 1 3 3 3 2 2 2 3 3 5 4 8 3 2 1 0 3 4 2 2 2 5 2 4 4 0 1
41 40 36 34 30 30 17 9 5 5 4 16 6 3 4 5 3 2 2 5 1 3 2 1 1 1 3 1 6 5 4 3 4 2 3 5 1 3 6 0 3 9 3 5
39 37 36 35 31 29 9 10 10 7 5 4 5 5 6 6 8 2 5 6 2 4 4 2 3 5 7 3 2 3 3 3 3 3 4 2 4 1 5 4 3 5 5 5
40 38 37 34 29 24 14 15 14 6 2 3 4 6 4 7 5 5 5 4 3 3 3 5 4 5 7 7 9 6 4 4 1 2 4 2 2 3 0 5 4 4 3 1
43 38 36 31 28 24 20 13 8 6 4 6 5 9 5 11 7 3 4 2 1 3 1 1 2 1 3 4 6 3 6 2 2 2 1 3 3 4 2 1 3 3 4 2
43 39 34 29 28 23 21 15 10 5 12 4 10 7 11 4 3 2 3 4 2 3 2 1 1 2 3 1 1 5 4 2 3 1 2 1 2 3 4 2 1 1 2 2
42 38 34 30 24 19 20 17 13 7 9 4 16 4 7 7 4 3 4 4 3 2 2 2 1 1 1 1 1 3 1 1 2 0 0 3 2 2 2 3 2 3 2 1
47 43 37 29 26 21 19 18 15 7 9 9 6 7 7 7 7 4 7 5 1 2 2 2 2 1 1 1 2 1 3 3 2 1 2 2 2 2 0 3 2 3 2 2
47 47 30 26 25 19 20 20 15 10 10 11 12 11 8 5 6 9 5 2 3 3 3 1 2 2 1 2 3 3 0 3 2 3 3 2 7 7 5 2 2 1 2 3
46 42 30 27 24 20 17 19 20 16 22 15 9 9 7 6 5 6 4 5 4 4 3 3 2 2 2 1 1 2 3 5 2 2 5 5 12 10 10 6 3 1 1 4
46 38 38 35 22 18 17 21 21 14 12 7 4 8 8 7 5 3 3 10 9 11 7 2 1 2 4 1 1 1 3 5 1 2 1 1 6 15 11 8 3 1 1 3
45 41 43 33 18 18 17 22 19 15 3 7 8 10 8 7 6 7 9 11 13 9 3 2 2 1 2 2 1 2 1 1 2 3 2 0 3 8 11 8 4 2 3 2
47 40 39 31 17 20 22 7 10 10 14 10 3 6 6 7 7 9 10 10 8 3 2 1 1 1 2 2 2 2 5 3 1 2 3 5 8 9 6 10 6 4 4 4
47 40 37 26 24 27 7 6 17 18 10 6 5 3 5 10 8 6 7 7 3 2 1 1 1 1 3 2 3 5 6 2 1 2 4 5 3 5 11 9 7 6 5 6
45 40 30 24 23 14 8 17 23 17 7 5 4 2 5 9 4 4 3 3 2 1 1 1 2 1 2 3 7 7 6 4 5 4 4 6 10 10 10 7 8 7 7 7
44 37 29 24 13 6 11 20 17 8 3 7 4 5 4 11 5 5 4 3 2 3 1 3 3 2 4 6 10 14 10 5 5 7 7 7 8 8 9 9 8 8 9 8
43 36 11 7 10 21 19 7 6 3 2 4 4 8 3 11 6 5 5 3 2 1 4 3 2 3 14 9 9 11 10 8 5 5 4 6 7 8 9 8 8 8 8 10
35 14 6 24 22 6 3 4 2 1 2 4 6 7 8 8 3 3 4 3 2 1 3 3 3 3 5 14 14 11 8 6 5 5 6 7 8 9 9 7 9 9 9 10
22 17 26 16 4 3 4 1 2 1 4 6 8 9 9 7 5 4 4 3 2 3 5 2 3 4 8 16 14 10 6 5 3 4 5 7 8 9 8 9 10 9 10 11
39 11 5 6 2 3 7 6 3 2 10 10 13 4 7 6 4 4 3 4 4 4 3 4 5 3 14 16 13 9 7 5 4 5 5 6 6 6 7 8 8 9 10 10
6 6 6 5 4 5 4 3 4 6 14 27 23 9 5 5 3 4 4 3 4 3 3 5 3 15 18 16 11 10 8 7 6 6 7 7 7 7 5 6 6 7 7 7
5 6 5 5 4 4 7 14 12 12 30 28 15 8 5 2 3 2 3 4 4 6 5 3 5 16 19 16 13 11 9 8 8 7 6 7 7 6 5 5 5 6 7 8
4 3 4 6 5 3 6 12 16 25 30 19 6 3 3 2 4 3 5 7 6 4 4 4 12 17 18 15 12 7 5 6 8 8 8 8 9 8 5 4 4 5 6 6
3 2 3 5 5 8 9 17 16 30 19 3 4 4 5 4 3 2 4 5 3 6 8 8 12 13 14 12 9 7 6 7 8 8 8 10 9 10 10 9 7 9 10 12

GFSNW_850_spd_105.txt.gz
Wind_Speed
31 17 17 48 35 32 34 20 4 16 15 3 0 3 5 4 2 3 2 3 3 2 1 2 2 2 2 11 3 2 1 3 2 3 3 2 1 2 1 3 2 3 3 3
24 30 28 45 38 39 36 16 7 12 14 3 1 2 3 3 2 1 1 2 2 1 0 2 3 3 4 9 4 3 3 2 1 5 3 2 2 2 1 4 3 3 4 3
28 21 44 41 41 39 24 10 4 5 9 4 6 5 4 3 2 3 3 2 3 2 2 1 3 2 2 7 6 2 6 3 4 4 2 1 1 2 2 3 3 5 2 2
24 16 44 41 40 38 19 6 3 7 4 4 5 4 5 5 4 2 2 2 3 4 3 3 2 1 3 3 6 4 2 3 2 4 4 2 2 1 3 3 3 4 6 3
30 30 40 38 39 36 13 10 6 6 4 14 6 3 5 5 3 4 2 4 4 3 2 3 2 1 3 1 4 1 3 2 2 3 4 4 2 2 3 3 3 5 5 1
6 42 40 37 40 37 7 9 10 8 2 3 5 5 6 7 8 3 5 8 4 4 4 2 1 2 3 3 1 4 2 2 3 3 5 2 6 5 2 1 1 5 2 4
20 37 35 37 40 35 10 14 13 6 2 3 4 6 4 8 4 6 6 5 4 4 3 1 1 2 5 5 3 3 3 3 1 2 3 3 4 4 3 4 4 2 3 2
13 36 38 39 39 30 8 16 6 6 4 5 4 9 6 11 7 4 5 3 4 4 3 2 2 2 2 2 4 4 4 1 2 2 1 2 3 4 2 3 2 4 2 2
20 37 37 36 36 32 11 16 7 4 12 4 11 6 10 4 3 2 3 5 5 5 2 1 2 1 1 1 2 4 3 2 2 1 3 1 2 3 3 1 0 2 2 3
30 49 42 39 37 28 15 14 9 5 9 5 17 4 8 7 4 3 4 5 3 3 2 2 2 1 1 2 2 2 1 2 1 1 1 3 3 4 5 2 3 0 2 1
35 50 40 35 35 28 16 14 12 4 9 11 6 7 9 8 6 4 7 5 1 2 1 2 2 2 1 1 2 1 3 3 2 1 2 1 8 3 2 3 2 1 3 2
46 42 36 34 29 24 18 17 13 9 11 14 16 14 10 7 6 8 8 3 3 4 3 1 2 1 1 3 2 2 1 3 2 3 3 1 7 7 5 5 2 3 4 4
55 45 35 29 30 28 21 20 18 16 24 17 10 12 10 6 6 6 5 5 5 4 4 5 2 2 2 2 2 1 1 3 2 2 2 4 9 7 9 6 4 3 3 4
50 43 37 30 27 25 18 22 22 13 11 7 4 8 8 8 4 3 4 5 9 10 6 3 2 2 2 2 3 2 3 3 2 1 1 2 1 9 9 7 3 3 3 2
51 40 37 29 23 21 17 22 17 13 1 7 8 11 9 8 7 8 9 10 14 8 3 3 1 1 1 2 2 2 5 5 4 3 6 2 2 5 6 9 7 5 5 4
54 47 43 36 21 17 20 6 9 7 13 10 3 5 5 7 8 9 10 11 8 4 3 2 1 2 2 1 2 3 7 6 6 4 5 4 5 6 4 6 8 7 5 5
49 44 40 36 21 24 9 6 17 16 8 6 5 3 4 9 5 7 8 6 5 3 2 2 1 2 2 1 3 6 12 8 6 5 3 4 4 3 7 10 8 8 6 7
47 44 36 26 25 16 4 15 22 16 6 6 4 2 4 7 3 3 3 3 3 3 1 1 1 1 1 4 9 9 13 9 8 6 4 6 6 6 6 6 7 8 8 8
45 42 32 22 14 6 10 20 15 7 4 7 4 5 3 10 4 4 3 1 2 2 0 2 3 2 4 6 10 18 18 10 7 7 6 8 8 8 5 7 7 9 10 9
43 43 14 7 9 19 19 7 5 2 3 4 4 8 3 9 8 4 4 1 1 1 3 4 2 4 17 9 9 15 16 12 9 8 6 4 6 5 6 6 6 7 7 8
39 12 5 25 27 9 3 4 2 2 2 3 6 6 7 8 3 2 5 3 2 2 3 3 3 3 5 15 14 13 13 10 8 7 5 5 6 7 7 5 6 7 8 8
20 16 28 15 5 3 4 1 2 1 5 6 8 9 8 8 5 4 3 2 1 3 4 2 3 4 6 17 20 16 12 9 6 5 4 4 6 8 9 9 8 8 8 9
38 14 5 4 1 3 6 6 3 2 9 10 14 5 7 6 4 4 2 3 4 3 2 4 5 4 11 18 18 15 11 8 7 5 4 5 6 8 8 8 9 8 9 8
5 5 6 5 4 4 4 3 4 6 12 27 24 9 5 5 3 3 4 3 3 3 3 6 3 15 18 20 17 14 12 10 8 6 7 7 7 8 9 8 8 9 8 7
4 6 5 4 3 3 6 13 12 10 29 27 15 8 5 2 3 2 3 4 4 5 5 3 5 15 21 21 18 14 12 11 9 8 9 8 8 9 9 8 8 8 6 6
3 3 4 6 5 3 5 10 15 25 31 17 5 4 4 2 4 3 6 8 7 4 4 6 9 18 20 19 16 12 9 7 7 9 9 9 9 10 9 7 7 7 8 9
3 3 4 5 5 7 7 16 16 31 20 2 4 4 5 4 3 2 4 5 3 6 10 8 12 16 17 16 14 12 8 8 8 8 8 8 9 10 12 12 10 12 12 12

GFSNW_850_spd_108.txt.gz
Wind_Speed
23 25 26 21 17 32 28 25 3 19 20 3 1 3 5 4 3 3 2 3 3 3 2 3 2 1 3 9 3 3 2 3 2 2 1 2 1 2 2 3 2 3 3 4
26 23 27 23 31 36 37 17 7 14 19 3 2 2 2 2 3 2 3 2 1 2 2 1 2 3 4 8 5 3 4 3 3 7 4 2 5 4 3 3 2 3 4 2
25 26 26 20 43 38 34 11 5 5 11 5 4 5 4 3 3 2 4 3 3 2 1 4 2 2 1 5 7 7 4 3 3 3 3 2 3 4 4 3 3 3 2 2
26 24 27 35 39 44 30 9 4 9 5 5 4 3 5 5 4 2 3 2 3 5 3 2 2 1 2 4 9 5 3 4 4 2 4 2 3 3 4 4 2 3 4 3
28 21 11 33 52 47 18 11 6 6 3 14 7 4 5 5 3 4 2 3 4 3 4 5 5 3 3 1 5 4 4 2 3 4 6 3 4 6 2 4 3 5 3 4
17 19 22 36 45 40 9 8 11 7 2 3 5 5 7 7 8 2 2 7 4 3 3 6 5 3 3 0 2 4 2 1 2 2 4 0 5 5 3 2 3 4 3 1
17 18 38 43 52 33 11 12 14 6 3 3 4 6 3 8 3 6 4 7 3 4 6 5 3 2 2 3 2 1 2 2 1 1 2 3 4 2 3 3 4 4 4 4
12 14 39 42 51 24 15 15 6 6 3 5 3 8 6 12 9 4 5 3 5 8 5 3 2 2 2 1 2 2 1 1 1 2 2 0 3 4 2 4 3 2 2 2
6 23 31 38 47 24 12 15 7 4 10 4 9 6 10 4 3 3 3 6 6 5 2 1 2 2 3 2 2 3 3 3 2 1 3 2 2 1 1 4 1 1 1 1
6 19 36 39 40 30 10 10 9 5 9 4 11 4 8 9 4 3 4 5 4 3 2 2 2 1 1 2 4 3 1 2 2 2 2 2 3 5 2 3 4 4 3 3
5 26 38 40 38 34 9 9 8 3 9 9 6 8 9 8 7 4 7 5 1 2 2 2 2 2 2 2 2 3 3 4 2 2 2 2 6 3 1 1 2 3 4 4
23 30 44 41 35 34 12 11 8 9 12 13 16 14 10 7 6 8 10 1 3 4 4 1 2 1 1 2 2 2 0 4 4 4 4 1 4 4 3 3 2 4 4 4
34 40 42 37 37 29 14 11 14 13 23 15 9 11 9 7 6 7 5 4 5 4 4 5 2 2 3 3 3 1 1 1 2 3 2 4 4 4 6 4 4 4 5 5
41 46 34 37 34 27 13 13 15 12 11 6 5 6 7 6 3 4 3 4 8 10 5 4 2 2 2 2 1 2 4 2 4 0 1 4 2 5 6 5 4 4 5 5
45 38 37 32 29 25 13 14 14 12 1 7 8 11 9 8 6 7 8 9 12 6 4 3 1 2 2 1 1 3 6 5 4 4 9 4 5 4 1 0 3 4 6 4
46 41 34 31 27 22 17 5 8 7 12 9 3 5 6 8 8 9 11 12 9 4 4 2 2 2 2 2 3 5 10 7 5 4 8 5 4 3 3 3 4 4 4 4
52 38 38 28 24 21 9 5 13 14 6 5 5 3 4 7 6 7 8 6 5 3 3 2 2 2 1 2 3 4 12 10 8 7 6 3 4 4 3 4 5 5 5 5
48 50 31 25 22 18 3 8 20 14 4 5 4 2 3 5 3 3 2 3 3 3 2 2 2 2 0 4 10 4 15 12 9 7 4 4 4 5 5 5 5 7 6 6
46 52 30 17 12 5 8 17 12 5 2 7 4 5 4 9 4 4 2 1 2 1 1 1 3 2 5 7 11 18 22 14 8 11 6 5 6 8 7 6 6 5 6 8
44 41 12 6 8 14 18 7 4 2 2 4 4 8 3 8 4 2 3 2 1 1 1 4 2 4 21 13 11 17 21 16 12 10 7 6 5 4 4 5 4 5 5 6
39 10 6 19 27 12 4 3 2 1 2 3 6 5 6 7 3 3 2 3 0 2 3 3 2 4 5 13 17 17 20 18 12 9 7 6 5 5 6 5 4 5 5 7
16 12 23 21 6 3 4 0 2 1 5 6 8 8 7 7 5 5 3 3 3 2 3 1 3 4 6 14 21 20 20 17 12 8 6 5 5 5 6 6 7 8 7 7
33 12 4 4 3 3 7 7 3 2 9 10 11 4 6 6 4 5 3 4 3 2 2 4 5 3 7 18 22 21 17 14 11 9 7 5 6 5 6 8 8 9 10 10
6 6 6 4 3 4 4 3 4 6 12 26 21 8 5 5 3 3 4 2 3 3 3 6 3 13 12 19 22 21 18 14 11 9 7 7 6 6 7 8 9 9 9 9
4 6 5 5 3 2 4 11 11 9 29 28 14 8 5 2 3 1 3 3 4 5 5 3 5 10 18 23 23 19 15 13 11 9 9 8 7 8 8 8 8 9 9 8
2 3 4 6 4 2 5 8 11 25 33 16 5 4 4 1 4 3 6 7 7 4 4 7 5 15 20 22 20 16 12 10 8 7 8 9 9 9 8 9 9 9 9 9
2 2 4 4 3 6 7 13 16 33 21 2 4 4 5 4 3 2 4 5 3 5 7 5 9 16 18 18 17 14 12 9 7 6 7 7 7 9 11 12 11 12 13 13

GFSNW_850_spd_111.txt.gz
Wind_Speed
16 15 16 14 9 23 34 15 4 24 21 4 1 2 4 4 4 2 2 3 3 4 4 2 1 1 2 9 2 1 1 3 1 2 5 2 2 1 1 2 1 2 3 4
17 15 18 16 15 15 24 10 7 21 25 3 2 3 2 2 3 3 3 2 2 0 3 3 2 4 4 6 3 2 4 3 3 7 4 2 5 4 2 2 1 6 4 2
17 20 18 19 20 22 26 9 4 6 14 4 3 5 4 4 3 2 4 3 1 2 2 4 3 2 2 4 4 4 1 3 2 2 2 2 5 7 5 4 4 1 3 3
17 19 17 20 12 42 20 6 4 8 6 7 4 3 4 5 4 2 3 1 2 4 3 1 1 1 3 3 7 2 3 3 2 3 1 2 4 5 9 7 0 4 3 5
21 18 17 21 23 40 18 13 7 8 3 17 8 5 5 6 3 4 3 3 4 3 4 5 6 2 1 4 5 3 3 1 2 3 4 6 7 8 8 6 5 6 5 6
18 17 17 5 31 40 16 12 11 10 4 5 5 5 7 7 8 2 1 7 5 2 3 4 5 3 2 1 3 4 3 2 3 2 2 1 6 5 4 3 4 1 4 1
19 19 22 20 42 48 21 15 12 6 2 4 4 6 4 8 3 6 3 7 4 5 8 8 5 4 3 4 5 5 3 2 2 1 3 4 4 3 2 5 4 5 4 4
17 5 18 40 56 37 18 14 5 4 4 7 4 9 6 12 10 5 5 3 6 11 5 2 3 3 2 3 5 4 3 1 3 3 3 1 2 4 3 2 4 4 3 5
12 20 36 50 55 30 10 14 5 3 11 2 9 6 9 5 4 3 3 7 8 4 2 1 2 2 1 1 1 4 3 3 3 2 4 2 0 3 3 1 3 6 6 6
9 30 43 49 47 17 12 9 7 4 10 4 11 5 8 8 5 4 4 5 4 2 1 2 2 1 1 2 3 2 2 2 3 1 2 3 2 4 2 3 3 2 4 3
4 15 37 43 41 16 10 9 6 4 9 9 5 8 8 8 7 4 8 5 1 2 2 2 2 2 2 2 1 2 4 3 2 2 3 2 1 2 2 3 2 2 4 5
9 18 37 40 41 25 7 7 6 14 11 13 15 13 10 7 6 9 12 1 4 7 4 1 2 2 1 3 2 1 0 4 3 4 3 1 3 4 5 3 3 3 4 4
16 30 39 38 43 30 6 10 13 14 23 15 9 11 9 7 6 9 5 4 5 5 3 5 2 2 3 3 4 2 1 3 2 2 1 2 4 5 5 5 5 4 3 3
27 36 39 34 35 29 10 13 9 11 10 6 5 5 6 5 5 6 3 5 9 10 5 3 2 2 3 3 2 3 4 5 4 0 0 3 3 5 6 6 4 2 2 3
40 35 36 34 35 25 12 9 7 9 3 6 8 11 9 7 5 5 6 9 11 6 3 2 2 3 3 1 1 3 8 6 4 5 13 5 8 9 4 3 2 3 3 1
39 37 35 33 35 18 10 4 4 4 8 8 3 5 6 9 8 8 9 9 6 4 3 2 2 2 2 2 3 5 13 10 8 5 17 7 12 9 4 2 2 1 1 1
40 37 33 33 26 17 4 1 7 11 4 4 5 2 4 6 5 6 7 5 4 2 3 2 2 2 3 2 3 5 15 13 11 13 15 8 9 6 6 4 3 2 3 3
34 34 28 26 21 17 2 1 15 12 2 4 3 2 2 4 2 3 2 2 2 3 2 2 2 2 1 4 10 7 17 16 15 14 11 7 9 7 6 6 5 4 4 5
38 32 27 20 11 4 4 11 10 4 1 7 3 5 4 7 3 3 2 2 2 1 1 1 2 2 5 8 12 21 26 20 18 16 11 8 7 6 7 7 6 6 6 6
39 33 14 6 9 12 14 5 4 2 1 3 3 7 3 7 3 2 3 2 1 1 1 2 2 4 22 14 10 19 26 19 19 20 13 12 10 8 7 6 4 5 5 5
32 11 4 13 22 8 3 2 1 1 2 3 5 5 6 7 3 3 2 2 0 2 3 3 2 4 5 11 19 17 25 21 17 13 9 9 8 9 7 6 5 6 7 7
17 11 18 17 4 2 3 2 2 2 5 6 9 8 6 7 5 5 3 3 2 3 4 1 3 4 6 7 23 20 26 24 18 13 9 7 7 7 6 6 8 9 9 8
30 9 5 3 2 2 6 7 3 2 9 11 10 5 7 6 3 5 3 4 3 4 1 4 5 3 5 11 22 22 24 21 16 13 10 8 6 5 5 6 8 10 10 11
6 9 5 5 4 5 5 3 3 5 10 22 21 7 5 5 3 3 5 1 3 2 3 6 3 7 9 18 22 24 24 20 16 12 10 8 6 6 6 7 8 11 11 10
5 5 5 6 4 2 3 9 9 7 29 28 12 7 5 2 3 1 4 3 4 6 5 3 3 6 15 23 24 23 20 17 14 12 10 7 7 9 8 8 9 9 10 11
4 3 3 3 4 4 6 7 9 24 34 15 4 3 3 1 4 3 6 8 7 4 4 6 3 11 17 21 23 20 16 13 11 9 7 6 7 9 8 7 10 9 9 10
2 3 4 9 1 5 8 10 17 32 21 3 4 4 5 4 2 2 4 5 3 4 5 4 6 14 18 19 19 18 15 14 12 8 7 5 7 8 9 10 8 10 12 13

GFSNW_850_spd_114.txt.gz
Wind_Speed
16 14 12 13 10 9 25 15 3 25 22 4 0 2 3 3 5 3 2 1 3 4 4 3 2 2 3 4 6 5 3 3 3 3 4 5 4 7 4 3 4 5 6 5
12 14 13 12 8 5 17 8 7 22 20 3 3 2 3 2 4 4 4 2 1 2 3 2 2 4 5 6 3 4 3 3 2 3 1 1 5 13 5 2 2 5 3 5
11 13 13 14 10 9 11 7 4 5 11 1 3 5 5 5 1 3 2 2 2 3 3 2 3 1 2 4 5 4 3 4 6 5 4 4 6 17 10 1 7 13 10 12
10 10 11 17 10 12 16 6 4 7 6 6 5 3 7 7 6 2 4 3 2 3 3 3 2 1 3 2 7 4 3 4 5 6 3 3 9 13 16 8 5 9 10 14
10 10 13 19 13 17 20 8 5 6 3 10 13 6 7 11 4 6 5 2 7 3 2 0 4 2 1 2 4 2 3 2 2 6 9 10 14 16 12 13 13 14 14 13
10 13 14 20 18 26 9 8 8 6 8 9 11 6 8 11 8 1 1 6 7 3 2 3 5 4 3 2 4 5 3 1 1 2 4 5 7 12 10 9 10 6 10 6
10 13 14 17 18 33 17 17 11 3 4 7 9 8 7 12 4 4 4 6 3 4 8 8 5 4 4 3 6 6 3 1 1 2 2 3 3 4 2 12 10 9 8 6
14 17 17 23 18 35 23 22 8 4 4 7 4 10 8 11 9 5 7 4 5 12 3 2 3 2 2 4 5 5 4 2 2 1 4 3 3 3 2 4 7 8 6 5
12 19 20 34 38 36 25 14 9 3 10 5 7 7 13 7 5 4 4 7 9 3 1 1 1 1 1 2 1 1 1 2 2 1 2 2 2 1 3 3 3 6 6 7
8 18 35 37 49 37 17 15 8 4 8 4 8 4 10 6 4 4 5 5 3 1 1 1 1 2 0 1 1 1 1 2 3 3 3 2 1 1 2 1 4 5 6 7
26 27 43 49 37 25 18 13 6 4 8 9 5 7 6 6 4 4 8 5 2 2 3 2 2 1 2 2 1 1 1 1 1 1 1 2 2 3 2 4 5 4 4 4
9 38 50 42 31 20 14 12 7 14 9 11 13 12 9 6 5 6 11 1 4 4 2 2 2 2 2 1 2 1 2 1 1 2 2 2 1 2 5 4 5 3 3 3
17 42 50 35 24 18 13 12 13 19 20 14 8 9 8 6 5 8 3 3 5 4 3 3 1 1 2 3 3 3 3 3 1 3 3 2 1 3 4 5 4 5 4 3
25 36 44 39 22 15 10 12 7 10 9 5 4 5 5 4 4 4 2 3 6 8 5 2 1 1 2 1 1 3 1 8 5 1 2 3 4 4 6 6 5 3 2 2
25 34 40 41 21 12 7 6 6 7 2 6 6 8 6 5 3 3 4 8 8 4 2 1 1 2 3 1 1 4 9 5 5 4 12 3 10 13 10 8 5 3 2 2
33 34 32 36 21 11 9 3 2 4 9 7 4 4 5 7 7 5 6 6 4 3 2 2 1 2 1 3 3 4 14 12 8 3 14 6 15 14 9 7 4 3 3 2
33 31 29 32 25 11 3 1 6 7 4 4 5 2 3 5 4 4 4 4 3 2 2 1 2 3 3 2 4 4 14 15 12 12 20 10 16 9 10 7 6 6 5 6
33 31 27 30 20 7 2 4 11 6 3 4 4 2 1 5 1 2 2 1 2 2 1 1 2 2 3 5 11 7 16 17 16 20 15 11 14 12 11 9 8 8 8 8
33 28 26 23 12 3 3 7 7 1 1 6 3 5 3 8 2 2 1 1 1 1 2 2 2 3 6 8 13 20 27 22 21 21 15 13 14 14 12 11 10 10 10 9
35 30 13 6 8 12 9 3 3 2 1 2 3 6 3 6 3 2 3 1 1 2 1 2 3 5 18 13 11 23 29 22 25 25 18 18 16 16 14 12 10 11 11 9
24 9 5 12 17 6 3 2 1 1 1 3 5 5 6 7 3 3 2 2 1 2 2 2 2 4 4 10 21 18 28 25 24 23 17 17 13 15 13 11 9 8 9 8
15 9 15 14 4 2 2 2 0 3 3 6 7 7 5 7 4 3 3 2 1 3 4 2 3 4 5 4 21 19 28 26 23 18 15 14 12 12 11 10 10 10 9 9
24 8 4 3 4 2 6 7 3 3 9 11 9 4 7 6 3 4 2 3 3 5 2 4 5 3 4 7 23 21 29 25 23 18 14 12 11 10 9 9 10 10 11 11
5 7 5 5 4 5 5 4 3 5 8 21 18 7 4 4 3 3 3 1 3 3 3 6 2 5 10 12 23 25 31 28 23 18 15 12 11 8 8 10 11 12 12 13
7 7 6 7 5 2 4 6 8 8 23 30 11 6 3 2 3 2 4 3 5 6 5 3 4 5 14 20 26 27 30 27 22 18 15 12 9 8 9 10 11 10 10 12
7 7 3 2 4 4 6 10 8 20 30 18 5 3 3 3 3 4 8 6 6 3 3 6 5 9 17 22 25 24 24 21 18 15 13 10 8 9 9 9 10 10 10 11
5 5 9 10 2 5 9 14 14 30 24 3 4 5 5 4 2 4 5 5 3 4 6 5 6 11 18 23 24 23 21 19 16 14 12 9 8 10 10 11 8 10 10 11

GFSNW_850_spd_117.txt.gz
Wind_Speed
11 11 11 10 10 12 9 9 2 21 21 4 3 4 1 1 8 4 2 1 1 4 5 3 1 2 2 5 4 5 3 4 4 4 3 5 7 9 4 4 5 6 6 6
11 9 10 9 12 9 22 10 4 19 12 3 4 2 2 1 4 5 2 2 2 2 4 2 4 3 4 4 5 7 9 5 3 5 4 5 5 14 3 3 2 13 5 4
8 10 10 10 11 10 20 6 3 3 6 2 2 4 3 3 2 4 1 1 2 4 4 1 4 1 2 5 5 9 5 5 5 6 5 5 7 14 12 3 8 12 13 14
8 11 10 13 10 12 14 4 4 6 4 6 4 4 4 6 3 1 3 2 4 1 2 4 3 2 4 1 4 2 3 3 5 7 7 12 12 16 18 13 14 9 14 17
7 11 12 16 12 12 8 3 4 4 0 8 9 4 4 7 4 5 4 4 5 4 0 3 3 4 1 2 5 3 3 2 4 6 8 12 15 17 15 14 15 15 16 15
9 10 12 17 16 15 6 5 9 5 6 8 8 5 5 7 6 1 4 3 5 3 4 1 5 4 5 3 5 6 4 2 2 3 2 4 5 12 9 13 13 10 10 9
10 10 10 17 16 20 10 9 6 3 4 6 8 3 7 9 5 2 2 4 1 3 5 4 3 4 3 3 4 4 4 2 2 2 4 2 3 5 8 12 12 11 10 10
11 14 12 21 14 19 17 15 2 2 2 4 5 6 5 10 7 7 6 3 2 4 2 3 4 4 5 2 2 2 2 3 0 2 5 4 3 2 3 5 8 10 10 9
13 16 17 22 22 18 23 16 12 3 4 3 5 9 12 9 5 4 2 3 4 2 2 2 2 1 2 3 3 2 3 3 3 1 2 1 4 4 4 6 2 7 9 10
15 20 24 24 24 26 16 12 13 1 5 3 5 4 9 3 3 3 4 3 1 2 2 1 1 2 1 0 0 2 1 1 1 3 2 4 4 2 3 3 4 4 6 8
13 25 33 34 30 29 15 9 8 4 5 5 3 5 4 4 4 3 7 4 2 2 3 2 1 1 2 2 1 1 2 2 1 1 0 4 2 3 4 5 6 5 6 6
18 30 37 33 35 24 14 9 5 9 7 6 8 9 7 5 4 2 7 2 2 2 2 1 2 1 1 2 2 2 1 3 3 4 3 3 3 5 5 4 6 4 4 4
30 38 42 32 29 22 14 11 9 10 10 8 4 3 6 4 3 7 2 1 2 1 1 2 2 2 3 1 1 1 3 2 1 3 4 6 6 5 5 4 5 4 4 3
42 39 37 29 22 19 14 13 6 8 7 4 3 4 4 3 3 4 1 2 3 4 1 1 1 2 1 2 2 4 2 7 5 2 4 4 5 5 6 6 5 3 2 3
41 36 31 25 20 18 12 9 8 3 4 4 6 6 4 3 3 2 2 5 2 1 1 2 0 0 2 1 2 6 10 6 5 2 11 7 12 13 10 7 5 3 2 1
36 35 24 17 15 15 9 3 2 4 7 5 4 2 2 4 4 3 3 3 2 1 1 0 1 1 2 2 3 4 16 10 5 2 12 6 12 13 12 8 6 4 3 3
34 32 32 17 7 7 2 2 5 4 3 3 4 3 1 4 4 1 1 1 1 0 1 2 1 2 3 3 4 4 15 14 10 12 16 9 14 9 15 11 9 7 7 7
28 30 29 27 11 1 3 3 9 4 3 3 3 1 2 5 2 2 1 1 1 1 1 1 3 2 4 5 12 6 14 15 13 16 11 6 13 11 14 12 10 8 7 8
28 26 22 22 9 2 2 4 6 2 1 4 2 4 2 6 2 1 1 0 2 2 2 2 2 4 6 7 11 18 22 20 18 18 15 11 14 15 13 12 11 10 8 10
27 24 9 5 6 5 3 1 2 3 3 3 3 4 3 5 5 3 2 1 1 2 2 2 4 5 20 11 10 17 24 18 22 20 16 15 15 17 15 13 10 10 10 11
25 9 5 9 13 7 3 2 3 2 2 4 4 5 5 7 3 2 3 1 1 2 2 2 3 4 4 9 19 17 24 23 22 21 17 19 15 17 15 13 11 10 10 10
11 2 10 12 4 3 2 3 1 4 3 6 7 6 4 6 4 3 3 1 1 3 3 2 4 3 5 6 17 19 23 24 21 21 16 15 14 13 13 12 10 10 10 10
17 4 3 4 4 3 5 7 4 3 10 11 9 5 6 5 3 3 2 4 3 1 2 4 5 2 5 8 17 19 22 24 21 20 16 15 15 13 12 11 10 10 11 12
7 6 4 6 5 6 5 4 3 6 11 21 17 8 4 4 4 3 4 2 2 3 4 6 2 6 11 11 18 21 25 26 22 22 18 15 13 12 10 9 10 11 12 14
6 6 6 7 7 1 3 7 8 8 21 24 11 6 4 3 3 3 3 3 5 6 5 2 1 5 11 13 21 24 28 29 25 22 18 15 13 11 9 9 10 12 12 14
6 9 4 4 3 4 4 9 7 18 24 16 6 4 3 4 3 5 8 5 7 3 3 4 4 4 11 13 20 23 26 27 23 19 15 13 12 9 8 10 11 10 11 11
7 6 13 8 5 5 8 11 11 25 22 3 4 6 6 4 3 4 5 5 2 2 4 4 5 6 12 15 20 20 23 23 21 17 15 13 11 10 10 11 9 11 12 13

GFSNW_850_spd_120.txt.gz
Wind_Speed
8 3 2 5 6 11 7 7 3 17 16 3 2 2 2 3 4 3 1 4 6 2 3 3 3 2 4 4 4 5 3 2 4 2 1 7 5 5 4 4 6 2 2 4
4 3 5 8 8 11 10 6 6 18 5 2 2 2 2 2 2 1 1 3 4 3 1 2 4 3 3 7 3 6 5 3 5 2 2 3 5 6 4 3 3 12 3 4
3 6 9 10 11 7 13 6 3 1 2 5 4 2 2 2 4 6 4 5 3 2 1 2 1 2 2 3 5 5 4 4 4 4 3 3 8 16 13 5 6 4 8 11
6 11 12 12 8 10 12 4 3 6 2 4 4 3 2 5 3 2 3 3 3 3 1 1 2 3 5 4 4 3 0 3 3 6 8 12 16 16 16 14 9 7 9 14
11 14 14 13 11 21 10 4 4 4 4 8 5 1 1 2 2 1 4 4 5 2 3 3 2 2 2 2 6 1 2 2 3 5 6 14 11 17 14 10 8 10 11 12
14 15 14 14 14 20 7 8 8 1 5 2 3 2 4 2 4 4 7 4 5 1 6 6 8 6 4 2 4 6 4 3 2 0 3 4 7 9 9 10 13 11 9 9
15 15 14 15 13 12 13 8 2 4 3 3 3 2 4 6 6 5 3 6 3 2 2 1 1 2 2 2 4 3 5 4 1 2 2 3 3 3 4 12 10 8 7 7
13 16 13 15 13 14 12 9 5 6 3 6 6 5 5 9 11 8 9 7 3 2 3 3 3 3 2 1 4 4 3 3 2 2 3 4 3 2 2 4 8 7 7 6
15 15 14 18 12 14 11 8 2 8 2 4 5 4 8 4 4 3 3 3 3 4 3 2 2 1 2 3 2 3 5 3 0 2 2 3 3 2 3 5 4 7 10 8
16 17 18 18 14 15 15 8 3 4 5 2 7 3 1 4 1 3 4 2 1 4 3 1 2 2 2 0 1 1 1 3 1 3 3 3 3 3 4 2 3 8 12 14
20 21 20 21 19 16 13 6 4 2 4 4 3 4 4 3 4 2 5 3 1 1 2 2 1 2 2 2 1 2 1 1 2 1 1 3 2 0 3 5 9 10 10 11
23 27 28 25 23 21 14 2 4 3 4 6 6 6 5 4 5 4 2 1 2 3 2 1 2 2 1 4 2 1 0 1 1 2 2 3 4 8 8 6 10 8 9 8
23 30 29 28 28 18 12 4 4 8 8 8 4 2 5 4 3 4 2 1 0 2 2 3 1 2 3 2 2 1 3 3 1 3 4 7 8 8 8 7 8 7 7 7
28 30 28 27 25 14 6 8 7 8 5 4 1 4 3 3 3 3 1 1 0 2 1 2 1 1 1 3 2 2 1 7 4 2 5 8 8 10 12 11 9 8 7 6
32 28 24 22 15 11 10 7 5 4 3 4 4 4 2 3 3 3 2 2 2 2 3 2 1 0 2 2 2 4 9 6 4 4 17 9 15 18 14 12 9 7 5 5
29 27 25 24 20 14 8 2 1 5 5 4 3 3 3 3 4 3 2 2 1 1 2 2 2 1 1 2 3 5 21 10 9 3 14 5 14 20 15 13 11 8 5 4
27 22 17 14 14 8 3 2 3 3 2 1 4 2 1 3 3 1 0 1 1 2 2 2 3 1 2 2 4 6 16 14 10 13 18 14 18 13 18 13 10 7 5 3
29 22 13 6 4 3 3 2 6 1 1 2 2 1 2 6 2 2 2 1 1 2 2 2 3 2 4 4 12 6 14 16 15 17 13 8 14 10 17 14 10 7 5 5
33 27 18 13 8 3 4 1 5 4 3 2 3 4 3 8 3 2 2 2 1 2 2 2 1 3 5 9 13 23 23 22 20 20 14 10 16 15 15 13 10 8 6 7
28 22 9 4 5 6 5 3 2 4 4 5 3 5 2 6 6 3 4 1 1 1 3 2 3 4 26 18 14 17 24 24 21 26 19 18 17 17 15 12 9 7 8 9
22 8 6 5 6 4 4 3 3 4 2 7 5 6 5 8 3 3 4 2 1 0 3 2 3 4 5 10 25 14 20 25 21 22 20 20 17 17 15 12 10 9 9 9
11 10 10 9 5 3 1 3 2 3 5 8 9 6 4 7 5 3 4 3 2 4 4 1 4 4 6 5 16 21 20 26 22 20 14 15 15 13 13 11 10 9 8 8
16 3 5 4 4 0 5 5 3 3 6 12 10 3 8 5 4 3 2 3 4 3 0 4 5 3 6 8 16 20 21 24 22 22 16 14 15 13 12 11 9 9 9 9
5 4 3 5 4 5 4 3 2 1 3 17 17 8 6 5 3 3 4 3 3 2 3 7 3 9 12 11 16 23 25 25 25 22 20 17 15 14 12 10 9 8 10 11
6 7 6 9 10 8 7 6 4 2 12 19 7 3 5 3 2 3 3 2 5 6 5 4 5 7 11 15 17 25 26 27 26 22 21 18 15 13 11 9 9 9 11 11
6 8 5 4 1 5 8 11 10 14 21 15 3 2 1 5 4 4 8 7 7 4 3 5 6 7 11 16 17 24 26 26 26 22 20 17 15 12 10 10 9 10 10 10
7 7 18 9 3 3 8 12 13 22 21 3 4 4 8 1 2 4 6 6 3 4 6 6 8 8 12 16 18 23 25 25 25 23 20 16 14 13 12 9 8 10 11 11

GFSNW_850_spd_123.txt.gz
Wind_Speed
6 8 9 11 14 14 12 9 4 16 7 3 2 2 3 2 2 4 2 3 5 3 5 4 3 2 1 1 1 2 4 2 3 4 5 5 3 4 3 3 6 3 2 3
8 9 11 13 15 12 13 8 6 7 5 3 2 2 3 6 4 2 4 3 4 3 3 4 4 4 2 4 2 1 2 2 4 6 2 5 5 7 5 3 1 12 2 4
12 14 13 13 13 12 11 7 3 1 4 1 3 2 1 2 5 3 5 2 6 3 3 4 4 1 1 2 2 3 1 3 1 5 3 2 5 15 16 6 3 3 9 11
15 15 13 13 12 14 7 5 2 2 1 3 2 3 1 2 2 3 4 3 4 2 3 3 3 1 3 3 3 2 2 4 5 5 5 15 14 14 13 14 8 7 8 14
16 15 14 12 18 12 10 5 5 4 2 3 3 4 3 3 3 3 3 4 3 6 5 3 3 2 2 1 7 4 2 1 3 3 5 15 11 12 13 11 7 6 4 6
15 15 14 17 20 12 8 9 8 3 1 2 3 2 2 3 3 5 6 3 4 6 4 5 4 5 2 0 2 4 3 2 2 2 4 2 6 8 8 5 7 3 5 3
16 15 15 15 16 10 15 8 3 3 1 2 1 3 6 5 4 4 5 12 4 4 3 4 0 1 2 0 3 2 3 3 2 2 3 4 3 3 4 8 10 7 5 2
15 16 15 15 17 13 11 9 5 4 3 2 5 7 4 10 11 4 4 6 3 2 4 3 3 4 2 1 0 3 2 1 2 3 3 3 1 2 1 2 5 7 6 4
15 13 14 15 15 14 9 7 11 5 5 3 4 2 5 3 2 2 2 3 3 6 1 2 2 1 0 2 4 1 2 2 3 2 3 2 2 2 1 2 3 7 10 9
17 13 16 15 14 13 11 3 4 5 5 3 4 2 1 2 3 3 2 1 2 3 3 3 2 2 0 1 1 1 3 3 2 2 2 3 4 3 2 1 4 5 8 11
16 14 17 16 14 12 8 2 1 1 3 5 3 2 1 3 3 3 2 2 3 3 3 2 1 2 2 3 2 1 3 2 2 1 2 3 3 2 5 8 11 11 9 9
18 18 17 17 15 13 8 1 2 2 3 5 6 5 5 5 5 5 2 2 1 2 2 1 1 1 1 2 2 1 2 4 3 6 4 3 3 7 13 19 16 11 12 9
22 23 21 20 17 16 8 3 3 2 5 5 3 3 4 3 3 5 2 2 2 1 1 2 2 0 3 2 4 2 3 4 2 2 3 5 9 12 13 18 16 14 14 12
22 26 22 20 21 14 4 2 2 0 1 3 2 5 5 4 4 4 3 2 3 1 1 1 1 2 2 3 3 3 5 7 5 3 2 4 9 12 15 14 14 15 14 13
23 25 21 21 18 7 2 1 5 6 2 3 2 4 4 5 5 5 4 4 3 2 1 1 2 2 0 2 1 4 9 7 5 6 16 8 13 20 18 18 17 15 14 13
22 22 20 17 9 8 5 4 4 3 4 1 1 3 5 5 5 4 4 4 3 2 2 3 2 1 1 1 3 7 20 14 16 4 9 16 7 23 20 18 16 14 12 10
21 20 19 16 7 2 6 4 1 3 2 2 2 2 2 5 4 4 3 4 3 3 2 3 2 3 4 2 4 6 15 19 15 10 18 9 24 22 21 18 16 13 10 9
21 18 16 13 6 1 3 5 2 2 2 2 2 2 2 7 3 2 3 2 3 4 2 2 3 3 3 4 13 5 13 19 18 21 20 13 20 17 22 19 17 14 10 8
20 16 8 0 3 1 5 8 6 7 5 3 3 4 3 6 3 3 3 2 1 2 2 3 4 2 5 10 14 24 24 23 21 23 18 15 21 21 24 21 18 14 12 10
24 16 5 2 3 4 9 5 3 2 4 5 3 4 2 7 5 1 2 2 2 1 3 3 3 4 28 24 14 12 27 26 21 28 20 21 22 23 23 21 16 13 12 10
21 8 6 4 1 3 3 4 2 3 2 5 3 7 4 8 3 3 5 2 0 1 3 3 3 4 6 10 24 21 21 29 25 27 26 24 21 24 22 20 17 14 11 9
19 7 8 7 3 3 2 3 2 3 5 8 9 6 4 6 4 3 4 2 2 5 3 2 4 5 11 7 11 29 21 28 28 24 21 23 21 20 19 18 16 13 11 9
18 9 7 5 4 2 7 7 4 2 6 9 7 3 6 5 4 1 2 3 5 2 1 4 6 4 7 10 11 23 22 25 27 25 19 20 21 20 20 18 15 13 10 8
5 6 4 5 4 4 5 5 3 1 3 16 15 5 2 4 3 3 2 3 2 1 3 7 3 10 16 12 15 22 28 27 29 27 23 23 22 21 19 17 14 12 10 7
7 6 5 5 5 3 5 7 5 3 7 17 7 4 4 1 1 3 3 3 5 6 5 4 6 6 10 16 18 23 28 29 30 29 27 25 23 22 19 17 14 11 8 7
6 8 3 4 1 4 6 7 5 9 17 13 3 3 0 4 3 2 8 5 6 4 4 9 7 7 9 14 17 21 26 28 29 29 27 25 23 21 18 16 13 9 7 6
6 5 13 8 5 6 7 12 11 16 20 3 4 5 8 1 1 4 5 5 4 7 11 10 9 10 10 13 17 20 26 27 28 28 26 24 21 20 18 15 11 8 7 6